﻿<?xml version="1.0" encoding="utf-8"?><gpx creator="Garmin Desktop App" version="1.1" xsi:schemaLocation="http://www.topografix.com/GPX/1/1 http://www.topografix.com/GPX/1/1/gpx.xsd http://www.garmin.com/xmlschemas/WaypointExtension/v1 http://www8.garmin.com/xmlschemas/WaypointExtensionv1.xsd http://www.garmin.com/xmlschemas/TrackPointExtension/v1 http://www.garmin.com/xmlschemas/TrackPointExtensionv1.xsd http://www.garmin.com/xmlschemas/GpxExtensions/v3 http://www8.garmin.com/xmlschemas/GpxExtensionsv3.xsd http://www.garmin.com/xmlschemas/ActivityExtension/v1 http://www8.garmin.com/xmlschemas/ActivityExtensionv1.xsd http://www.garmin.com/xmlschemas/AdventuresExtensions/v1 http://www8.garmin.com/xmlschemas/AdventuresExtensionv1.xsd http://www.garmin.com/xmlschemas/PressureExtension/v1 http://www.garmin.com/xmlschemas/PressureExtensionv1.xsd http://www.garmin.com/xmlschemas/TripExtensions/v1 http://www.garmin.com/xmlschemas/TripExtensionsv1.xsd http://www.garmin.com/xmlschemas/TripMetaDataExtensions/v1 http://www.garmin.com/xmlschemas/TripMetaDataExtensionsv1.xsd http://www.garmin.com/xmlschemas/ViaPointTransportationModeExtensions/v1 http://www.garmin.com/xmlschemas/ViaPointTransportationModeExtensionsv1.xsd http://www.garmin.com/xmlschemas/CreationTimeExtensions/v1 http://www.garmin.com/xmlschemas/CreationTimeExtensionsv1.xsd" xmlns="http://www.topografix.com/GPX/1/1" xmlns:xsi="http://www.w3.org/2001/XMLSchema-instance" xmlns:wptx1="http://www.garmin.com/xmlschemas/WaypointExtension/v1" xmlns:gpxtrx="http://www.garmin.com/xmlschemas/GpxExtensions/v3" xmlns:gpxtpx="http://www.garmin.com/xmlschemas/TrackPointExtension/v1" xmlns:gpxx="http://www.garmin.com/xmlschemas/GpxExtensions/v3" xmlns:trp="http://www.garmin.com/xmlschemas/TripExtensions/v1" xmlns:adv="http://www.garmin.com/xmlschemas/AdventuresExtensions/v1" xmlns:prs="http://www.garmin.com/xmlschemas/PressureExtension/v1" xmlns:tmd="http://www.garmin.com/xmlschemas/TripMetaDataExtensions/v1" xmlns:vptm="http://www.garmin.com/xmlschemas/ViaPointTransportationModeExtensions/v1" xmlns:ctx="http://www.garmin.com/xmlschemas/CreationTimeExtension/v1">

  <metadata>
    <link href="http://www.garmin.com">
      <text>Garmin International</text>
    </link>
    <time>2014-06-09T05:13:20Z</time>
    <bounds maxlat="46.027430556714535" maxlon="8.685810109600425" minlat="46.015322646126151" minlon="8.626733366400003" />
  </metadata>

  <trk>
    <name>monte morissolo2014-06-08</name>
    <extensions>
      <gpxx:TrackExtension>
        <gpxx:DisplayColor>Yellow</gpxx:DisplayColor>
      </gpxx:TrackExtension>
    </extensions>
    <trkseg>
      <trkpt lat="46.021974105387926" lon="8.685802901163697">
        <ele>189.03999999999999</ele>
        <time>2014-06-08T07:10:50Z</time>
      </trkpt>
      <trkpt lat="46.021998832002282" lon="8.685777839273214">
        <ele>189.03999999999999</ele>
        <time>2014-06-08T07:11:05Z</time>
      </trkpt>
      <trkpt lat="46.022006375715137" lon="8.685810109600425">
        <ele>189.03999999999999</ele>
        <time>2014-06-08T07:11:31Z</time>
      </trkpt>
      <trkpt lat="46.021996149793267" lon="8.685794770717621">
        <ele>188.08000000000001</ele>
        <time>2014-06-08T07:11:40Z</time>
      </trkpt>
      <trkpt lat="46.022000089287758" lon="8.685805080458522">
        <ele>188.56</ele>
        <time>2014-06-08T07:12:05Z</time>
      </trkpt>
      <trkpt lat="46.02200117893517" lon="8.685774737969041">
        <ele>189.52000000000001</ele>
        <time>2014-06-08T07:12:22Z</time>
      </trkpt>
      <trkpt lat="46.021913504227996" lon="8.685701983049512">
        <ele>190</ele>
        <time>2014-06-08T07:12:36Z</time>
      </trkpt>
      <trkpt lat="46.021967399865389" lon="8.685525376349688">
        <ele>190.96000000000001</ele>
        <time>2014-06-08T07:12:52Z</time>
      </trkpt>
      <trkpt lat="46.021974356845021" lon="8.685518251731992">
        <ele>190.96000000000001</ele>
        <time>2014-06-08T07:12:53Z</time>
      </trkpt>
      <trkpt lat="46.022075526416302" lon="8.685337202623487">
        <ele>193.84</ele>
        <time>2014-06-08T07:13:15Z</time>
      </trkpt>
      <trkpt lat="46.022052140906453" lon="8.685211054980755">
        <ele>195.77000000000001</ele>
        <time>2014-06-08T07:13:29Z</time>
      </trkpt>
      <trkpt lat="46.022060355171561" lon="8.685190435498953">
        <ele>195.77000000000001</ele>
        <time>2014-06-08T07:13:31Z</time>
      </trkpt>
      <trkpt lat="46.022097989916801" lon="8.684984324499965">
        <ele>199.13</ele>
        <time>2014-06-08T07:13:46Z</time>
      </trkpt>
      <trkpt lat="46.022134786471725" lon="8.684847112745047">
        <ele>199.61000000000001</ele>
        <time>2014-06-08T07:13:58Z</time>
      </trkpt>
      <trkpt lat="46.022165128961205" lon="8.684713421389461">
        <ele>201.05000000000001</ele>
        <time>2014-06-08T07:14:09Z</time>
      </trkpt>
      <trkpt lat="46.022176360711455" lon="8.684577886015177">
        <ele>202.49000000000001</ele>
        <time>2014-06-08T07:14:18Z</time>
      </trkpt>
      <trkpt lat="46.022177282720804" lon="8.684526672586799">
        <ele>202.97999999999999</ele>
        <time>2014-06-08T07:14:22Z</time>
      </trkpt>
      <trkpt lat="46.022183652967215" lon="8.684453330934048">
        <ele>203.46000000000001</ele>
        <time>2014-06-08T07:14:26Z</time>
      </trkpt>
      <trkpt lat="46.022203434258699" lon="8.684251997619867">
        <ele>203.94</ele>
        <time>2014-06-08T07:14:36Z</time>
      </trkpt>
      <trkpt lat="46.022211145609617" lon="8.684195755049586">
        <ele>204.41999999999999</ele>
        <time>2014-06-08T07:14:40Z</time>
      </trkpt>
      <trkpt lat="46.022221958264709" lon="8.684136997908354">
        <ele>204.90000000000001</ele>
        <time>2014-06-08T07:14:44Z</time>
      </trkpt>
      <trkpt lat="46.022243667393923" lon="8.684009844437242">
        <ele>205.38</ele>
        <time>2014-06-08T07:14:53Z</time>
      </trkpt>
      <trkpt lat="46.022249702364206" lon="8.683969611302018">
        <ele>205.86000000000001</ele>
        <time>2014-06-08T07:14:56Z</time>
      </trkpt>
      <trkpt lat="46.022266382351518" lon="8.683891575783491">
        <ele>205.86000000000001</ele>
        <time>2014-06-08T07:15:01Z</time>
      </trkpt>
      <trkpt lat="46.022289097309113" lon="8.683779761195183">
        <ele>206.81999999999999</ele>
        <time>2014-06-08T07:15:09Z</time>
      </trkpt>
      <trkpt lat="46.022292450070381" lon="8.683727709576488">
        <ele>207.30000000000001</ele>
        <time>2014-06-08T07:15:13Z</time>
      </trkpt>
      <trkpt lat="46.022369647398591" lon="8.683499386534095">
        <ele>208.25999999999999</ele>
        <time>2014-06-08T07:15:29Z</time>
      </trkpt>
      <trkpt lat="46.022426392883062" lon="8.683239798992872">
        <ele>211.15000000000001</ele>
        <time>2014-06-08T07:15:46Z</time>
      </trkpt>
      <trkpt lat="46.022458747029305" lon="8.683033604174852">
        <ele>211.63</ele>
        <time>2014-06-08T07:16:02Z</time>
      </trkpt>
      <trkpt lat="46.022456316277385" lon="8.682839395478368">
        <ele>213.06999999999999</ele>
        <time>2014-06-08T07:16:16Z</time>
      </trkpt>
      <trkpt lat="46.022393787279725" lon="8.682617861777544">
        <ele>214.03</ele>
        <time>2014-06-08T07:16:31Z</time>
      </trkpt>
      <trkpt lat="46.022373167797923" lon="8.682434298098087">
        <ele>215.94999999999999</ele>
        <time>2014-06-08T07:16:46Z</time>
      </trkpt>
      <trkpt lat="46.022420944646001" lon="8.682362046092749">
        <ele>216.91</ele>
        <time>2014-06-08T07:16:54Z</time>
      </trkpt>
      <trkpt lat="46.022466039285064" lon="8.682298511266708">
        <ele>217.88</ele>
        <time>2014-06-08T07:17:01Z</time>
      </trkpt>
      <trkpt lat="46.022563436999917" lon="8.682179069146514">
        <ele>219.31999999999999</ele>
        <time>2014-06-08T07:17:16Z</time>
      </trkpt>
      <trkpt lat="46.022651446983218" lon="8.682044288143516">
        <ele>220.75999999999999</ele>
        <time>2014-06-08T07:17:29Z</time>
      </trkpt>
      <trkpt lat="46.022647088393569" lon="8.682005228474736">
        <ele>221.24000000000001</ele>
        <time>2014-06-08T07:17:33Z</time>
      </trkpt>
      <trkpt lat="46.022706683725119" lon="8.681847481057048">
        <ele>223.16</ele>
        <time>2014-06-08T07:17:46Z</time>
      </trkpt>
      <trkpt lat="46.022839453071356" lon="8.681662240996957">
        <ele>226.05000000000001</ele>
        <time>2014-06-08T07:18:03Z</time>
      </trkpt>
      <trkpt lat="46.022935174405575" lon="8.681512121111155">
        <ele>228.44999999999999</ele>
        <time>2014-06-08T07:18:18Z</time>
      </trkpt>
      <trkpt lat="46.022912543267012" lon="8.68145571090281">
        <ele>228.93000000000001</ele>
        <time>2014-06-08T07:18:25Z</time>
      </trkpt>
      <trkpt lat="46.022892678156495" lon="8.681377004832029">
        <ele>228.93000000000001</ele>
        <time>2014-06-08T07:18:30Z</time>
      </trkpt>
      <trkpt lat="46.022850852459669" lon="8.68123434484005">
        <ele>229.41</ele>
        <time>2014-06-08T07:18:40Z</time>
      </trkpt>
      <trkpt lat="46.022809445858002" lon="8.681173995137215">
        <ele>229.41</ele>
        <time>2014-06-08T07:18:47Z</time>
      </trkpt>
      <trkpt lat="46.022789999842644" lon="8.680956400930882">
        <ele>229.88999999999999</ele>
        <time>2014-06-08T07:19:03Z</time>
      </trkpt>
      <trkpt lat="46.022760327905416" lon="8.680861433967948">
        <ele>229.88999999999999</ele>
        <time>2014-06-08T07:19:10Z</time>
      </trkpt>
      <trkpt lat="46.022759070619941" lon="8.680732855573297">
        <ele>229.88999999999999</ele>
        <time>2014-06-08T07:19:21Z</time>
      </trkpt>
      <trkpt lat="46.022752113640308" lon="8.68070712313056">
        <ele>229.88999999999999</ele>
        <time>2014-06-08T07:19:23Z</time>
      </trkpt>
      <trkpt lat="46.022673659026623" lon="8.680586088448763">
        <ele>230.37</ele>
        <time>2014-06-08T07:19:38Z</time>
      </trkpt>
      <trkpt lat="46.022724788635969" lon="8.680574856698513">
        <ele>230.37</ele>
        <time>2014-06-08T07:19:55Z</time>
      </trkpt>
      <trkpt lat="46.022744989022613" lon="8.68052288889885">
        <ele>230.37</ele>
        <time>2014-06-08T07:19:59Z</time>
      </trkpt>
      <trkpt lat="46.02270676754415" lon="8.680410739034414">
        <ele>230.84999999999999</ele>
        <time>2014-06-08T07:20:05Z</time>
      </trkpt>
      <trkpt lat="46.02264516055584" lon="8.680165149271488">
        <ele>230.37</ele>
        <time>2014-06-08T07:20:24Z</time>
      </trkpt>
      <trkpt lat="46.022642394527793" lon="8.680090634152293">
        <ele>230.84999999999999</ele>
        <time>2014-06-08T07:20:30Z</time>
      </trkpt>
      <trkpt lat="46.022594952955842" lon="8.679825430735946">
        <ele>230.84999999999999</ele>
        <time>2014-06-08T07:20:45Z</time>
      </trkpt>
      <trkpt lat="46.022556647658348" lon="8.679576320573688">
        <ele>230.84999999999999</ele>
        <time>2014-06-08T07:21:01Z</time>
      </trkpt>
      <trkpt lat="46.022499818354845" lon="8.679389404132962">
        <ele>230.84999999999999</ele>
        <time>2014-06-08T07:21:15Z</time>
      </trkpt>
      <trkpt lat="46.022462518885732" lon="8.67925638332963">
        <ele>230.84999999999999</ele>
        <time>2014-06-08T07:21:28Z</time>
      </trkpt>
      <trkpt lat="46.02245463989675" lon="8.679197207093239">
        <ele>230.37</ele>
        <time>2014-06-08T07:21:31Z</time>
      </trkpt>
      <trkpt lat="46.02253770455718" lon="8.679177425801754">
        <ele>231.81</ele>
        <time>2014-06-08T07:21:44Z</time>
      </trkpt>
      <trkpt lat="46.022561006247997" lon="8.67925588041544">
        <ele>233.74000000000001</ele>
        <time>2014-06-08T07:21:50Z</time>
      </trkpt>
      <trkpt lat="46.022568633779883" lon="8.679328886792064">
        <ele>234.69999999999999</ele>
        <time>2014-06-08T07:22:05Z</time>
      </trkpt>
      <trkpt lat="46.022579614073038" lon="8.679354283958674">
        <ele>234.69999999999999</ele>
        <time>2014-06-08T07:22:21Z</time>
      </trkpt>
      <trkpt lat="46.022644825279713" lon="8.67935361340642">
        <ele>237.09999999999999</ele>
        <time>2014-06-08T07:22:33Z</time>
      </trkpt>
      <trkpt lat="46.022666031494737" lon="8.679301980882883">
        <ele>238.06</ele>
        <time>2014-06-08T07:22:49Z</time>
      </trkpt>
      <trkpt lat="46.022678604349494" lon="8.679208103567362">
        <ele>239.99000000000001</ele>
        <time>2014-06-08T07:22:59Z</time>
      </trkpt>
      <trkpt lat="46.022669719532132" lon="8.679038621485233">
        <ele>242.87</ele>
        <time>2014-06-08T07:23:14Z</time>
      </trkpt>
      <trkpt lat="46.022667875513434" lon="8.678870648145676">
        <ele>245.75</ele>
        <time>2014-06-08T07:23:30Z</time>
      </trkpt>
      <trkpt lat="46.022664103657007" lon="8.678824966773391">
        <ele>246.72</ele>
        <time>2014-06-08T07:23:43Z</time>
      </trkpt>
      <trkpt lat="46.022682627663016" lon="8.678696807473898">
        <ele>248.63999999999999</ele>
        <time>2014-06-08T07:23:54Z</time>
      </trkpt>
      <trkpt lat="46.022699307650328" lon="8.678578371182084">
        <ele>251.03999999999999</ele>
        <time>2014-06-08T07:24:05Z</time>
      </trkpt>
      <trkpt lat="46.022724956274033" lon="8.678396232426167">
        <ele>253.93000000000001</ele>
        <time>2014-06-08T07:24:23Z</time>
      </trkpt>
      <trkpt lat="46.022736020386219" lon="8.678323728963733">
        <ele>255.37</ele>
        <time>2014-06-08T07:24:35Z</time>
      </trkpt>
      <trkpt lat="46.022785138338804" lon="8.678158354014158">
        <ele>258.25</ele>
        <time>2014-06-08T07:24:49Z</time>
      </trkpt>
      <trkpt lat="46.022783797234297" lon="8.678029356524348">
        <ele>260.64999999999998</ele>
        <time>2014-06-08T07:25:02Z</time>
      </trkpt>
      <trkpt lat="46.02272629737854" lon="8.677901532500982">
        <ele>263.54000000000002</ele>
        <time>2014-06-08T07:25:16Z</time>
      </trkpt>
      <trkpt lat="46.022638706490397" lon="8.677720483392477">
        <ele>266.42000000000002</ele>
        <time>2014-06-08T07:25:34Z</time>
      </trkpt>
      <trkpt lat="46.022576680406928" lon="8.677610931918025">
        <ele>268.82999999999998</ele>
        <time>2014-06-08T07:25:50Z</time>
      </trkpt>
      <trkpt lat="46.022524125874043" lon="8.677493585273624">
        <ele>271.23000000000002</ele>
        <time>2014-06-08T07:26:05Z</time>
      </trkpt>
      <trkpt lat="46.022479366511106" lon="8.677372969686985">
        <ele>273.63</ele>
        <time>2014-06-08T07:26:20Z</time>
      </trkpt>
      <trkpt lat="46.022420357912779" lon="8.677224610000849">
        <ele>277</ele>
        <time>2014-06-08T07:26:36Z</time>
      </trkpt>
      <trkpt lat="46.022401247173548" lon="8.677179263904691">
        <ele>277.95999999999998</ele>
        <time>2014-06-08T07:26:41Z</time>
      </trkpt>
      <trkpt lat="46.022390769794583" lon="8.677134839817882">
        <ele>278.92000000000002</ele>
        <time>2014-06-08T07:26:45Z</time>
      </trkpt>
      <trkpt lat="46.022358583286405" lon="8.676988407969475">
        <ele>281.80000000000001</ele>
        <time>2014-06-08T07:27:00Z</time>
      </trkpt>
      <trkpt lat="46.022389428690076" lon="8.676825212314725">
        <ele>284.69</ele>
        <time>2014-06-08T07:27:15Z</time>
      </trkpt>
      <trkpt lat="46.022415915504098" lon="8.676676852628589">
        <ele>287.08999999999997</ele>
        <time>2014-06-08T07:27:30Z</time>
      </trkpt>
      <trkpt lat="46.022509625181556" lon="8.676574677228928">
        <ele>289.97000000000003</ele>
        <time>2014-06-08T07:27:46Z</time>
      </trkpt>
      <trkpt lat="46.022510463371873" lon="8.676566127687693">
        <ele>290.45999999999998</ele>
        <time>2014-06-08T07:28:03Z</time>
      </trkpt>
      <trkpt lat="46.022512977942824" lon="8.676557745784521">
        <ele>290.45999999999998</ele>
        <time>2014-06-08T07:28:21Z</time>
      </trkpt>
      <trkpt lat="46.022518342360854" lon="8.676575850695372">
        <ele>290.45999999999998</ele>
        <time>2014-06-08T07:28:37Z</time>
      </trkpt>
      <trkpt lat="46.022458411753178" lon="8.676442829892039">
        <ele>292.38</ele>
        <time>2014-06-08T07:28:51Z</time>
      </trkpt>
      <trkpt lat="46.022468553856015" lon="8.676383066922426">
        <ele>292.86000000000001</ele>
        <time>2014-06-08T07:28:56Z</time>
      </trkpt>
      <trkpt lat="46.022489592432976" lon="8.676237724721432">
        <ele>295.25999999999999</ele>
        <time>2014-06-08T07:29:09Z</time>
      </trkpt>
      <trkpt lat="46.022532340139151" lon="8.676090370863676">
        <ele>297.67000000000002</ele>
        <time>2014-06-08T07:29:23Z</time>
      </trkpt>
      <trkpt lat="46.022576345130801" lon="8.675931030884385">
        <ele>300.55000000000001</ele>
        <time>2014-06-08T07:29:39Z</time>
      </trkpt>
      <trkpt lat="46.022610375657678" lon="8.675805302336812">
        <ele>303.91000000000003</ele>
        <time>2014-06-08T07:29:53Z</time>
      </trkpt>
      <trkpt lat="46.022632755339146" lon="8.675616877153516">
        <ele>305.36000000000001</ele>
        <time>2014-06-08T07:30:09Z</time>
      </trkpt>
      <trkpt lat="46.022633425891399" lon="8.675485197454691">
        <ele>308.24000000000001</ele>
        <time>2014-06-08T07:30:26Z</time>
      </trkpt>
      <trkpt lat="46.022609286010265" lon="8.675332479178906">
        <ele>310.63999999999999</ele>
        <time>2014-06-08T07:30:42Z</time>
      </trkpt>
      <trkpt lat="46.022632922977209" lon="8.675268944352865">
        <ele>313.05000000000001</ele>
        <time>2014-06-08T07:30:57Z</time>
      </trkpt>
      <trkpt lat="46.022761501371861" lon="8.675432642921805">
        <ele>315.93000000000001</ele>
        <time>2014-06-08T07:31:15Z</time>
      </trkpt>
      <trkpt lat="46.022869125008583" lon="8.675558874383569">
        <ele>318.32999999999998</ele>
        <time>2014-06-08T07:31:33Z</time>
      </trkpt>
      <trkpt lat="46.022937521338463" lon="8.675667922943831">
        <ele>320.74000000000001</ele>
        <time>2014-06-08T07:31:48Z</time>
      </trkpt>
      <trkpt lat="46.023041037842631" lon="8.675801195204258">
        <ele>323.13999999999999</ele>
        <time>2014-06-08T07:32:04Z</time>
      </trkpt>
      <trkpt lat="46.02313918992877" lon="8.675914099439979">
        <ele>326.01999999999998</ele>
        <time>2014-06-08T07:32:21Z</time>
      </trkpt>
      <trkpt lat="46.023218566551805" lon="8.676006551831961">
        <ele>328.43000000000001</ele>
        <time>2014-06-08T07:32:34Z</time>
      </trkpt>
      <trkpt lat="46.023285454139113" lon="8.67613211274147">
        <ele>330.82999999999998</ele>
        <time>2014-06-08T07:32:50Z</time>
      </trkpt>
      <trkpt lat="46.023361058905721" lon="8.676252560690045">
        <ele>333.23000000000002</ele>
        <time>2014-06-08T07:33:06Z</time>
      </trkpt>
      <trkpt lat="46.023448230698705" lon="8.676397232338786">
        <ele>336.60000000000002</ele>
        <time>2014-06-08T07:33:24Z</time>
      </trkpt>
      <trkpt lat="46.02354571223259" lon="8.676524050533772">
        <ele>339</ele>
        <time>2014-06-08T07:33:39Z</time>
      </trkpt>
      <trkpt lat="46.023596841841936" lon="8.676655059680343">
        <ele>342.85000000000002</ele>
        <time>2014-06-08T07:33:55Z</time>
      </trkpt>
      <trkpt lat="46.023709494620562" lon="8.676789086312056">
        <ele>344.76999999999998</ele>
        <time>2014-06-08T07:34:13Z</time>
      </trkpt>
      <trkpt lat="46.023781327530742" lon="8.676902074366808">
        <ele>347.17000000000002</ele>
        <time>2014-06-08T07:34:28Z</time>
      </trkpt>
      <trkpt lat="46.023856094107032" lon="8.67697105742991">
        <ele>349.10000000000002</ele>
        <time>2014-06-08T07:34:42Z</time>
      </trkpt>
      <trkpt lat="46.023927172645926" lon="8.677051439881325">
        <ele>351.98000000000002</ele>
        <time>2014-06-08T07:34:58Z</time>
      </trkpt>
      <trkpt lat="46.023996826261282" lon="8.677107514813542">
        <ele>354.38</ele>
        <time>2014-06-08T07:35:11Z</time>
      </trkpt>
      <trkpt lat="46.024070419371128" lon="8.677119500935078">
        <ele>356.79000000000002</ele>
        <time>2014-06-08T07:35:28Z</time>
      </trkpt>
      <trkpt lat="46.024172846227884" lon="8.677160572260618">
        <ele>359.19</ele>
        <time>2014-06-08T07:35:41Z</time>
      </trkpt>
      <trkpt lat="46.024272590875626" lon="8.677199548110366">
        <ele>363.04000000000002</ele>
        <time>2014-06-08T07:35:56Z</time>
      </trkpt>
      <trkpt lat="46.024371748790145" lon="8.677206756547093">
        <ele>364</ele>
        <time>2014-06-08T07:36:10Z</time>
      </trkpt>
      <trkpt lat="46.024471158161759" lon="8.677227627485991">
        <ele>366.88</ele>
        <time>2014-06-08T07:36:25Z</time>
      </trkpt>
      <trkpt lat="46.024546679109335" lon="8.677286133170128">
        <ele>368.80000000000001</ele>
        <time>2014-06-08T07:36:37Z</time>
      </trkpt>
      <trkpt lat="46.024608369916677" lon="8.677139785140753">
        <ele>371.20999999999998</ele>
        <time>2014-06-08T07:36:52Z</time>
      </trkpt>
      <trkpt lat="46.024611806496978" lon="8.676947336643934">
        <ele>373.13</ele>
        <time>2014-06-08T07:37:08Z</time>
      </trkpt>
      <trkpt lat="46.024576015770435" lon="8.676774585619569">
        <ele>375.05000000000001</ele>
        <time>2014-06-08T07:37:22Z</time>
      </trkpt>
      <trkpt lat="46.02453863248229" lon="8.676639636978507">
        <ele>376.97000000000003</ele>
        <time>2014-06-08T07:37:34Z</time>
      </trkpt>
      <trkpt lat="46.024513235315681" lon="8.676514998078346">
        <ele>378.42000000000002</ele>
        <time>2014-06-08T07:37:47Z</time>
      </trkpt>
      <trkpt lat="46.024491274729371" lon="8.676418857648969">
        <ele>379.38</ele>
        <time>2014-06-08T07:37:55Z</time>
      </trkpt>
      <trkpt lat="46.024463614448905" lon="8.676284914836288">
        <ele>381.77999999999997</ele>
        <time>2014-06-08T07:38:09Z</time>
      </trkpt>
      <trkpt lat="46.024437882006168" lon="8.676129933446646">
        <ele>384.66000000000003</ele>
        <time>2014-06-08T07:38:24Z</time>
      </trkpt>
      <trkpt lat="46.024422543123364" lon="8.675998672842979">
        <ele>386.58999999999997</ele>
        <time>2014-06-08T07:38:37Z</time>
      </trkpt>
      <trkpt lat="46.024466548115015" lon="8.675866406410933">
        <ele>388.50999999999999</ele>
        <time>2014-06-08T07:38:50Z</time>
      </trkpt>
      <trkpt lat="46.024456070736051" lon="8.675707736983895">
        <ele>391.38999999999999</ele>
        <time>2014-06-08T07:39:04Z</time>
      </trkpt>
      <trkpt lat="46.02441692724824" lon="8.675591815263033">
        <ele>393.80000000000001</ele>
        <time>2014-06-08T07:39:17Z</time>
      </trkpt>
      <trkpt lat="46.024442324414849" lon="8.67543532513082">
        <ele>396.68000000000001</ele>
        <time>2014-06-08T07:39:31Z</time>
      </trkpt>
      <trkpt lat="46.024466715753078" lon="8.675260478630662">
        <ele>400.05000000000001</ele>
        <time>2014-06-08T07:39:48Z</time>
      </trkpt>
      <trkpt lat="46.024462105706334" lon="8.675151681527495">
        <ele>402.93000000000001</ele>
        <time>2014-06-08T07:39:58Z</time>
      </trkpt>
      <trkpt lat="46.024422543123364" lon="8.675164254382253">
        <ele>404.37</ele>
        <time>2014-06-08T07:40:11Z</time>
      </trkpt>
      <trkpt lat="46.0243119020015" lon="8.675257712602615">
        <ele>407.25999999999999</ele>
        <time>2014-06-08T07:40:26Z</time>
      </trkpt>
      <trkpt lat="46.024280050769448" lon="8.675292329862714">
        <ele>407.74000000000001</ele>
        <time>2014-06-08T07:40:31Z</time>
      </trkpt>
      <trkpt lat="46.024192124605179" lon="8.675356116145849">
        <ele>409.66000000000003</ele>
        <time>2014-06-08T07:40:43Z</time>
      </trkpt>
      <trkpt lat="46.024207379668951" lon="8.675212617963553">
        <ele>412.06</ele>
        <time>2014-06-08T07:40:55Z</time>
      </trkpt>
      <trkpt lat="46.024257335811853" lon="8.675041291862726">
        <ele>414.94999999999999</ele>
        <time>2014-06-08T07:41:12Z</time>
      </trkpt>
      <trkpt lat="46.024268819019198" lon="8.674890669062734">
        <ele>416.87</ele>
        <time>2014-06-08T07:41:25Z</time>
      </trkpt>
      <trkpt lat="46.024247026070952" lon="8.674890417605639">
        <ele>419.75</ele>
        <time>2014-06-08T07:41:40Z</time>
      </trkpt>
      <trkpt lat="46.024156836792827" lon="8.67493886500597">
        <ele>421.68000000000001</ele>
        <time>2014-06-08T07:41:54Z</time>
      </trkpt>
      <trkpt lat="46.024185251444578" lon="8.674761336296797">
        <ele>424.07999999999998</ele>
        <time>2014-06-08T07:42:09Z</time>
      </trkpt>
      <trkpt lat="46.024223389104009" lon="8.674587579444051">
        <ele>427.92000000000002</ele>
        <time>2014-06-08T07:42:23Z</time>
      </trkpt>
      <trkpt lat="46.024274853989482" lon="8.67442287504673">
        <ele>428.39999999999998</ele>
        <time>2014-06-08T07:42:37Z</time>
      </trkpt>
      <trkpt lat="46.024238225072622" lon="8.674392532557249">
        <ele>430.32999999999998</ele>
        <time>2014-06-08T07:42:48Z</time>
      </trkpt>
      <trkpt lat="46.024131942540407" lon="8.674391023814678">
        <ele>432.73000000000002</ele>
        <time>2014-06-08T07:43:02Z</time>
      </trkpt>
      <trkpt lat="46.024035215377808" lon="8.674273258075118">
        <ele>435.13</ele>
        <time>2014-06-08T07:43:16Z</time>
      </trkpt>
      <trkpt lat="46.023937650024891" lon="8.674152893945575">
        <ele>438.5</ele>
        <time>2014-06-08T07:43:32Z</time>
      </trkpt>
      <trkpt lat="46.02386238053441" lon="8.673970084637404">
        <ele>440.89999999999998</ele>
        <time>2014-06-08T07:43:48Z</time>
      </trkpt>
      <trkpt lat="46.023817202076316" lon="8.673811163753271">
        <ele>443.79000000000002</ele>
        <time>2014-06-08T07:44:04Z</time>
      </trkpt>
      <trkpt lat="46.023773616179824" lon="8.673681998625398">
        <ele>445.70999999999998</ele>
        <time>2014-06-08T07:44:16Z</time>
      </trkpt>
      <trkpt lat="46.023734053596854" lon="8.673535231500864">
        <ele>448.11000000000001</ele>
        <time>2014-06-08T07:44:29Z</time>
      </trkpt>
      <trkpt lat="46.023688539862633" lon="8.673390476033092">
        <ele>450.51999999999998</ele>
        <time>2014-06-08T07:44:42Z</time>
      </trkpt>
      <trkpt lat="46.02364051155746" lon="8.673232309520245">
        <ele>452.92000000000002</ele>
        <time>2014-06-08T07:44:57Z</time>
      </trkpt>
      <trkpt lat="46.023626513779163" lon="8.67318126372993">
        <ele>453.39999999999998</ele>
        <time>2014-06-08T07:45:01Z</time>
      </trkpt>
      <trkpt lat="46.02354671806097" lon="8.672983115538955">
        <ele>454.83999999999997</ele>
        <time>2014-06-08T07:45:19Z</time>
      </trkpt>
      <trkpt lat="46.023542610928416" lon="8.67298386991024">
        <ele>455.31999999999999</ele>
        <time>2014-06-08T07:45:36Z</time>
      </trkpt>
      <trkpt lat="46.023538000881672" lon="8.672997113317251">
        <ele>455.31999999999999</ele>
        <time>2014-06-08T07:45:58Z</time>
      </trkpt>
      <trkpt lat="46.023551998659968" lon="8.673005411401391">
        <ele>455.31999999999999</ele>
        <time>2014-06-08T07:46:22Z</time>
      </trkpt>
      <trkpt lat="46.023557782173157" lon="8.67298143915832">
        <ele>455.80000000000001</ele>
        <time>2014-06-08T07:46:36Z</time>
      </trkpt>
      <trkpt lat="46.023528864607215" lon="8.67293843999505">
        <ele>456.27999999999997</ele>
        <time>2014-06-08T07:46:53Z</time>
      </trkpt>
      <trkpt lat="46.02343481965363" lon="8.672705506905913">
        <ele>457.72000000000003</ele>
        <time>2014-06-08T07:47:09Z</time>
      </trkpt>
      <trkpt lat="46.023365752771497" lon="8.672539293766022">
        <ele>460.13</ele>
        <time>2014-06-08T07:47:24Z</time>
      </trkpt>
      <trkpt lat="46.023301295936108" lon="8.672351706773043">
        <ele>463.00999999999999</ele>
        <time>2014-06-08T07:47:39Z</time>
      </trkpt>
      <trkpt lat="46.023256117478013" lon="8.672194546088576">
        <ele>465.42000000000002</ele>
        <time>2014-06-08T07:47:53Z</time>
      </trkpt>
      <trkpt lat="46.023222422227263" lon="8.672025483101606">
        <ele>467.81999999999999</ele>
        <time>2014-06-08T07:48:09Z</time>
      </trkpt>
      <trkpt lat="46.023170538246632" lon="8.67182289250195">
        <ele>472.13999999999999</ele>
        <time>2014-06-08T07:48:27Z</time>
      </trkpt>
      <trkpt lat="46.023105327039957" lon="8.67168802767992">
        <ele>472.63</ele>
        <time>2014-06-08T07:48:40Z</time>
      </trkpt>
      <trkpt lat="46.023027710616589" lon="8.671533800661564">
        <ele>475.50999999999999</ele>
        <time>2014-06-08T07:48:55Z</time>
      </trkpt>
      <trkpt lat="46.022975239902735" lon="8.671371946111321">
        <ele>478.38999999999999</ele>
        <time>2014-06-08T07:49:12Z</time>
      </trkpt>
      <trkpt lat="46.022920506075025" lon="8.67118620313704">
        <ele>481.27999999999997</ele>
        <time>2014-06-08T07:49:28Z</time>
      </trkpt>
      <trkpt lat="46.022858396172523" lon="8.670986294746399">
        <ele>484.16000000000003</ele>
        <time>2014-06-08T07:49:45Z</time>
      </trkpt>
      <trkpt lat="46.022805087268353" lon="8.670834247022867">
        <ele>487.05000000000001</ele>
        <time>2014-06-08T07:50:00Z</time>
      </trkpt>
      <trkpt lat="46.022804081439972" lon="8.670696699991822">
        <ele>488.97000000000003</ele>
        <time>2014-06-08T07:50:13Z</time>
      </trkpt>
      <trkpt lat="46.022845571860671" lon="8.670509699732065">
        <ele>492.81</ele>
        <time>2014-06-08T07:50:28Z</time>
      </trkpt>
      <trkpt lat="46.022882619872689" lon="8.670362010598183">
        <ele>493.76999999999998</ele>
        <time>2014-06-08T07:50:41Z</time>
      </trkpt>
      <trkpt lat="46.022911202162504" lon="8.6702851485461">
        <ele>494.74000000000001</ele>
        <time>2014-06-08T07:50:53Z</time>
      </trkpt>
      <trkpt lat="46.022909274324775" lon="8.670188002288342">
        <ele>497.13999999999999</ele>
        <time>2014-06-08T07:51:06Z</time>
      </trkpt>
      <trkpt lat="46.022907681763172" lon="8.670149361714721">
        <ele>498.10000000000002</ele>
        <time>2014-06-08T07:51:23Z</time>
      </trkpt>
      <trkpt lat="46.022928804159164" lon="8.670098567381501">
        <ele>498.10000000000002</ele>
        <time>2014-06-08T07:51:39Z</time>
      </trkpt>
      <trkpt lat="46.022911788895726" lon="8.67009068839252">
        <ele>498.10000000000002</ele>
        <time>2014-06-08T07:52:06Z</time>
      </trkpt>
      <trkpt lat="46.022926792502403" lon="8.670048862695694">
        <ele>498.10000000000002</ele>
        <time>2014-06-08T07:52:26Z</time>
      </trkpt>
      <trkpt lat="46.022936264052987" lon="8.670017682015896">
        <ele>497.62</ele>
        <time>2014-06-08T07:52:40Z</time>
      </trkpt>
      <trkpt lat="46.022943640127778" lon="8.670015754178166">
        <ele>497.13999999999999</ele>
        <time>2014-06-08T07:52:52Z</time>
      </trkpt>
      <trkpt lat="46.022964930161834" lon="8.670025477185845">
        <ele>497.13999999999999</ele>
        <time>2014-06-08T07:53:07Z</time>
      </trkpt>
      <trkpt lat="46.022984543815255" lon="8.670012820512056">
        <ele>497.13999999999999</ele>
        <time>2014-06-08T07:53:22Z</time>
      </trkpt>
      <trkpt lat="46.022976581007242" lon="8.670022962614894">
        <ele>498.10000000000002</ele>
        <time>2014-06-08T07:53:33Z</time>
      </trkpt>
      <trkpt lat="46.022944897413254" lon="8.669990859925747">
        <ele>498.57999999999998</ele>
        <time>2014-06-08T07:53:48Z</time>
      </trkpt>
      <trkpt lat="46.02292419411242" lon="8.669962109997869">
        <ele>498.57999999999998</ele>
        <time>2014-06-08T07:54:03Z</time>
      </trkpt>
      <trkpt lat="46.022945400327444" lon="8.669966720044613">
        <ele>498.57999999999998</ele>
        <time>2014-06-08T07:54:13Z</time>
      </trkpt>
      <trkpt lat="46.022921679541469" lon="8.669957919046283">
        <ele>499.54000000000002</ele>
        <time>2014-06-08T07:54:30Z</time>
      </trkpt>
      <trkpt lat="46.022926876321435" lon="8.669941322878003">
        <ele>498.57999999999998</ele>
        <time>2014-06-08T07:54:49Z</time>
      </trkpt>
      <trkpt lat="46.022941460832953" lon="8.669902682304382">
        <ele>499.06</ele>
        <time>2014-06-08T07:55:07Z</time>
      </trkpt>
      <trkpt lat="46.022892342880368" lon="8.669803021475673">
        <ele>500.01999999999998</ele>
        <time>2014-06-08T07:55:22Z</time>
      </trkpt>
      <trkpt lat="46.022952441126108" lon="8.669665474444628">
        <ele>501.94999999999999</ele>
        <time>2014-06-08T07:55:38Z</time>
      </trkpt>
      <trkpt lat="46.022989824414253" lon="8.669649213552475">
        <ele>501.94999999999999</ele>
        <time>2014-06-08T07:55:55Z</time>
      </trkpt>
      <trkpt lat="46.022984376177192" lon="8.66962306201458">
        <ele>501.94999999999999</ele>
        <time>2014-06-08T07:56:16Z</time>
      </trkpt>
      <trkpt lat="46.023024274036288" lon="8.669609567150474">
        <ele>501.94999999999999</ele>
        <time>2014-06-08T07:56:44Z</time>
      </trkpt>
      <trkpt lat="46.023057550191879" lon="8.669588193297386">
        <ele>501.94999999999999</ele>
        <time>2014-06-08T07:57:08Z</time>
      </trkpt>
      <trkpt lat="46.023028213530779" lon="8.669620882719755">
        <ele>501.94999999999999</ele>
        <time>2014-06-08T07:57:29Z</time>
      </trkpt>
      <trkpt lat="46.023000804707408" lon="8.669678969308734">
        <ele>501.94999999999999</ele>
        <time>2014-06-08T07:57:55Z</time>
      </trkpt>
      <trkpt lat="46.023019999265671" lon="8.669681735336781">
        <ele>501.94999999999999</ele>
        <time>2014-06-08T07:58:19Z</time>
      </trkpt>
      <trkpt lat="46.022876752540469" lon="8.669682070612907">
        <ele>501.94999999999999</ele>
        <time>2014-06-08T07:58:44Z</time>
      </trkpt>
      <trkpt lat="46.022992255166173" lon="8.669629683718085">
        <ele>502.43000000000001</ele>
        <time>2014-06-08T07:59:02Z</time>
      </trkpt>
      <trkpt lat="46.023021591827273" lon="8.669602777808905">
        <ele>502.43000000000001</ele>
        <time>2014-06-08T07:59:06Z</time>
      </trkpt>
      <trkpt lat="46.023066686466336" lon="8.669559443369508">
        <ele>502.91000000000003</ele>
        <time>2014-06-08T07:59:19Z</time>
      </trkpt>
      <trkpt lat="46.023059394210577" lon="8.669567154720426">
        <ele>502.91000000000003</ele>
        <time>2014-06-08T07:59:22Z</time>
      </trkpt>
      <trkpt lat="46.022966606542468" lon="8.669671257957816">
        <ele>501.94999999999999</ele>
        <time>2014-06-08T07:59:38Z</time>
      </trkpt>
      <trkpt lat="46.022872729226947" lon="8.669709814712405">
        <ele>502.43000000000001</ele>
        <time>2014-06-08T07:59:54Z</time>
      </trkpt>
      <trkpt lat="46.022824449464679" lon="8.669738480821252">
        <ele>502.91000000000003</ele>
        <time>2014-06-08T08:00:12Z</time>
      </trkpt>
      <trkpt lat="46.022835848852992" lon="8.669700678437948">
        <ele>504.35000000000002</ele>
        <time>2014-06-08T08:00:34Z</time>
      </trkpt>
      <trkpt lat="46.022884044796228" lon="8.669768571853638">
        <ele>501.94999999999999</ele>
        <time>2014-06-08T08:00:58Z</time>
      </trkpt>
      <trkpt lat="46.022949507459998" lon="8.66985222324729">
        <ele>500.01999999999998</ele>
        <time>2014-06-08T08:01:11Z</time>
      </trkpt>
      <trkpt lat="46.022943137213588" lon="8.669949620962143">
        <ele>499.54000000000002</ele>
        <time>2014-06-08T08:01:24Z</time>
      </trkpt>
      <trkpt lat="46.022941963747144" lon="8.670016173273325">
        <ele>499.54000000000002</ele>
        <time>2014-06-08T08:01:42Z</time>
      </trkpt>
      <trkpt lat="46.022943556308746" lon="8.670065207406879">
        <ele>499.54000000000002</ele>
        <time>2014-06-08T08:01:53Z</time>
      </trkpt>
      <trkpt lat="46.022947998717427" lon="8.670049868524075">
        <ele>499.54000000000002</ele>
        <time>2014-06-08T08:02:11Z</time>
      </trkpt>
      <trkpt lat="46.022953949868679" lon="8.670049533247948">
        <ele>499.54000000000002</ele>
        <time>2014-06-08T08:02:33Z</time>
      </trkpt>
      <trkpt lat="46.022954368963838" lon="8.670058837160468">
        <ele>500.01999999999998</ele>
        <time>2014-06-08T08:02:48Z</time>
      </trkpt>
      <trkpt lat="46.022945065051317" lon="8.670060764998198">
        <ele>500.01999999999998</ele>
        <time>2014-06-08T08:03:07Z</time>
      </trkpt>
      <trkpt lat="46.022943053394556" lon="8.67009655572474">
        <ele>500.01999999999998</ele>
        <time>2014-06-08T08:03:22Z</time>
      </trkpt>
      <trkpt lat="46.022931234911084" lon="8.670105943456292">
        <ele>500.5</ele>
        <time>2014-06-08T08:03:35Z</time>
      </trkpt>
      <trkpt lat="46.022951770573854" lon="8.67007115855813">
        <ele>500.5</ele>
        <time>2014-06-08T08:03:54Z</time>
      </trkpt>
      <trkpt lat="46.022964091971517" lon="8.670050287619233">
        <ele>500.01999999999998</ele>
        <time>2014-06-08T08:04:12Z</time>
      </trkpt>
      <trkpt lat="46.022959817200899" lon="8.670084234327078">
        <ele>500.5</ele>
        <time>2014-06-08T08:04:27Z</time>
      </trkpt>
      <trkpt lat="46.022952189669013" lon="8.670104267075658">
        <ele>500.5</ele>
        <time>2014-06-08T08:04:32Z</time>
      </trkpt>
      <trkpt lat="46.022939868271351" lon="8.670145003125072">
        <ele>500.98000000000002</ele>
        <time>2014-06-08T08:04:35Z</time>
      </trkpt>
      <trkpt lat="46.02282453328371" lon="8.670127401128411">
        <ele>502.91000000000003</ele>
        <time>2014-06-08T08:04:47Z</time>
      </trkpt>
      <trkpt lat="46.022723782807589" lon="8.670046012848616">
        <ele>506.26999999999998</ele>
        <time>2014-06-08T08:05:01Z</time>
      </trkpt>
      <trkpt lat="46.022605430334806" lon="8.669960433617234">
        <ele>509.16000000000003</ele>
        <time>2014-06-08T08:05:17Z</time>
      </trkpt>
      <trkpt lat="46.022538375109434" lon="8.670039642602205">
        <ele>510.60000000000002</ele>
        <time>2014-06-08T08:05:31Z</time>
      </trkpt>
      <trkpt lat="46.022540302947164" lon="8.670081719756126">
        <ele>511.56</ele>
        <time>2014-06-08T08:05:39Z</time>
      </trkpt>
      <trkpt lat="46.022541895508766" lon="8.67013075388968">
        <ele>511.07999999999998</ele>
        <time>2014-06-08T08:05:49Z</time>
      </trkpt>
      <trkpt lat="46.02255480363965" lon="8.670091610401869">
        <ele>511.07999999999998</ele>
        <time>2014-06-08T08:05:51Z</time>
      </trkpt>
      <trkpt lat="46.02254306897521" lon="8.66996462456882">
        <ele>511.07999999999998</ele>
        <time>2014-06-08T08:05:58Z</time>
      </trkpt>
      <trkpt lat="46.022535609081388" lon="8.669938975945115">
        <ele>510.60000000000002</ele>
        <time>2014-06-08T08:06:00Z</time>
      </trkpt>
      <trkpt lat="46.022488251328468" lon="8.66983906365931">
        <ele>512.51999999999998</ele>
        <time>2014-06-08T08:06:14Z</time>
      </trkpt>
      <trkpt lat="46.022472074255347" lon="8.669868484139442">
        <ele>512.51999999999998</ele>
        <time>2014-06-08T08:06:26Z</time>
      </trkpt>
      <trkpt lat="46.022380627691746" lon="8.669978035613895">
        <ele>513.96000000000004</ele>
        <time>2014-06-08T08:06:38Z</time>
      </trkpt>
      <trkpt lat="46.022391272708774" lon="8.670107871294022">
        <ele>513.48000000000002</ele>
        <time>2014-06-08T08:06:52Z</time>
      </trkpt>
      <trkpt lat="46.022384818643332" lon="8.670160174369812">
        <ele>513.48000000000002</ele>
        <time>2014-06-08T08:07:04Z</time>
      </trkpt>
      <trkpt lat="46.022372497245669" lon="8.670143494382501">
        <ele>513</ele>
        <time>2014-06-08T08:07:10Z</time>
      </trkpt>
      <trkpt lat="46.022362355142832" lon="8.670014832168818">
        <ele>513.48000000000002</ele>
        <time>2014-06-08T08:07:17Z</time>
      </trkpt>
      <trkpt lat="46.022396134212613" lon="8.669944005087018">
        <ele>513</ele>
        <time>2014-06-08T08:07:21Z</time>
      </trkpt>
      <trkpt lat="46.022495543584228" lon="8.669773349538446">
        <ele>513</ele>
        <time>2014-06-08T08:07:34Z</time>
      </trkpt>
      <trkpt lat="46.022500824183226" lon="8.669685088098049">
        <ele>513.48000000000002</ele>
        <time>2014-06-08T08:07:41Z</time>
      </trkpt>
      <trkpt lat="46.022426225244999" lon="8.669624486938119">
        <ele>514.44000000000005</ele>
        <time>2014-06-08T08:07:56Z</time>
      </trkpt>
      <trkpt lat="46.022431505843997" lon="8.669564891606569">
        <ele>515.39999999999998</ele>
        <time>2014-06-08T08:08:17Z</time>
      </trkpt>
      <trkpt lat="46.022345591336489" lon="8.669488448649645">
        <ele>515.88</ele>
        <time>2014-06-08T08:08:30Z</time>
      </trkpt>
      <trkpt lat="46.022247271612287" lon="8.669394738972187">
        <ele>517.80999999999995</ele>
        <time>2014-06-08T08:08:44Z</time>
      </trkpt>
      <trkpt lat="46.022199327126145" lon="8.669303124770522">
        <ele>518.28999999999996</ele>
        <time>2014-06-08T08:08:51Z</time>
      </trkpt>
      <trkpt lat="46.022183988243341" lon="8.669171780347824">
        <ele>521.16999999999996</ele>
        <time>2014-06-08T08:09:05Z</time>
      </trkpt>
      <trkpt lat="46.022274261340499" lon="8.669175636023283">
        <ele>524.05999999999995</ele>
        <time>2014-06-08T08:09:17Z</time>
      </trkpt>
      <trkpt lat="46.022332096472383" lon="8.66912760771811">
        <ele>524.05999999999995</ele>
        <time>2014-06-08T08:09:23Z</time>
      </trkpt>
      <trkpt lat="46.022408874705434" lon="8.66894437931478">
        <ele>525.98000000000002</ele>
        <time>2014-06-08T08:09:37Z</time>
      </trkpt>
      <trkpt lat="46.02242723107338" lon="8.668860392645001">
        <ele>527.89999999999998</ele>
        <time>2014-06-08T08:09:46Z</time>
      </trkpt>
      <trkpt lat="46.022351542487741" lon="8.668735502287746">
        <ele>530.78999999999996</ele>
        <time>2014-06-08T08:10:01Z</time>
      </trkpt>
      <trkpt lat="46.022288845852017" lon="8.66869174875319">
        <ele>533.66999999999996</ele>
        <time>2014-06-08T08:10:16Z</time>
      </trkpt>
      <trkpt lat="46.022262359037995" lon="8.668587477877736">
        <ele>536.54999999999995</ele>
        <time>2014-06-08T08:10:29Z</time>
      </trkpt>
      <trkpt lat="46.022234698757529" lon="8.66849577985704">
        <ele>540.39999999999998</ele>
        <time>2014-06-08T08:10:40Z</time>
      </trkpt>
      <trkpt lat="46.022233525291085" lon="8.668340714648366">
        <ele>542.32000000000005</ele>
        <time>2014-06-08T08:10:57Z</time>
      </trkpt>
      <trkpt lat="46.022239895537496" lon="8.668238120153546">
        <ele>544.24000000000001</ele>
        <time>2014-06-08T08:11:13Z</time>
      </trkpt>
      <trkpt lat="46.022272082045674" lon="8.668082635849714">
        <ele>546.16999999999996</ele>
        <time>2014-06-08T08:11:28Z</time>
      </trkpt>
      <trkpt lat="46.022279541939497" lon="8.667926397174597">
        <ele>548.57000000000005</ele>
        <time>2014-06-08T08:11:42Z</time>
      </trkpt>
      <trkpt lat="46.022250959649682" lon="8.667764207348228">
        <ele>551.45000000000005</ele>
        <time>2014-06-08T08:11:59Z</time>
      </trkpt>
      <trkpt lat="46.022225143387914" lon="8.66763579659164">
        <ele>553.86000000000001</ele>
        <time>2014-06-08T08:12:14Z</time>
      </trkpt>
      <trkpt lat="46.022180132567883" lon="8.667490370571613">
        <ele>556.25999999999999</ele>
        <time>2014-06-08T08:12:29Z</time>
      </trkpt>
      <trkpt lat="46.022097822278738" lon="8.667428847402334">
        <ele>559.13999999999999</ele>
        <time>2014-06-08T08:12:41Z</time>
      </trkpt>
      <trkpt lat="46.022045351564884" lon="8.667390123009682">
        <ele>559.62</ele>
        <time>2014-06-08T08:12:56Z</time>
      </trkpt>
      <trkpt lat="46.021997407078743" lon="8.667287277057767">
        <ele>561.07000000000005</ele>
        <time>2014-06-08T08:13:10Z</time>
      </trkpt>
      <trkpt lat="46.021996987983584" lon="8.66731284186244">
        <ele>561.54999999999995</ele>
        <time>2014-06-08T08:13:22Z</time>
      </trkpt>
      <trkpt lat="46.022013667970896" lon="8.667337065562606">
        <ele>561.54999999999995</ele>
        <time>2014-06-08T08:13:36Z</time>
      </trkpt>
      <trkpt lat="46.022000089287758" lon="8.667254755273461">
        <ele>562.02999999999997</ele>
        <time>2014-06-08T08:13:50Z</time>
      </trkpt>
      <trkpt lat="46.022002100944519" lon="8.667306639254093">
        <ele>562.02999999999997</ele>
        <time>2014-06-08T08:14:05Z</time>
      </trkpt>
      <trkpt lat="46.022020624950528" lon="8.667295910418034">
        <ele>561.54999999999995</ele>
        <time>2014-06-08T08:14:23Z</time>
      </trkpt>
      <trkpt lat="46.022010901942849" lon="8.667286355048418">
        <ele>562.02999999999997</ele>
        <time>2014-06-08T08:14:39Z</time>
      </trkpt>
      <trkpt lat="46.021996904164553" lon="8.667266322299838">
        <ele>562.02999999999997</ele>
        <time>2014-06-08T08:15:01Z</time>
      </trkpt>
      <trkpt lat="46.021928004920483" lon="8.667224831879139">
        <ele>563.95000000000005</ele>
        <time>2014-06-08T08:15:15Z</time>
      </trkpt>
      <trkpt lat="46.021846951916814" lon="8.667045207694173">
        <ele>564.42999999999995</ele>
        <time>2014-06-08T08:15:31Z</time>
      </trkpt>
      <trkpt lat="46.021744776517153" lon="8.666895842179656">
        <ele>564.90999999999997</ele>
        <time>2014-06-08T08:15:45Z</time>
      </trkpt>
      <trkpt lat="46.021639164537191" lon="8.666814621537924">
        <ele>565.87</ele>
        <time>2014-06-08T08:15:58Z</time>
      </trkpt>
      <trkpt lat="46.021566409617662" lon="8.666780674830079">
        <ele>566.35000000000002</ele>
        <time>2014-06-08T08:16:05Z</time>
      </trkpt>
      <trkpt lat="46.021431712433696" lon="8.666711943224073">
        <ele>567.32000000000005</ele>
        <time>2014-06-08T08:16:19Z</time>
      </trkpt>
      <trkpt lat="46.021408578380942" lon="8.666704650968313">
        <ele>567.32000000000005</ele>
        <time>2014-06-08T08:16:21Z</time>
      </trkpt>
      <trkpt lat="46.021361136808991" lon="8.666659221053124">
        <ele>568.27999999999997</ele>
        <time>2014-06-08T08:16:26Z</time>
      </trkpt>
      <trkpt lat="46.021320233121514" lon="8.666616473346949">
        <ele>568.75999999999999</ele>
        <time>2014-06-08T08:16:31Z</time>
      </trkpt>
      <trkpt lat="46.021221578121185" lon="8.666480351239443">
        <ele>570.20000000000005</ele>
        <time>2014-06-08T08:16:46Z</time>
      </trkpt>
      <trkpt lat="46.021127197891474" lon="8.666390497237444">
        <ele>571.63999999999999</ele>
        <time>2014-06-08T08:16:59Z</time>
      </trkpt>
      <trkpt lat="46.021060980856419" lon="8.666330398991704">
        <ele>573.08000000000004</ele>
        <time>2014-06-08T08:17:07Z</time>
      </trkpt>
      <trkpt lat="46.020950088277459" lon="8.666210789233446">
        <ele>574.52999999999997</ele>
        <time>2014-06-08T08:17:23Z</time>
      </trkpt>
      <trkpt lat="46.020824695006013" lon="8.666068380698562">
        <ele>575.97000000000003</ele>
        <time>2014-06-08T08:17:39Z</time>
      </trkpt>
      <trkpt lat="46.020728470757604" lon="8.665911974385381">
        <ele>577.88999999999999</ele>
        <time>2014-06-08T08:17:54Z</time>
      </trkpt>
      <trkpt lat="46.020639706403017" lon="8.665809212252498">
        <ele>579.80999999999995</ele>
        <time>2014-06-08T08:18:08Z</time>
      </trkpt>
      <trkpt lat="46.020617997273803" lon="8.665749449282885">
        <ele>580.28999999999996</ele>
        <time>2014-06-08T08:18:14Z</time>
      </trkpt>
      <trkpt lat="46.02052646689117" lon="8.665561694651842">
        <ele>582.22000000000003</ele>
        <time>2014-06-08T08:18:29Z</time>
      </trkpt>
      <trkpt lat="46.020433260127902" lon="8.665432194247842">
        <ele>583.17999999999995</ele>
        <time>2014-06-08T08:18:42Z</time>
      </trkpt>
      <trkpt lat="46.020335610955954" lon="8.66529674269259">
        <ele>585.10000000000002</ele>
        <time>2014-06-08T08:18:57Z</time>
      </trkpt>
      <trkpt lat="46.020237961784005" lon="8.665168918669224">
        <ele>587.01999999999998</ele>
        <time>2014-06-08T08:19:12Z</time>
      </trkpt>
      <trkpt lat="46.020123213529587" lon="8.665127009153366">
        <ele>589.42999999999995</ele>
        <time>2014-06-08T08:19:26Z</time>
      </trkpt>
      <trkpt lat="46.020023971796036" lon="8.665065066888928">
        <ele>591.35000000000002</ele>
        <time>2014-06-08T08:19:40Z</time>
      </trkpt>
      <trkpt lat="46.019943673163652" lon="8.665020726621151">
        <ele>593.26999999999998</ele>
        <time>2014-06-08T08:19:54Z</time>
      </trkpt>
      <trkpt lat="46.019867900758982" lon="8.664965992793441">
        <ele>595.66999999999996</ele>
        <time>2014-06-08T08:20:10Z</time>
      </trkpt>
      <trkpt lat="46.019769161939621" lon="8.664871109649539">
        <ele>598.08000000000004</ele>
        <time>2014-06-08T08:20:25Z</time>
      </trkpt>
      <trkpt lat="46.019706716760993" lon="8.664758456870914">
        <ele>600</ele>
        <time>2014-06-08T08:20:37Z</time>
      </trkpt>
      <trkpt lat="46.019612923264503" lon="8.664678074419498">
        <ele>601.91999999999996</ele>
        <time>2014-06-08T08:20:51Z</time>
      </trkpt>
      <trkpt lat="46.019515777006745" lon="8.664555279538035">
        <ele>603.85000000000002</ele>
        <time>2014-06-08T08:21:06Z</time>
      </trkpt>
      <trkpt lat="46.019443860277534" lon="8.664410104975104">
        <ele>606.25</ele>
        <time>2014-06-08T08:21:22Z</time>
      </trkpt>
      <trkpt lat="46.019342271611094" lon="8.664302648976445">
        <ele>607.69000000000005</ele>
        <time>2014-06-08T08:21:36Z</time>
      </trkpt>
      <trkpt lat="46.019248394295573" lon="8.664229139685631">
        <ele>610.09000000000003</ele>
        <time>2014-06-08T08:21:51Z</time>
      </trkpt>
      <trkpt lat="46.019154516980052" lon="8.66413869895041">
        <ele>611.53999999999996</ele>
        <time>2014-06-08T08:22:04Z</time>
      </trkpt>
      <trkpt lat="46.019053850322962" lon="8.664066530764103">
        <ele>613.94000000000005</ele>
        <time>2014-06-08T08:22:18Z</time>
      </trkpt>
      <trkpt lat="46.018987968564034" lon="8.663946082815528">
        <ele>616.34000000000003</ele>
        <time>2014-06-08T08:22:34Z</time>
      </trkpt>
      <trkpt lat="46.018943376839161" lon="8.663845751434565">
        <ele>619.71000000000004</ele>
        <time>2014-06-08T08:22:47Z</time>
      </trkpt>
      <trkpt lat="46.018899120390415" lon="8.663689345121384">
        <ele>620.66999999999996</ele>
        <time>2014-06-08T08:23:02Z</time>
      </trkpt>
      <trkpt lat="46.018949747085571" lon="8.663503266870976">
        <ele>622.59000000000003</ele>
        <time>2014-06-08T08:23:16Z</time>
      </trkpt>
      <trkpt lat="46.019010096788406" lon="8.663339484483004">
        <ele>624.02999999999997</ele>
        <time>2014-06-08T08:23:32Z</time>
      </trkpt>
      <trkpt lat="46.019000206142664" lon="8.663210654631257">
        <ele>626.44000000000005</ele>
        <time>2014-06-08T08:23:46Z</time>
      </trkpt>
      <trkpt lat="46.018948070704937" lon="8.663057433441281">
        <ele>628.84000000000003</ele>
        <time>2014-06-08T08:24:01Z</time>
      </trkpt>
      <trkpt lat="46.018908340483904" lon="8.662899183109403">
        <ele>630.75999999999999</ele>
        <time>2014-06-08T08:24:15Z</time>
      </trkpt>
      <trkpt lat="46.018853774294257" lon="8.662728611379862">
        <ele>633.16999999999996</ele>
        <time>2014-06-08T08:24:29Z</time>
      </trkpt>
      <trkpt lat="46.018764926120639" lon="8.662584610283375">
        <ele>635.57000000000005</ele>
        <time>2014-06-08T08:24:45Z</time>
      </trkpt>
      <trkpt lat="46.018671048805118" lon="8.662433233112097">
        <ele>637.97000000000003</ele>
        <time>2014-06-08T08:25:02Z</time>
      </trkpt>
      <trkpt lat="46.018586559221148" lon="8.662313539534807">
        <ele>640.38</ele>
        <time>2014-06-08T08:25:17Z</time>
      </trkpt>
      <trkpt lat="46.018539955839515" lon="8.662165431305766">
        <ele>642.29999999999995</ele>
        <time>2014-06-08T08:25:31Z</time>
      </trkpt>
      <trkpt lat="46.018467452377081" lon="8.662056047469378">
        <ele>644.22000000000003</ele>
        <time>2014-06-08T08:25:44Z</time>
      </trkpt>
      <trkpt lat="46.018381286412477" lon="8.661910789087415">
        <ele>646.13999999999999</ele>
        <time>2014-06-08T08:25:58Z</time>
      </trkpt>
      <trkpt lat="46.01837064139545" lon="8.661890337243676">
        <ele>646.62</ele>
        <time>2014-06-08T08:26:00Z</time>
      </trkpt>
      <trkpt lat="46.018295958638191" lon="8.661760501563549">
        <ele>648.07000000000005</ele>
        <time>2014-06-08T08:26:13Z</time>
      </trkpt>
      <trkpt lat="46.018273327499628" lon="8.661591941490769">
        <ele>649.50999999999999</ele>
        <time>2014-06-08T08:26:26Z</time>
      </trkpt>
      <trkpt lat="46.018210882321" lon="8.661416592076421">
        <ele>649.99000000000001</ele>
        <time>2014-06-08T08:26:39Z</time>
      </trkpt>
      <trkpt lat="46.018191855400801" lon="8.661270914599299">
        <ele>650.95000000000005</ele>
        <time>2014-06-08T08:26:53Z</time>
      </trkpt>
      <trkpt lat="46.018188251182437" lon="8.661201763898134">
        <ele>651.42999999999995</ele>
        <time>2014-06-08T08:27:13Z</time>
      </trkpt>
      <trkpt lat="46.018184144049883" lon="8.661148874089122">
        <ele>651.90999999999997</ele>
        <time>2014-06-08T08:27:45Z</time>
      </trkpt>
      <trkpt lat="46.018149191513658" lon="8.661124985665083">
        <ele>651.90999999999997</ele>
        <time>2014-06-08T08:28:14Z</time>
      </trkpt>
      <trkpt lat="46.018164111301303" lon="8.661174103617668">
        <ele>652.38999999999999</ele>
        <time>2014-06-08T08:28:38Z</time>
      </trkpt>
      <trkpt lat="46.018168218433857" lon="8.661162788048387">
        <ele>653.35000000000002</ele>
        <time>2014-06-08T08:29:15Z</time>
      </trkpt>
      <trkpt lat="46.018181126564741" lon="8.661066144704819">
        <ele>655.27999999999997</ele>
        <time>2014-06-08T08:29:30Z</time>
      </trkpt>
      <trkpt lat="46.018183138221502" lon="8.661012332886457">
        <ele>655.75999999999999</ele>
        <time>2014-06-08T08:29:49Z</time>
      </trkpt>
      <trkpt lat="46.018200572580099" lon="8.661000765860081">
        <ele>656.72000000000003</ele>
        <time>2014-06-08T08:30:08Z</time>
      </trkpt>
      <trkpt lat="46.018210211768746" lon="8.66088735871017">
        <ele>659.12</ele>
        <time>2014-06-08T08:30:21Z</time>
      </trkpt>
      <trkpt lat="46.018223203718662" lon="8.66078962571919">
        <ele>661.03999999999996</ele>
        <time>2014-06-08T08:30:36Z</time>
      </trkpt>
      <trkpt lat="46.01821968331933" lon="8.660691054537892">
        <ele>665.37</ele>
        <time>2014-06-08T08:30:52Z</time>
      </trkpt>
      <trkpt lat="46.018197974190116" lon="8.660631207749248">
        <ele>665.85000000000002</ele>
        <time>2014-06-08T08:31:04Z</time>
      </trkpt>
      <trkpt lat="46.018190598115325" lon="8.660480165854096">
        <ele>668.25</ele>
        <time>2014-06-08T08:31:17Z</time>
      </trkpt>
      <trkpt lat="46.018172996118665" lon="8.660357287153602">
        <ele>671.13999999999999</ele>
        <time>2014-06-08T08:31:34Z</time>
      </trkpt>
      <trkpt lat="46.018176265060902" lon="8.660227116197348">
        <ele>673.53999999999996</ele>
        <time>2014-06-08T08:31:50Z</time>
      </trkpt>
      <trkpt lat="46.018140055239201" lon="8.660144135355949">
        <ele>675.94000000000005</ele>
        <time>2014-06-08T08:32:06Z</time>
      </trkpt>
      <trkpt lat="46.018118429929018" lon="8.66003860719502">
        <ele>678.35000000000002</ele>
        <time>2014-06-08T08:32:20Z</time>
      </trkpt>
      <trkpt lat="46.018195208162069" lon="8.66001664660871">
        <ele>680.26999999999998</ele>
        <time>2014-06-08T08:32:34Z</time>
      </trkpt>
      <trkpt lat="46.018197052180767" lon="8.65988714620471">
        <ele>683.14999999999998</ele>
        <time>2014-06-08T08:32:50Z</time>
      </trkpt>
      <trkpt lat="46.018134439364076" lon="8.659742223098874">
        <ele>685.08000000000004</ele>
        <time>2014-06-08T08:33:09Z</time>
      </trkpt>
      <trkpt lat="46.0181556455791" lon="8.659570896998048">
        <ele>687.48000000000002</ele>
        <time>2014-06-08T08:33:24Z</time>
      </trkpt>
      <trkpt lat="46.018198058009148" lon="8.659414993599057">
        <ele>690.84000000000003</ele>
        <time>2014-06-08T08:33:41Z</time>
      </trkpt>
      <trkpt lat="46.018233764916658" lon="8.659294545650482">
        <ele>693.73000000000002</ele>
        <time>2014-06-08T08:33:57Z</time>
      </trkpt>
      <trkpt lat="46.018308280035853" lon="8.659272417426109">
        <ele>697.09000000000003</ele>
        <time>2014-06-08T08:34:16Z</time>
      </trkpt>
      <trkpt lat="46.018376005813479" lon="8.659276943653822">
        <ele>698.52999999999997</ele>
        <time>2014-06-08T08:34:31Z</time>
      </trkpt>
      <trkpt lat="46.018367540091276" lon="8.659249870106578">
        <ele>699.01999999999998</ele>
        <time>2014-06-08T08:34:33Z</time>
      </trkpt>
      <trkpt lat="46.018313057720661" lon="8.659122800454497">
        <ele>699.98000000000002</ele>
        <time>2014-06-08T08:34:46Z</time>
      </trkpt>
      <trkpt lat="46.018382711336017" lon="8.659183485433459">
        <ele>701.41999999999996</ele>
        <time>2014-06-08T08:34:58Z</time>
      </trkpt>
      <trkpt lat="46.018481114879251" lon="8.65928809158504">
        <ele>703.34000000000003</ele>
        <time>2014-06-08T08:35:14Z</time>
      </trkpt>
      <trkpt lat="46.018530568107963" lon="8.659251378849149">
        <ele>705.75</ele>
        <time>2014-06-08T08:35:29Z</time>
      </trkpt>
      <trkpt lat="46.018549427390099" lon="8.659282056614757">
        <ele>708.63</ele>
        <time>2014-06-08T08:35:46Z</time>
      </trkpt>
      <trkpt lat="46.018589911982417" lon="8.659246265888214">
        <ele>711.50999999999999</ele>
        <time>2014-06-08T08:36:03Z</time>
      </trkpt>
      <trkpt lat="46.01857541128993" lon="8.659106371924281">
        <ele>713.91999999999996</ele>
        <time>2014-06-08T08:36:18Z</time>
      </trkpt>
      <trkpt lat="46.018573148176074" lon="8.658974189311266">
        <ele>715.84000000000003</ele>
        <time>2014-06-08T08:36:33Z</time>
      </trkpt>
      <trkpt lat="46.018587481230497" lon="8.658800013363361">
        <ele>717.75999999999999</ele>
        <time>2014-06-08T08:36:49Z</time>
      </trkpt>
      <trkpt lat="46.018599132075906" lon="8.658627597615123">
        <ele>719.20000000000005</ele>
        <time>2014-06-08T08:37:06Z</time>
      </trkpt>
      <trkpt lat="46.018606424331665" lon="8.658581832423806">
        <ele>720.64999999999998</ele>
        <time>2014-06-08T08:37:14Z</time>
      </trkpt>
      <trkpt lat="46.01865847595036" lon="8.65846423432231">
        <ele>721.61000000000001</ele>
        <time>2014-06-08T08:37:30Z</time>
      </trkpt>
      <trkpt lat="46.018673982471228" lon="8.658347222954035">
        <ele>721.61000000000001</ele>
        <time>2014-06-08T08:37:46Z</time>
      </trkpt>
      <trkpt lat="46.0186858009547" lon="8.658301960676909">
        <ele>727.86000000000001</ele>
        <time>2014-06-08T08:37:54Z</time>
      </trkpt>
      <trkpt lat="46.018686471506953" lon="8.658291650936008">
        <ele>727.86000000000001</ele>
        <time>2014-06-08T08:37:55Z</time>
      </trkpt>
      <trkpt lat="46.018672389909625" lon="8.658172963187099">
        <ele>729.77999999999997</ele>
        <time>2014-06-08T08:38:08Z</time>
      </trkpt>
      <trkpt lat="46.018663085997105" lon="8.658043798059225">
        <ele>732.65999999999997</ele>
        <time>2014-06-08T08:38:25Z</time>
      </trkpt>
      <trkpt lat="46.018727710470557" lon="8.658055448904634">
        <ele>734.58000000000004</ele>
        <time>2014-06-08T08:38:38Z</time>
      </trkpt>
      <trkpt lat="46.018840530887246" lon="8.658179333433509">
        <ele>736.02999999999997</ele>
        <time>2014-06-08T08:38:54Z</time>
      </trkpt>
      <trkpt lat="46.018869364634156" lon="8.65817497484386">
        <ele>736.02999999999997</ele>
        <time>2014-06-08T08:39:12Z</time>
      </trkpt>
      <trkpt lat="46.018885457888246" lon="8.658259967342019">
        <ele>736.50999999999999</ele>
        <time>2014-06-08T08:39:38Z</time>
      </trkpt>
      <trkpt lat="46.018985873088241" lon="8.658253932371736">
        <ele>737.95000000000005</ele>
        <time>2014-06-08T08:39:53Z</time>
      </trkpt>
      <trkpt lat="46.018917392939329" lon="8.658080929890275">
        <ele>738.42999999999995</ele>
        <time>2014-06-08T08:40:08Z</time>
      </trkpt>
      <trkpt lat="46.018850421532989" lon="8.657980682328343">
        <ele>739.87</ele>
        <time>2014-06-08T08:40:24Z</time>
      </trkpt>
      <trkpt lat="46.018844218924642" lon="8.657782450318337">
        <ele>743.24000000000001</ele>
        <time>2014-06-08T08:40:45Z</time>
      </trkpt>
      <trkpt lat="46.018882943317294" lon="8.657777924090624">
        <ele>743.72000000000003</ele>
        <time>2014-06-08T08:41:03Z</time>
      </trkpt>
      <trkpt lat="46.018912699073553" lon="8.657718831673265">
        <ele>746.60000000000002</ele>
        <time>2014-06-08T08:41:19Z</time>
      </trkpt>
      <trkpt lat="46.018983358517289" lon="8.657684046775103">
        <ele>749</ele>
        <time>2014-06-08T08:41:34Z</time>
      </trkpt>
      <trkpt lat="46.018967013806105" lon="8.657589834183455">
        <ele>751.88999999999999</ele>
        <time>2014-06-08T08:41:50Z</time>
      </trkpt>
      <trkpt lat="46.018985202535987" lon="8.657518420368433">
        <ele>754.76999999999998</ele>
        <time>2014-06-08T08:42:05Z</time>
      </trkpt>
      <trkpt lat="46.019067009910941" lon="8.657473744824529">
        <ele>757.65999999999997</ele>
        <time>2014-06-08T08:42:21Z</time>
      </trkpt>
      <trkpt lat="46.019196761772037" lon="8.657600060105324">
        <ele>758.62</ele>
        <time>2014-06-08T08:42:35Z</time>
      </trkpt>
      <trkpt lat="46.019278150051832" lon="8.657592851668596">
        <ele>760.05999999999995</ele>
        <time>2014-06-08T08:42:51Z</time>
      </trkpt>
      <trkpt lat="46.019381582736969" lon="8.657641718164086">
        <ele>761.98000000000002</ele>
        <time>2014-06-08T08:43:08Z</time>
      </trkpt>
      <trkpt lat="46.019436232745647" lon="8.657566700130701">
        <ele>764.87</ele>
        <time>2014-06-08T08:43:22Z</time>
      </trkpt>
      <trkpt lat="46.019567158073187" lon="8.657661247998476">
        <ele>766.30999999999995</ele>
        <time>2014-06-08T08:43:36Z</time>
      </trkpt>
      <trkpt lat="46.019586017355323" lon="8.657681867480278">
        <ele>766.78999999999996</ele>
        <time>2014-06-08T08:43:53Z</time>
      </trkpt>
      <trkpt lat="46.019655335694551" lon="8.657667618244886">
        <ele>767.75</ele>
        <time>2014-06-08T08:44:07Z</time>
      </trkpt>
      <trkpt lat="46.019793888553977" lon="8.657785132527351">
        <ele>770.14999999999998</ele>
        <time>2014-06-08T08:44:23Z</time>
      </trkpt>
      <trkpt lat="46.019802019000053" lon="8.65779628045857">
        <ele>770.14999999999998</ele>
        <time>2014-06-08T08:44:36Z</time>
      </trkpt>
      <trkpt lat="46.019874103367329" lon="8.657797118648887">
        <ele>770.63</ele>
        <time>2014-06-08T08:44:53Z</time>
      </trkpt>
      <trkpt lat="46.019915090873837" lon="8.657818660140038">
        <ele>770.63</ele>
        <time>2014-06-08T08:45:03Z</time>
      </trkpt>
      <trkpt lat="46.019946606829762" lon="8.657810781151056">
        <ele>770.63</ele>
        <time>2014-06-08T08:45:35Z</time>
      </trkpt>
      <trkpt lat="46.019918359816074" lon="8.657835004851222">
        <ele>771.11000000000001</ele>
        <time>2014-06-08T08:46:14Z</time>
      </trkpt>
      <trkpt lat="46.01992012001574" lon="8.657860737293959">
        <ele>771.11000000000001</ele>
        <time>2014-06-08T08:46:43Z</time>
      </trkpt>
      <trkpt lat="46.019935877993703" lon="8.657821426168084">
        <ele>771.60000000000002</ele>
        <time>2014-06-08T08:47:19Z</time>
      </trkpt>
      <trkpt lat="46.019902937114239" lon="8.65783492103219">
        <ele>771.11000000000001</ele>
        <time>2014-06-08T08:47:35Z</time>
      </trkpt>
      <trkpt lat="46.019886424764991" lon="8.657856713980436">
        <ele>771.60000000000002</ele>
        <time>2014-06-08T08:48:03Z</time>
      </trkpt>
      <trkpt lat="46.019895309582353" lon="8.657872639596462">
        <ele>771.60000000000002</ele>
        <time>2014-06-08T08:48:41Z</time>
      </trkpt>
      <trkpt lat="46.019839821383357" lon="8.657879009842873">
        <ele>771.60000000000002</ele>
        <time>2014-06-08T08:49:18Z</time>
      </trkpt>
      <trkpt lat="46.019901009276509" lon="8.657807009294629">
        <ele>772.08000000000004</ele>
        <time>2014-06-08T08:49:48Z</time>
      </trkpt>
      <trkpt lat="46.019939566031098" lon="8.657766440883279">
        <ele>771.60000000000002</ele>
        <time>2014-06-08T08:50:20Z</time>
      </trkpt>
      <trkpt lat="46.019906457513571" lon="8.657827628776431">
        <ele>772.08000000000004</ele>
        <time>2014-06-08T08:50:38Z</time>
      </trkpt>
      <trkpt lat="46.019888687878847" lon="8.65781631320715">
        <ele>772.08000000000004</ele>
        <time>2014-06-08T08:51:08Z</time>
      </trkpt>
      <trkpt lat="46.019876366481185" lon="8.657828131690621">
        <ele>772.08000000000004</ele>
        <time>2014-06-08T08:51:25Z</time>
      </trkpt>
      <trkpt lat="46.019887095317245" lon="8.657830143347383">
        <ele>772.08000000000004</ele>
        <time>2014-06-08T08:51:48Z</time>
      </trkpt>
      <trkpt lat="46.019886843860149" lon="8.657823605462909">
        <ele>771.60000000000002</ele>
        <time>2014-06-08T08:52:09Z</time>
      </trkpt>
      <trkpt lat="46.019876366481185" lon="8.657821342349052">
        <ele>772.55999999999995</ele>
        <time>2014-06-08T08:52:54Z</time>
      </trkpt>
      <trkpt lat="46.019846610724926" lon="8.657830897718668">
        <ele>772.55999999999995</ele>
        <time>2014-06-08T08:53:20Z</time>
      </trkpt>
      <trkpt lat="46.019885502755642" lon="8.657820671796799">
        <ele>772.55999999999995</ele>
        <time>2014-06-08T08:54:03Z</time>
      </trkpt>
      <trkpt lat="46.019895980134606" lon="8.657756382599473">
        <ele>772.55999999999995</ele>
        <time>2014-06-08T08:54:37Z</time>
      </trkpt>
      <trkpt lat="46.019861362874508" lon="8.657817905768752">
        <ele>773.03999999999996</ele>
        <time>2014-06-08T08:55:06Z</time>
      </trkpt>
      <trkpt lat="46.019820878282189" lon="8.657883536070585">
        <ele>773.03999999999996</ele>
        <time>2014-06-08T08:55:45Z</time>
      </trkpt>
      <trkpt lat="46.019835798069835" lon="8.657856965437532">
        <ele>773.51999999999998</ele>
        <time>2014-06-08T08:56:26Z</time>
      </trkpt>
      <trkpt lat="46.019868403673172" lon="8.657839447259903">
        <ele>773.51999999999998</ele>
        <time>2014-06-08T08:56:59Z</time>
      </trkpt>
      <trkpt lat="46.019870080053806" lon="8.657830394804478">
        <ele>773.51999999999998</ele>
        <time>2014-06-08T08:57:26Z</time>
      </trkpt>
      <trkpt lat="46.019859099760652" lon="8.657821677625179">
        <ele>774</ele>
        <time>2014-06-08T08:57:58Z</time>
      </trkpt>
      <trkpt lat="46.019858848303556" lon="8.657840453088284">
        <ele>774</ele>
        <time>2014-06-08T08:58:29Z</time>
      </trkpt>
      <trkpt lat="46.019852561876178" lon="8.657842297106981">
        <ele>774.48000000000002</ele>
        <time>2014-06-08T08:58:57Z</time>
      </trkpt>
      <trkpt lat="46.01985708810389" lon="8.657826790586114">
        <ele>775.44000000000005</ele>
        <time>2014-06-08T08:59:06Z</time>
      </trkpt>
      <trkpt lat="46.01985365152359" lon="8.657789155840874">
        <ele>775.44000000000005</ele>
        <time>2014-06-08T08:59:24Z</time>
      </trkpt>
      <trkpt lat="46.019805623218417" lon="8.657663511112332">
        <ele>776.39999999999998</ele>
        <time>2014-06-08T08:59:36Z</time>
      </trkpt>
      <trkpt lat="46.019715936854482" lon="8.657502243295312">
        <ele>777.84000000000003</ele>
        <time>2014-06-08T08:59:55Z</time>
      </trkpt>
      <trkpt lat="46.019631866365671" lon="8.657365115359426">
        <ele>779.28999999999996</ele>
        <time>2014-06-08T09:00:07Z</time>
      </trkpt>
      <trkpt lat="46.019492810592055" lon="8.657130086794496">
        <ele>779.28999999999996</ele>
        <time>2014-06-08T09:00:26Z</time>
      </trkpt>
      <trkpt lat="46.019460037350655" lon="8.657095637172461">
        <ele>779.76999999999998</ele>
        <time>2014-06-08T09:00:29Z</time>
      </trkpt>
      <trkpt lat="46.019313856959343" lon="8.656948953866959">
        <ele>781.21000000000004</ele>
        <time>2014-06-08T09:00:46Z</time>
      </trkpt>
      <trkpt lat="46.01927219890058" lon="8.656851556152105">
        <ele>781.69000000000005</ele>
        <time>2014-06-08T09:00:54Z</time>
      </trkpt>
      <trkpt lat="46.01925652474165" lon="8.656831858679652">
        <ele>782.16999999999996</ele>
        <time>2014-06-08T09:00:56Z</time>
      </trkpt>
      <trkpt lat="46.019156780093908" lon="8.656659526750445">
        <ele>784.09000000000003</ele>
        <time>2014-06-08T09:01:11Z</time>
      </trkpt>
      <trkpt lat="46.019118223339319" lon="8.656586352735758">
        <ele>784.09000000000003</ele>
        <time>2014-06-08T09:01:18Z</time>
      </trkpt>
      <trkpt lat="46.019039517268538" lon="8.65637538023293">
        <ele>785.04999999999995</ele>
        <time>2014-06-08T09:01:35Z</time>
      </trkpt>
      <trkpt lat="46.018961817026138" lon="8.656161390244961">
        <ele>785.52999999999997</ele>
        <time>2014-06-08T09:01:51Z</time>
      </trkpt>
      <trkpt lat="46.018952261656523" lon="8.656149320304394">
        <ele>785.52999999999997</ele>
        <time>2014-06-08T09:01:52Z</time>
      </trkpt>
      <trkpt lat="46.01888176985085" lon="8.655938347801566">
        <ele>785.04999999999995</ele>
        <time>2014-06-08T09:02:07Z</time>
      </trkpt>
      <trkpt lat="46.018786719068885" lon="8.655743300914764">
        <ele>784.57000000000005</ele>
        <time>2014-06-08T09:02:23Z</time>
      </trkpt>
      <trkpt lat="46.018716478720307" lon="8.655549846589565">
        <ele>785.04999999999995</ele>
        <time>2014-06-08T09:02:38Z</time>
      </trkpt>
      <trkpt lat="46.01867800578475" lon="8.655349854379892">
        <ele>785.52999999999997</ele>
        <time>2014-06-08T09:02:52Z</time>
      </trkpt>
      <trkpt lat="46.01862327195704" lon="8.655146593227983">
        <ele>787.46000000000004</ele>
        <time>2014-06-08T09:03:09Z</time>
      </trkpt>
      <trkpt lat="46.01853970438242" lon="8.654936626553536">
        <ele>787.46000000000004</ele>
        <time>2014-06-08T09:03:28Z</time>
      </trkpt>
      <trkpt lat="46.018478265032172" lon="8.654765971004963">
        <ele>788.89999999999998</ele>
        <time>2014-06-08T09:03:44Z</time>
      </trkpt>
      <trkpt lat="46.018448425456882" lon="8.654634961858392">
        <ele>791.77999999999997</ele>
        <time>2014-06-08T09:04:01Z</time>
      </trkpt>
      <trkpt lat="46.018446916714311" lon="8.654480399563909">
        <ele>793.22000000000003</ele>
        <time>2014-06-08T09:04:17Z</time>
      </trkpt>
      <trkpt lat="46.018406013026834" lon="8.654342349618673">
        <ele>795.14999999999998</ele>
        <time>2014-06-08T09:04:32Z</time>
      </trkpt>
      <trkpt lat="46.018394697457552" lon="8.654250567778945">
        <ele>796.59000000000003</ele>
        <time>2014-06-08T09:04:45Z</time>
      </trkpt>
      <trkpt lat="46.018383968621492" lon="8.654118301346898">
        <ele>798.50999999999999</ele>
        <time>2014-06-08T09:05:00Z</time>
      </trkpt>
      <trkpt lat="46.018334850668907" lon="8.654030710458756">
        <ele>798.99000000000001</ele>
        <time>2014-06-08T09:05:12Z</time>
      </trkpt>
      <trkpt lat="46.018327055498958" lon="8.653928032144904">
        <ele>800.91999999999996</ele>
        <time>2014-06-08T09:05:27Z</time>
      </trkpt>
      <trkpt lat="46.018245164304972" lon="8.653774308040738">
        <ele>802.36000000000001</ele>
        <time>2014-06-08T09:05:45Z</time>
      </trkpt>
      <trkpt lat="46.018208870664239" lon="8.653560234233737">
        <ele>803.79999999999995</ele>
        <time>2014-06-08T09:06:01Z</time>
      </trkpt>
      <trkpt lat="46.018176013603806" lon="8.653373820707202">
        <ele>805.72000000000003</ele>
        <time>2014-06-08T09:06:20Z</time>
      </trkpt>
      <trkpt lat="46.018121279776096" lon="8.653238452970982">
        <ele>807.63999999999999</ele>
        <time>2014-06-08T09:06:35Z</time>
      </trkpt>
      <trkpt lat="46.018061600625515" lon="8.653056146577001">
        <ele>808.13</ele>
        <time>2014-06-08T09:06:51Z</time>
      </trkpt>
      <trkpt lat="46.018056236207485" lon="8.652877192944288">
        <ele>807.15999999999997</ele>
        <time>2014-06-08T09:07:06Z</time>
      </trkpt>
      <trkpt lat="46.018020110204816" lon="8.652642667293549">
        <ele>806.67999999999995</ele>
        <time>2014-06-08T09:07:23Z</time>
      </trkpt>
      <trkpt lat="46.017981637269258" lon="8.652463294565678">
        <ele>807.15999999999997</ele>
        <time>2014-06-08T09:07:38Z</time>
      </trkpt>
      <trkpt lat="46.017966214567423" lon="8.652339577674866">
        <ele>807.63999999999999</ele>
        <time>2014-06-08T09:07:54Z</time>
      </trkpt>
      <trkpt lat="46.01797048933804" lon="8.652181830257177">
        <ele>807.63999999999999</ele>
        <time>2014-06-08T09:08:07Z</time>
      </trkpt>
      <trkpt lat="46.01798658259213" lon="8.65204906091094">
        <ele>809.09000000000003</ele>
        <time>2014-06-08T09:08:20Z</time>
      </trkpt>
      <trkpt lat="46.017928328365088" lon="8.651918303221464">
        <ele>810.52999999999997</ele>
        <time>2014-06-08T09:08:34Z</time>
      </trkpt>
      <trkpt lat="46.017921455204487" lon="8.651820821687579">
        <ele>811.97000000000003</ele>
        <time>2014-06-08T09:08:45Z</time>
      </trkpt>
      <trkpt lat="46.01792111992836" lon="8.651814535260201">
        <ele>811.97000000000003</ele>
        <time>2014-06-08T09:08:46Z</time>
      </trkpt>
      <trkpt lat="46.01789521984756" lon="8.651621667668223">
        <ele>812.92999999999995</ele>
        <time>2014-06-08T09:09:02Z</time>
      </trkpt>
      <trkpt lat="46.017822800204158" lon="8.651557378470898">
        <ele>815.34000000000003</ele>
        <time>2014-06-08T09:09:15Z</time>
      </trkpt>
      <trkpt lat="46.017827410250902" lon="8.65145780146122">
        <ele>815.82000000000005</ele>
        <time>2014-06-08T09:09:28Z</time>
      </trkpt>
      <trkpt lat="46.017835456877947" lon="8.651409521698952">
        <ele>818.70000000000005</ele>
        <time>2014-06-08T09:09:44Z</time>
      </trkpt>
      <trkpt lat="46.017736550420523" lon="8.651344142854214">
        <ele>820.62</ele>
        <time>2014-06-08T09:10:00Z</time>
      </trkpt>
      <trkpt lat="46.017693048343062" lon="8.651228304952383">
        <ele>823.02999999999997</ele>
        <time>2014-06-08T09:10:15Z</time>
      </trkpt>
      <trkpt lat="46.017618617042899" lon="8.651126297190785">
        <ele>824.95000000000005</ele>
        <time>2014-06-08T09:10:29Z</time>
      </trkpt>
      <trkpt lat="46.017543012276292" lon="8.650992186740041">
        <ele>827.35000000000002</ele>
        <time>2014-06-08T09:10:45Z</time>
      </trkpt>
      <trkpt lat="46.017494481056929" lon="8.650841899216175">
        <ele>830.72000000000003</ele>
        <time>2014-06-08T09:11:03Z</time>
      </trkpt>
      <trkpt lat="46.017449805513024" lon="8.650745088234544">
        <ele>833.60000000000002</ele>
        <time>2014-06-08T09:11:16Z</time>
      </trkpt>
      <trkpt lat="46.017386773601174" lon="8.650601590052247">
        <ele>834.55999999999995</ele>
        <time>2014-06-08T09:11:33Z</time>
      </trkpt>
      <trkpt lat="46.017352323979139" lon="8.65041509270668">
        <ele>836.48000000000002</ele>
        <time>2014-06-08T09:11:48Z</time>
      </trkpt>
      <trkpt lat="46.01731670089066" lon="8.650236474350095">
        <ele>838.88999999999999</ele>
        <time>2014-06-08T09:12:06Z</time>
      </trkpt>
      <trkpt lat="46.017245203256607" lon="8.650157013908029">
        <ele>840.33000000000004</ele>
        <time>2014-06-08T09:12:21Z</time>
      </trkpt>
      <trkpt lat="46.017212765291333" lon="8.649990716949105">
        <ele>843.21000000000004</ele>
        <time>2014-06-08T09:12:38Z</time>
      </trkpt>
      <trkpt lat="46.017137076705694" lon="8.649847218766809">
        <ele>844.65999999999997</ele>
        <time>2014-06-08T09:12:53Z</time>
      </trkpt>
      <trkpt lat="46.017080415040255" lon="8.649682011455298">
        <ele>846.10000000000002</ele>
        <time>2014-06-08T09:13:09Z</time>
      </trkpt>
      <trkpt lat="46.017029704526067" lon="8.649548990651965">
        <ele>848.01999999999998</ele>
        <time>2014-06-08T09:13:23Z</time>
      </trkpt>
      <trkpt lat="46.016970360651612" lon="8.649464249610901">
        <ele>849.94000000000005</ele>
        <time>2014-06-08T09:13:38Z</time>
      </trkpt>
      <trkpt lat="46.01687983609736" lon="8.649438852444291">
        <ele>851.38</ele>
        <time>2014-06-08T09:13:53Z</time>
      </trkpt>
      <trkpt lat="46.01684907451272" lon="8.64930004812777">
        <ele>853.30999999999995</ele>
        <time>2014-06-08T09:14:07Z</time>
      </trkpt>
      <trkpt lat="46.016817139461637" lon="8.649159483611584">
        <ele>855.23000000000002</ele>
        <time>2014-06-08T09:14:20Z</time>
      </trkpt>
      <trkpt lat="46.016827030107379" lon="8.648980865254998">
        <ele>857.63</ele>
        <time>2014-06-08T09:14:37Z</time>
      </trkpt>
      <trkpt lat="46.016858713701367" lon="8.648833595216274">
        <ele>859.55999999999995</ele>
        <time>2014-06-08T09:14:51Z</time>
      </trkpt>
      <trkpt lat="46.016811272129416" lon="8.648700155317783">
        <ele>859.08000000000004</ele>
        <time>2014-06-08T09:15:06Z</time>
      </trkpt>
      <trkpt lat="46.016791993752122" lon="8.648668555542827">
        <ele>859.08000000000004</ele>
        <time>2014-06-08T09:15:10Z</time>
      </trkpt>
      <trkpt lat="46.01674840785563" lon="8.648562943562865">
        <ele>860.03999999999996</ele>
        <time>2014-06-08T09:15:19Z</time>
      </trkpt>
      <trkpt lat="46.016724351793528" lon="8.648360352963209">
        <ele>858.11000000000001</ele>
        <time>2014-06-08T09:15:32Z</time>
      </trkpt>
      <trkpt lat="46.01667607203126" lon="8.648185422644019">
        <ele>859.08000000000004</ele>
        <time>2014-06-08T09:15:45Z</time>
      </trkpt>
      <trkpt lat="46.016629384830594" lon="8.648017030209303">
        <ele>857.63</ele>
        <time>2014-06-08T09:15:58Z</time>
      </trkpt>
      <trkpt lat="46.016586972400546" lon="8.647815110161901">
        <ele>856.66999999999996</ele>
        <time>2014-06-08T09:16:13Z</time>
      </trkpt>
      <trkpt lat="46.016583368182182" lon="8.647678233683109">
        <ele>856.66999999999996</ele>
        <time>2014-06-08T09:16:22Z</time>
      </trkpt>
      <trkpt lat="46.016593677923083" lon="8.64751554094255">
        <ele>857.14999999999998</ele>
        <time>2014-06-08T09:16:34Z</time>
      </trkpt>
      <trkpt lat="46.016616309061646" lon="8.647384447976947">
        <ele>856.66999999999996</ele>
        <time>2014-06-08T09:16:46Z</time>
      </trkpt>
      <trkpt lat="46.016552355140448" lon="8.647165177389979">
        <ele>855.71000000000004</ele>
        <time>2014-06-08T09:16:59Z</time>
      </trkpt>
      <trkpt lat="46.016505835577846" lon="8.646984212100506">
        <ele>854.75</ele>
        <time>2014-06-08T09:17:16Z</time>
      </trkpt>
      <trkpt lat="46.016473900526762" lon="8.646786147728562">
        <ele>854.26999999999998</ele>
        <time>2014-06-08T09:17:30Z</time>
      </trkpt>
      <trkpt lat="46.016441714018583" lon="8.646590011194348">
        <ele>853.78999999999996</ele>
        <time>2014-06-08T09:17:45Z</time>
      </trkpt>
      <trkpt lat="46.016407096758485" lon="8.646378871053457">
        <ele>853.30999999999995</ele>
        <time>2014-06-08T09:18:00Z</time>
      </trkpt>
      <trkpt lat="46.016379604116082" lon="8.646176867187023">
        <ele>853.30999999999995</ele>
        <time>2014-06-08T09:18:14Z</time>
      </trkpt>
      <trkpt lat="46.016401313245296" lon="8.646004451438785">
        <ele>855.23000000000002</ele>
        <time>2014-06-08T09:18:28Z</time>
      </trkpt>
      <trkpt lat="46.016414891928434" lon="8.645906466990709">
        <ele>856.19000000000005</ele>
        <time>2014-06-08T09:18:37Z</time>
      </trkpt>
      <trkpt lat="46.016399972140789" lon="8.645680826157332">
        <ele>856.19000000000005</ele>
        <time>2014-06-08T09:18:52Z</time>
      </trkpt>
      <trkpt lat="46.016368540003896" lon="8.645505309104919">
        <ele>855.23000000000002</ele>
        <time>2014-06-08T09:19:06Z</time>
      </trkpt>
      <trkpt lat="46.016364181414247" lon="8.645425513386726">
        <ele>853.78999999999996</ele>
        <time>2014-06-08T09:19:13Z</time>
      </trkpt>
      <trkpt lat="46.016386058181524" lon="8.645235244184732">
        <ele>851.38</ele>
        <time>2014-06-08T09:19:25Z</time>
      </trkpt>
      <trkpt lat="46.016394942998886" lon="8.645208422094584">
        <ele>850.89999999999998</ele>
        <time>2014-06-08T09:19:27Z</time>
      </trkpt>
      <trkpt lat="46.016413550823927" lon="8.645146396011114">
        <ele>850.89999999999998</ele>
        <time>2014-06-08T09:19:31Z</time>
      </trkpt>
      <trkpt lat="46.016458813101053" lon="8.644962916150689">
        <ele>849.94000000000005</ele>
        <time>2014-06-08T09:19:45Z</time>
      </trkpt>
      <trkpt lat="46.016499968245625" lon="8.64487205632031">
        <ele>852.35000000000002</ele>
        <time>2014-06-08T09:19:59Z</time>
      </trkpt>
      <trkpt lat="46.016491837799549" lon="8.644804330542684">
        <ele>852.35000000000002</ele>
        <time>2014-06-08T09:20:16Z</time>
      </trkpt>
      <trkpt lat="46.016517570242286" lon="8.644658233970404">
        <ele>853.30999999999995</ele>
        <time>2014-06-08T09:20:33Z</time>
      </trkpt>
      <trkpt lat="46.016594767570496" lon="8.644483806565404">
        <ele>853.78999999999996</ele>
        <time>2014-06-08T09:20:47Z</time>
      </trkpt>
      <trkpt lat="46.016656206920743" lon="8.644358245655894">
        <ele>854.75</ele>
        <time>2014-06-08T09:21:01Z</time>
      </trkpt>
      <trkpt lat="46.016705743968487" lon="8.644218603149056">
        <ele>853.78999999999996</ele>
        <time>2014-06-08T09:21:16Z</time>
      </trkpt>
      <trkpt lat="46.016702307388186" lon="8.644114332273603">
        <ele>852.83000000000004</ele>
        <time>2014-06-08T09:21:30Z</time>
      </trkpt>
      <trkpt lat="46.016650842502713" lon="8.644134616479278">
        <ele>852.35000000000002</ele>
        <time>2014-06-08T09:21:46Z</time>
      </trkpt>
      <trkpt lat="46.016606250777841" lon="8.644129419699311">
        <ele>852.35000000000002</ele>
        <time>2014-06-08T09:21:49Z</time>
      </trkpt>
      <trkpt lat="46.016458813101053" lon="8.644112572073937">
        <ele>852.83000000000004</ele>
        <time>2014-06-08T09:22:03Z</time>
      </trkpt>
      <trkpt lat="46.016371976584196" lon="8.643982065841556">
        <ele>854.26999999999998</ele>
        <time>2014-06-08T09:22:17Z</time>
      </trkpt>
      <trkpt lat="46.016318751499057" lon="8.643860947340727">
        <ele>857.14999999999998</ele>
        <time>2014-06-08T09:22:34Z</time>
      </trkpt>
      <trkpt lat="46.016260497272015" lon="8.643776960670948">
        <ele>860.51999999999998</ele>
        <time>2014-06-08T09:22:51Z</time>
      </trkpt>
      <trkpt lat="46.016210876405239" lon="8.64372088573873">
        <ele>863.39999999999998</ele>
        <time>2014-06-08T09:23:07Z</time>
      </trkpt>
      <trkpt lat="46.016173241659999" lon="8.643606305122376">
        <ele>867.25</ele>
        <time>2014-06-08T09:23:23Z</time>
      </trkpt>
      <trkpt lat="46.016133092343807" lon="8.643529862165451">
        <ele>869.16999999999996</ele>
        <time>2014-06-08T09:23:39Z</time>
      </trkpt>
      <trkpt lat="46.016113981604576" lon="8.643485521897674">
        <ele>871.09000000000003</ele>
        <time>2014-06-08T09:23:54Z</time>
      </trkpt>
      <trkpt lat="46.01612152531743" lon="8.643424417823553">
        <ele>873.98000000000002</ele>
        <time>2014-06-08T09:24:08Z</time>
      </trkpt>
      <trkpt lat="46.016083303838968" lon="8.643391979858279">
        <ele>874.46000000000004</ele>
        <time>2014-06-08T09:24:22Z</time>
      </trkpt>
      <trkpt lat="46.016075927764177" lon="8.643343197181821">
        <ele>873.5</ele>
        <time>2014-06-08T09:24:34Z</time>
      </trkpt>
      <trkpt lat="46.016108449548483" lon="8.643287373706698">
        <ele>873.5</ele>
        <time>2014-06-08T09:25:00Z</time>
      </trkpt>
      <trkpt lat="46.016086908057332" lon="8.643359206616879">
        <ele>873.98000000000002</ele>
        <time>2014-06-08T09:25:26Z</time>
      </trkpt>
      <trkpt lat="46.016129991039634" lon="8.643329869955778">
        <ele>874.46000000000004</ele>
        <time>2014-06-08T09:25:50Z</time>
      </trkpt>
      <trkpt lat="46.016093194484711" lon="8.643368510529399">
        <ele>874.46000000000004</ele>
        <time>2014-06-08T09:26:13Z</time>
      </trkpt>
      <trkpt lat="46.016102079302073" lon="8.643424920737743">
        <ele>875.41999999999996</ele>
        <time>2014-06-08T09:26:23Z</time>
      </trkpt>
      <trkpt lat="46.016084980219603" lon="8.643452664837241">
        <ele>875.41999999999996</ele>
        <time>2014-06-08T09:26:38Z</time>
      </trkpt>
      <trkpt lat="46.016064276918769" lon="8.643396506085992">
        <ele>875.41999999999996</ele>
        <time>2014-06-08T09:27:01Z</time>
      </trkpt>
      <trkpt lat="46.016073664650321" lon="8.643368007615209">
        <ele>875.89999999999998</ele>
        <time>2014-06-08T09:27:26Z</time>
      </trkpt>
      <trkpt lat="46.016087410971522" lon="8.643396506085992">
        <ele>875.89999999999998</ele>
        <time>2014-06-08T09:27:52Z</time>
      </trkpt>
      <trkpt lat="46.016071736812592" lon="8.643419723957777">
        <ele>875.89999999999998</ele>
        <time>2014-06-08T09:28:20Z</time>
      </trkpt>
      <trkpt lat="46.015996383503079" lon="8.643299443647265">
        <ele>876.86000000000001</ele>
        <time>2014-06-08T09:28:34Z</time>
      </trkpt>
      <trkpt lat="46.01593192666769" lon="8.643196010962129">
        <ele>877.82000000000005</ele>
        <time>2014-06-08T09:28:48Z</time>
      </trkpt>
      <trkpt lat="46.015901500359178" lon="8.643081430345774">
        <ele>879.25999999999999</ele>
        <time>2014-06-08T09:29:03Z</time>
      </trkpt>
      <trkpt lat="46.01587082259357" lon="8.642997611314058">
        <ele>881.19000000000005</ele>
        <time>2014-06-08T09:29:21Z</time>
      </trkpt>
      <trkpt lat="46.015930837020278" lon="8.642969280481339">
        <ele>882.14999999999998</ele>
        <time>2014-06-08T09:29:37Z</time>
      </trkpt>
      <trkpt lat="46.015993785113096" lon="8.643024349585176">
        <ele>885.02999999999997</ele>
        <time>2014-06-08T09:29:54Z</time>
      </trkpt>
      <trkpt lat="46.016039382666349" lon="8.643002891913056">
        <ele>886.95000000000005</ele>
        <time>2014-06-08T09:30:10Z</time>
      </trkpt>
      <trkpt lat="46.016076682135463" lon="8.643076987937093">
        <ele>888.88</ele>
        <time>2014-06-08T09:30:28Z</time>
      </trkpt>
      <trkpt lat="46.016051536425948" lon="8.643023343756795">
        <ele>890.79999999999995</ele>
        <time>2014-06-08T09:30:46Z</time>
      </trkpt>
      <trkpt lat="46.01602278649807" lon="8.643034491688013">
        <ele>892.72000000000003</ele>
        <time>2014-06-08T09:31:08Z</time>
      </trkpt>
      <trkpt lat="46.016029911115766" lon="8.642986379563808">
        <ele>894.15999999999997</ele>
        <time>2014-06-08T09:31:29Z</time>
      </trkpt>
      <trkpt lat="46.016041729599237" lon="8.642905661836267">
        <ele>897.04999999999995</ele>
        <time>2014-06-08T09:31:40Z</time>
      </trkpt>
      <trkpt lat="46.016026474535465" lon="8.642823100090027">
        <ele>897.52999999999997</ele>
        <time>2014-06-08T09:31:45Z</time>
      </trkpt>
      <trkpt lat="46.01602521724999" lon="8.642649343237281">
        <ele>898.97000000000003</ele>
        <time>2014-06-08T09:31:57Z</time>
      </trkpt>
      <trkpt lat="46.01599445566535" lon="8.642487656325102">
        <ele>900.40999999999997</ele>
        <time>2014-06-08T09:32:12Z</time>
      </trkpt>
      <trkpt lat="46.015973333269358" lon="8.642288250848651">
        <ele>901.85000000000002</ele>
        <time>2014-06-08T09:32:26Z</time>
      </trkpt>
      <trkpt lat="46.015906948596239" lon="8.642144920304418">
        <ele>902.82000000000005</ele>
        <time>2014-06-08T09:32:39Z</time>
      </trkpt>
      <trkpt lat="46.015852130949497" lon="8.641966804862022">
        <ele>904.25999999999999</ele>
        <time>2014-06-08T09:32:54Z</time>
      </trkpt>
      <trkpt lat="46.015827991068363" lon="8.64184258505702">
        <ele>905.70000000000005</ele>
        <time>2014-06-08T09:33:08Z</time>
      </trkpt>
      <trkpt lat="46.015807036310434" lon="8.641814840957522">
        <ele>906.17999999999995</ele>
        <time>2014-06-08T09:33:12Z</time>
      </trkpt>
      <trkpt lat="46.01568122394383" lon="8.641760610044003">
        <ele>906.65999999999997</ele>
        <time>2014-06-08T09:33:27Z</time>
      </trkpt>
      <trkpt lat="46.015571253374219" lon="8.641752479597926">
        <ele>908.10000000000002</ele>
        <time>2014-06-08T09:33:40Z</time>
      </trkpt>
      <trkpt lat="46.015519285574555" lon="8.641660697758198">
        <ele>909.53999999999996</ele>
        <time>2014-06-08T09:33:54Z</time>
      </trkpt>
      <trkpt lat="46.015473604202271" lon="8.641563048586249">
        <ele>911.95000000000005</ele>
        <time>2014-06-08T09:34:10Z</time>
      </trkpt>
      <trkpt lat="46.015477878972888" lon="8.64148979075253">
        <ele>913.38999999999999</ele>
        <time>2014-06-08T09:34:23Z</time>
      </trkpt>
      <trkpt lat="46.01544720120728" lon="8.641431536525488">
        <ele>915.78999999999996</ele>
        <time>2014-06-08T09:34:38Z</time>
      </trkpt>
      <trkpt lat="46.015459438785911" lon="8.641353501006961">
        <ele>917.24000000000001</ele>
        <time>2014-06-08T09:34:54Z</time>
      </trkpt>
      <trkpt lat="46.015445860102773" lon="8.641335060819984">
        <ele>919.63999999999999</ele>
        <time>2014-06-08T09:35:11Z</time>
      </trkpt>
      <trkpt lat="46.015470083802938" lon="8.641243362799287">
        <ele>921.55999999999995</ele>
        <time>2014-06-08T09:35:25Z</time>
      </trkpt>
      <trkpt lat="46.01548969745636" lon="8.641163567081094">
        <ele>923.48000000000002</ele>
        <time>2014-06-08T09:35:40Z</time>
      </trkpt>
      <trkpt lat="46.015482991933823" lon="8.641125848516822">
        <ele>925.88999999999999</ele>
        <time>2014-06-08T09:35:55Z</time>
      </trkpt>
      <trkpt lat="46.015448793768883" lon="8.641046136617661">
        <ele>929.25</ele>
        <time>2014-06-08T09:36:11Z</time>
      </trkpt>
      <trkpt lat="46.015396909788251" lon="8.640925604850054">
        <ele>932.13999999999999</ele>
        <time>2014-06-08T09:36:26Z</time>
      </trkpt>
      <trkpt lat="46.015345193445683" lon="8.640749752521515">
        <ele>934.53999999999996</ele>
        <time>2014-06-08T09:36:43Z</time>
      </trkpt>
      <trkpt lat="46.015326082706451" lon="8.640587395057082">
        <ele>937.89999999999998</ele>
        <time>2014-06-08T09:36:58Z</time>
      </trkpt>
      <trkpt lat="46.015322646126151" lon="8.640438783913851">
        <ele>940.78999999999996</ele>
        <time>2014-06-08T09:37:12Z</time>
      </trkpt>
      <trkpt lat="46.015332117676735" lon="8.640290424227715">
        <ele>944.63</ele>
        <time>2014-06-08T09:37:26Z</time>
      </trkpt>
      <trkpt lat="46.015435801818967" lon="8.640334848314524">
        <ele>947.51999999999998</ele>
        <time>2014-06-08T09:37:39Z</time>
      </trkpt>
      <trkpt lat="46.015502689406276" lon="8.640385726466775">
        <ele>950.88</ele>
        <time>2014-06-08T09:37:52Z</time>
      </trkpt>
      <trkpt lat="46.015508305281401" lon="8.640311630442739">
        <ele>953.76999999999998</ele>
        <time>2014-06-08T09:38:05Z</time>
      </trkpt>
      <trkpt lat="46.015575528144836" lon="8.640371477231383">
        <ele>956.16999999999996</ele>
        <time>2014-06-08T09:38:17Z</time>
      </trkpt>
      <trkpt lat="46.015630261972547" lon="8.640405172482133">
        <ele>959.04999999999995</ele>
        <time>2014-06-08T09:38:30Z</time>
      </trkpt>
      <trkpt lat="46.0156533960253" lon="8.640424283221364">
        <ele>961.94000000000005</ele>
        <time>2014-06-08T09:38:43Z</time>
      </trkpt>
      <trkpt lat="46.015700921416283" lon="8.640465606004">
        <ele>963.86000000000001</ele>
        <time>2014-06-08T09:38:57Z</time>
      </trkpt>
      <trkpt lat="46.015710141509771" lon="8.640378266572952">
        <ele>966.25999999999999</ele>
        <time>2014-06-08T09:39:08Z</time>
      </trkpt>
      <trkpt lat="46.015741573646665" lon="8.640318838879466">
        <ele>969.14999999999998</ele>
        <time>2014-06-08T09:39:19Z</time>
      </trkpt>
      <trkpt lat="46.015707291662693" lon="8.640235271304846">
        <ele>970.11000000000001</ele>
        <time>2014-06-08T09:39:31Z</time>
      </trkpt>
      <trkpt lat="46.015680972486734" lon="8.64010107703507">
        <ele>972.02999999999997</ele>
        <time>2014-06-08T09:39:42Z</time>
      </trkpt>
      <trkpt lat="46.015687258914113" lon="8.640068219974637">
        <ele>972.50999999999999</ele>
        <time>2014-06-08T09:39:46Z</time>
      </trkpt>
      <trkpt lat="46.015706285834312" lon="8.639925224706531">
        <ele>975.88</ele>
        <time>2014-06-08T09:40:00Z</time>
      </trkpt>
      <trkpt lat="46.015781722962856" lon="8.63989345729351">
        <ele>979.24000000000001</ele>
        <time>2014-06-08T09:40:13Z</time>
      </trkpt>
      <trkpt lat="46.015830002725124" lon="8.639817601069808">
        <ele>982.12</ele>
        <time>2014-06-08T09:40:27Z</time>
      </trkpt>
      <trkpt lat="46.015856489539146" lon="8.639700170606375">
        <ele>984.52999999999997</ele>
        <time>2014-06-08T09:40:39Z</time>
      </trkpt>
      <trkpt lat="46.015879791229963" lon="8.639601767063141">
        <ele>986.45000000000005</ele>
        <time>2014-06-08T09:40:49Z</time>
      </trkpt>
      <trkpt lat="46.015835031867027" lon="8.639377467334271">
        <ele>987.40999999999997</ele>
        <time>2014-06-08T09:41:04Z</time>
      </trkpt>
      <trkpt lat="46.015807874500751" lon="8.639217624440789">
        <ele>989.80999999999995</ele>
        <time>2014-06-08T09:41:16Z</time>
      </trkpt>
      <trkpt lat="46.015850706025958" lon="8.639022493734956">
        <ele>992.22000000000003</ele>
        <time>2014-06-08T09:41:31Z</time>
      </trkpt>
      <trkpt lat="46.015878198668361" lon="8.638966251164675">
        <ele>992.22000000000003</ele>
        <time>2014-06-08T09:41:36Z</time>
      </trkpt>
      <trkpt lat="46.016023373231292" lon="8.638834822922945">
        <ele>995.10000000000002</ele>
        <time>2014-06-08T09:41:51Z</time>
      </trkpt>
      <trkpt lat="46.016044160351157" lon="8.638827949762344">
        <ele>995.58000000000004</ele>
        <time>2014-06-08T09:41:53Z</time>
      </trkpt>
      <trkpt lat="46.016052039340138" lon="8.6387681029737">
        <ele>998.95000000000005</ele>
        <time>2014-06-08T09:42:03Z</time>
      </trkpt>
      <trkpt lat="46.016008956357837" lon="8.63862787373364">
        <ele>1001.35</ele>
        <time>2014-06-08T09:42:16Z</time>
      </trkpt>
      <trkpt lat="46.016050111502409" lon="8.638502648100257">
        <ele>1004.23</ele>
        <time>2014-06-08T09:42:30Z</time>
      </trkpt>
      <trkpt lat="46.016110964119434" lon="8.638416985049844">
        <ele>1007.6</ele>
        <time>2014-06-08T09:42:45Z</time>
      </trkpt>
      <trkpt lat="46.016151113435626" lon="8.638348672538996">
        <ele>1010.48</ele>
        <time>2014-06-08T09:42:58Z</time>
      </trkpt>
      <trkpt lat="46.016243984922767" lon="8.638331824913621">
        <ele>1013.37</ele>
        <time>2014-06-08T09:43:12Z</time>
      </trkpt>
      <trkpt lat="46.016277093440294" lon="8.638411117717624">
        <ele>1015.77</ele>
        <time>2014-06-08T09:43:27Z</time>
      </trkpt>
      <trkpt lat="46.016284804791212" lon="8.638488734140992">
        <ele>1019.62</ele>
        <time>2014-06-08T09:43:39Z</time>
      </trkpt>
      <trkpt lat="46.016330821439624" lon="8.638584706932306">
        <ele>1020.58</ele>
        <time>2014-06-08T09:43:52Z</time>
      </trkpt>
      <trkpt lat="46.016394020989537" lon="8.638613540679216">
        <ele>1023.9400000000001</ele>
        <time>2014-06-08T09:44:05Z</time>
      </trkpt>
      <trkpt lat="46.016463087871671" lon="8.63867330364883">
        <ele>1026.8299999999999</ele>
        <time>2014-06-08T09:44:19Z</time>
      </trkpt>
      <trkpt lat="46.016517234966159" lon="8.638730719685555">
        <ele>1030.1900000000001</ele>
        <time>2014-06-08T09:44:30Z</time>
      </trkpt>
      <trkpt lat="46.016560737043619" lon="8.638809258118272">
        <ele>1032.1099999999999</ele>
        <time>2014-06-08T09:44:44Z</time>
      </trkpt>
      <trkpt lat="46.016605077311397" lon="8.638726361095905">
        <ele>1035.48</ele>
        <time>2014-06-08T09:44:57Z</time>
      </trkpt>
      <trkpt lat="46.01666484028101" lon="8.638761229813099">
        <ele>1038.8399999999999</ele>
        <time>2014-06-08T09:45:10Z</time>
      </trkpt>
      <trkpt lat="46.016685124486685" lon="8.638878744095564">
        <ele>1041.73</ele>
        <time>2014-06-08T09:45:27Z</time>
      </trkpt>
      <trkpt lat="46.016727788373828" lon="8.638970023021102">
        <ele>1045.0899999999999</ele>
        <time>2014-06-08T09:45:40Z</time>
      </trkpt>
      <trkpt lat="46.016721166670322" lon="8.639052249491215">
        <ele>1046.53</ele>
        <time>2014-06-08T09:45:55Z</time>
      </trkpt>
      <trkpt lat="46.016755532473326" lon="8.639127854257822">
        <ele>1048.9400000000001</ele>
        <time>2014-06-08T09:46:07Z</time>
      </trkpt>
      <trkpt lat="46.016795933246613" lon="8.63923673518002">
        <ele>1050.8599999999999</ele>
        <time>2014-06-08T09:46:21Z</time>
      </trkpt>
      <trkpt lat="46.016842285171151" lon="8.639364559203386">
        <ele>1052.78</ele>
        <time>2014-06-08T09:46:36Z</time>
      </trkpt>
      <trkpt lat="46.016898108646274" lon="8.639445109292865">
        <ele>1055.6700000000001</ele>
        <time>2014-06-08T09:46:49Z</time>
      </trkpt>
      <trkpt lat="46.016920488327742" lon="8.63944779150188">
        <ele>1056.6300000000001</ele>
        <time>2014-06-08T09:46:52Z</time>
      </trkpt>
      <trkpt lat="46.016938090324402" lon="8.639444271102548">
        <ele>1059.99</ele>
        <time>2014-06-08T09:47:02Z</time>
      </trkpt>
      <trkpt lat="46.016940772533417" lon="8.63936866633594">
        <ele>1061.9100000000001</ele>
        <time>2014-06-08T09:47:15Z</time>
      </trkpt>
      <trkpt lat="46.016980838030577" lon="8.63938719034195">
        <ele>1063.8399999999999</ele>
        <time>2014-06-08T09:47:29Z</time>
      </trkpt>
      <trkpt lat="46.017001122236252" lon="8.639347208663821">
        <ele>1065.76</ele>
        <time>2014-06-08T09:47:42Z</time>
      </trkpt>
      <trkpt lat="46.017016712576151" lon="8.639302365481854">
        <ele>1066.24</ele>
        <time>2014-06-08T09:47:47Z</time>
      </trkpt>
      <trkpt lat="46.017047893255949" lon="8.639190131798387">
        <ele>1068.6400000000001</ele>
        <time>2014-06-08T09:48:01Z</time>
      </trkpt>
      <trkpt lat="46.017073709517717" lon="8.639111341908574">
        <ele>1071.53</ele>
        <time>2014-06-08T09:48:16Z</time>
      </trkpt>
      <trkpt lat="46.01710463874042" lon="8.639069767668843">
        <ele>1074.4100000000001</ele>
        <time>2014-06-08T09:48:28Z</time>
      </trkpt>
      <trkpt lat="46.017206981778145" lon="8.639137661084533">
        <ele>1077.29</ele>
        <time>2014-06-08T09:48:43Z</time>
      </trkpt>
      <trkpt lat="46.017237827181816" lon="8.6391790676862">
        <ele>1080.6600000000001</ele>
        <time>2014-06-08T09:48:57Z</time>
      </trkpt>
      <trkpt lat="46.01728837005794" lon="8.639157526195049">
        <ele>1083.54</ele>
        <time>2014-06-08T09:49:11Z</time>
      </trkpt>
      <trkpt lat="46.017374536022544" lon="8.639198429882526">
        <ele>1084.99</ele>
        <time>2014-06-08T09:49:30Z</time>
      </trkpt>
      <trkpt lat="46.017363471910357" lon="8.639179654419422">
        <ele>1085.47</ele>
        <time>2014-06-08T09:49:46Z</time>
      </trkpt>
      <trkpt lat="46.01740462705493" lon="8.639271603897214">
        <ele>1087.3900000000001</ele>
        <time>2014-06-08T09:49:55Z</time>
      </trkpt>
      <trkpt lat="46.017368584871292" lon="8.639373779296875">
        <ele>1087.3900000000001</ele>
        <time>2014-06-08T09:50:02Z</time>
      </trkpt>
      <trkpt lat="46.017360202968121" lon="8.639485510066152">
        <ele>1087.8699999999999</ele>
        <time>2014-06-08T09:50:10Z</time>
      </trkpt>
      <trkpt lat="46.017370093613863" lon="8.639651136472821">
        <ele>1088.8299999999999</ele>
        <time>2014-06-08T09:50:24Z</time>
      </trkpt>
      <trkpt lat="46.017418373376131" lon="8.639806536957622">
        <ele>1089.3099999999999</ele>
        <time>2014-06-08T09:50:38Z</time>
      </trkpt>
      <trkpt lat="46.017433544620872" lon="8.63986755721271">
        <ele>1089.79</ele>
        <time>2014-06-08T09:50:57Z</time>
      </trkpt>
      <trkpt lat="46.017466653138399" lon="8.639939725399017">
        <ele>1089.79</ele>
        <time>2014-06-08T09:51:26Z</time>
      </trkpt>
      <trkpt lat="46.017463887110353" lon="8.639944083988667">
        <ele>1089.79</ele>
        <time>2014-06-08T09:51:46Z</time>
      </trkpt>
      <trkpt lat="46.017460199072957" lon="8.639923967421055">
        <ele>1089.79</ele>
        <time>2014-06-08T09:52:07Z</time>
      </trkpt>
      <trkpt lat="46.017408985644579" lon="8.639753898605704">
        <ele>1089.79</ele>
        <time>2014-06-08T09:52:29Z</time>
      </trkpt>
      <trkpt lat="46.017375877127051" lon="8.63961442373693">
        <ele>1088.8299999999999</ele>
        <time>2014-06-08T09:52:43Z</time>
      </trkpt>
      <trkpt lat="46.017364813014865" lon="8.639634205028415">
        <ele>1088.8299999999999</ele>
        <time>2014-06-08T09:53:01Z</time>
      </trkpt>
      <trkpt lat="46.017345115542412" lon="8.639612244442105">
        <ele>1088.3499999999999</ele>
        <time>2014-06-08T09:53:16Z</time>
      </trkpt>
      <trkpt lat="46.017335392534733" lon="8.639602940529585">
        <ele>1088.3499999999999</ele>
        <time>2014-06-08T09:53:32Z</time>
      </trkpt>
      <trkpt lat="46.017354167997837" lon="8.639599923044443">
        <ele>1088.8299999999999</ele>
        <time>2014-06-08T09:53:52Z</time>
      </trkpt>
      <trkpt lat="46.017375709488988" lon="8.639583326876164">
        <ele>1088.8299999999999</ele>
        <time>2014-06-08T09:54:07Z</time>
      </trkpt>
      <trkpt lat="46.017367662861943" lon="8.639534208923578">
        <ele>1089.3099999999999</ele>
        <time>2014-06-08T09:54:12Z</time>
      </trkpt>
      <trkpt lat="46.017394987866282" lon="8.639345867559314">
        <ele>1087.8699999999999</ele>
        <time>2014-06-08T09:54:27Z</time>
      </trkpt>
      <trkpt lat="46.017375458031893" lon="8.639277219772339">
        <ele>1087.8699999999999</ele>
        <time>2014-06-08T09:54:42Z</time>
      </trkpt>
      <trkpt lat="46.017391970381141" lon="8.639275459572673">
        <ele>1088.3499999999999</ele>
        <time>2014-06-08T09:55:05Z</time>
      </trkpt>
      <trkpt lat="46.017385181039572" lon="8.639233969151974">
        <ele>1088.3499999999999</ele>
        <time>2014-06-08T09:55:26Z</time>
      </trkpt>
      <trkpt lat="46.017378391698003" lon="8.639154005795717">
        <ele>1088.8299999999999</ele>
        <time>2014-06-08T09:55:43Z</time>
      </trkpt>
      <trkpt lat="46.01736799813807" lon="8.639184599742293">
        <ele>1088.8299999999999</ele>
        <time>2014-06-08T09:56:01Z</time>
      </trkpt>
      <trkpt lat="46.017384091392159" lon="8.639233717694879">
        <ele>1088.8299999999999</ele>
        <time>2014-06-08T09:56:20Z</time>
      </trkpt>
      <trkpt lat="46.017361879348755" lon="8.639199938625097">
        <ele>1089.3099999999999</ele>
        <time>2014-06-08T09:56:38Z</time>
      </trkpt>
      <trkpt lat="46.017368836328387" lon="8.639230700209737">
        <ele>1088.8299999999999</ele>
        <time>2014-06-08T09:56:48Z</time>
      </trkpt>
      <trkpt lat="46.017381073907018" lon="8.63927680067718">
        <ele>1088.3499999999999</ele>
        <time>2014-06-08T09:57:01Z</time>
      </trkpt>
      <trkpt lat="46.017377637326717" lon="8.639182839542627">
        <ele>1088.8299999999999</ele>
        <time>2014-06-08T09:57:14Z</time>
      </trkpt>
      <trkpt lat="46.017334638163447" lon="8.639154760167003">
        <ele>1088.3499999999999</ele>
        <time>2014-06-08T09:57:44Z</time>
      </trkpt>
      <trkpt lat="46.017332626506686" lon="8.639157526195049">
        <ele>1088.8299999999999</ele>
        <time>2014-06-08T09:58:24Z</time>
      </trkpt>
      <trkpt lat="46.017325753346086" lon="8.63914093002677">
        <ele>1090.27</ele>
        <time>2014-06-08T09:58:58Z</time>
      </trkpt>
      <trkpt lat="46.01728736422956" lon="8.639123663306236">
        <ele>1090.75</ele>
        <time>2014-06-08T09:59:34Z</time>
      </trkpt>
      <trkpt lat="46.017247131094337" lon="8.639119388535619">
        <ele>1090.75</ele>
        <time>2014-06-08T10:00:10Z</time>
      </trkpt>
      <trkpt lat="46.017247717827559" lon="8.639119891449809">
        <ele>1091.71</ele>
        <time>2014-06-08T10:00:43Z</time>
      </trkpt>
      <trkpt lat="46.017229948192835" lon="8.639084519818425">
        <ele>1092.2</ele>
        <time>2014-06-08T10:01:12Z</time>
      </trkpt>
      <trkpt lat="46.017287280410528" lon="8.639236483722925">
        <ele>1091.71</ele>
        <time>2014-06-08T10:01:26Z</time>
      </trkpt>
      <trkpt lat="46.017265152186155" lon="8.639142690226436">
        <ele>1090.75</ele>
        <time>2014-06-08T10:01:43Z</time>
      </trkpt>
      <trkpt lat="46.017376966774464" lon="8.639146210625768">
        <ele>1090.75</ele>
        <time>2014-06-08T10:02:05Z</time>
      </trkpt>
      <trkpt lat="46.017398508265615" lon="8.639136906713247">
        <ele>1090.75</ele>
        <time>2014-06-08T10:02:27Z</time>
      </trkpt>
      <trkpt lat="46.01741292513907" lon="8.639142103493214">
        <ele>1090.75</ele>
        <time>2014-06-08T10:02:52Z</time>
      </trkpt>
      <trkpt lat="46.017423402518034" lon="8.639145456254482">
        <ele>1091.23</ele>
        <time>2014-06-08T10:03:17Z</time>
      </trkpt>
      <trkpt lat="46.017434885725379" lon="8.639167919754982">
        <ele>1091.71</ele>
        <time>2014-06-08T10:03:50Z</time>
      </trkpt>
      <trkpt lat="46.017430443316698" lon="8.639183090999723">
        <ele>1092.2</ele>
        <time>2014-06-08T10:04:14Z</time>
      </trkpt>
      <trkpt lat="46.01744175888598" lon="8.639158112928271">
        <ele>1092.2</ele>
        <time>2014-06-08T10:04:33Z</time>
      </trkpt>
      <trkpt lat="46.017426420003176" lon="8.6391756311059">
        <ele>1092.2</ele>
        <time>2014-06-08T10:04:54Z</time>
      </trkpt>
      <trkpt lat="46.017423486337066" lon="8.639169344678521">
        <ele>1092.6800000000001</ele>
        <time>2014-06-08T10:05:13Z</time>
      </trkpt>
      <trkpt lat="46.017419630661607" lon="8.639187449589372">
        <ele>1092.6800000000001</ele>
        <time>2014-06-08T10:05:32Z</time>
      </trkpt>
      <trkpt lat="46.01737386547029" lon="8.639179822057486">
        <ele>1093.1600000000001</ele>
        <time>2014-06-08T10:05:56Z</time>
      </trkpt>
      <trkpt lat="46.01738853380084" lon="8.639190969988704">
        <ele>1093.1600000000001</ele>
        <time>2014-06-08T10:06:18Z</time>
      </trkpt>
      <trkpt lat="46.017384175211191" lon="8.639198429882526">
        <ele>1093.1600000000001</ele>
        <time>2014-06-08T10:06:42Z</time>
      </trkpt>
      <trkpt lat="46.017328016459942" lon="8.639141600579023">
        <ele>1093.6400000000001</ele>
        <time>2014-06-08T10:07:05Z</time>
      </trkpt>
      <trkpt lat="46.017318796366453" lon="8.63918200135231">
        <ele>1093.1600000000001</ele>
        <time>2014-06-08T10:07:28Z</time>
      </trkpt>
      <trkpt lat="46.017313180491328" lon="8.639221899211407">
        <ele>1094.1199999999999</ele>
        <time>2014-06-08T10:07:52Z</time>
      </trkpt>
      <trkpt lat="46.017292309552431" lon="8.639212595298886">
        <ele>1093.6400000000001</ele>
        <time>2014-06-08T10:08:17Z</time>
      </trkpt>
      <trkpt lat="46.017285604029894" lon="8.639194658026099">
        <ele>1094.1199999999999</ele>
        <time>2014-06-08T10:08:30Z</time>
      </trkpt>
      <trkpt lat="46.017289543524384" lon="8.639186359941959">
        <ele>1094.1199999999999</ele>
        <time>2014-06-08T10:08:51Z</time>
      </trkpt>
      <trkpt lat="46.017257189378142" lon="8.639174290001392">
        <ele>1093.6400000000001</ele>
        <time>2014-06-08T10:09:10Z</time>
      </trkpt>
      <trkpt lat="46.017266996204853" lon="8.639120394363999">
        <ele>1093.6400000000001</ele>
        <time>2014-06-08T10:09:27Z</time>
      </trkpt>
      <trkpt lat="46.017279904335737" lon="8.639054512605071">
        <ele>1094.1199999999999</ele>
        <time>2014-06-08T10:09:49Z</time>
      </trkpt>
      <trkpt lat="46.017308067530394" lon="8.639216367155314">
        <ele>1094.1199999999999</ele>
        <time>2014-06-08T10:10:16Z</time>
      </trkpt>
      <trkpt lat="46.0173215623945" lon="8.6391980946064">
        <ele>1094.1199999999999</ele>
        <time>2014-06-08T10:10:44Z</time>
      </trkpt>
      <trkpt lat="46.017269678413868" lon="8.639174625277519">
        <ele>1094.1199999999999</ele>
        <time>2014-06-08T10:11:14Z</time>
      </trkpt>
      <trkpt lat="46.017347546294332" lon="8.639147132635117">
        <ele>1094.1199999999999</ele>
        <time>2014-06-08T10:11:40Z</time>
      </trkpt>
      <trkpt lat="46.01741150021553" lon="8.639260288327932">
        <ele>1097</ele>
        <time>2014-06-08T10:11:52Z</time>
      </trkpt>
      <trkpt lat="46.01741342805326" lon="8.639257103204727">
        <ele>1096.52</ele>
        <time>2014-06-08T10:12:11Z</time>
      </trkpt>
      <trkpt lat="46.017438070848584" lon="8.639271939173341">
        <ele>1097.96</ele>
        <time>2014-06-08T10:12:14Z</time>
      </trkpt>
      <trkpt lat="46.017467156052589" lon="8.639312004670501">
        <ele>1100.3699999999999</ele>
        <time>2014-06-08T10:12:30Z</time>
      </trkpt>
      <trkpt lat="46.017488362267613" lon="8.639306472614408">
        <ele>1102.77</ele>
        <time>2014-06-08T10:12:43Z</time>
      </trkpt>
      <trkpt lat="46.017527589574456" lon="8.639328014105558">
        <ele>1105.1700000000001</ele>
        <time>2014-06-08T10:12:55Z</time>
      </trkpt>
      <trkpt lat="46.017547119408846" lon="8.639319464564323">
        <ele>1106.6099999999999</ele>
        <time>2014-06-08T10:13:07Z</time>
      </trkpt>
      <trkpt lat="46.017549131065607" lon="8.63931979984045">
        <ele>1106.6099999999999</ele>
        <time>2014-06-08T10:13:08Z</time>
      </trkpt>
      <trkpt lat="46.017595315352082" lon="8.639310076832771">
        <ele>1109.5</ele>
        <time>2014-06-08T10:13:21Z</time>
      </trkpt>
      <trkpt lat="46.017607720568776" lon="8.639278057962656">
        <ele>1110.46</ele>
        <time>2014-06-08T10:13:36Z</time>
      </trkpt>
      <trkpt lat="46.017645439133048" lon="8.639205303043127">
        <ele>1113.3399999999999</ele>
        <time>2014-06-08T10:13:50Z</time>
      </trkpt>
      <trkpt lat="46.017655078321695" lon="8.639160208404064">
        <ele>1114.79</ele>
        <time>2014-06-08T10:14:04Z</time>
      </trkpt>
      <trkpt lat="46.017692042514682" lon="8.639120059087873">
        <ele>1117.1900000000001</ele>
        <time>2014-06-08T10:14:23Z</time>
      </trkpt>
      <trkpt lat="46.017721798270941" lon="8.639072366058826">
        <ele>1119.5899999999999</ele>
        <time>2014-06-08T10:14:35Z</time>
      </trkpt>
      <trkpt lat="46.017738729715347" lon="8.639019057154656">
        <ele>1122</ele>
        <time>2014-06-08T10:14:51Z</time>
      </trkpt>
      <trkpt lat="46.017749207094312" lon="8.638965832069516">
        <ele>1124.8800000000001</ele>
        <time>2014-06-08T10:15:10Z</time>
      </trkpt>
      <trkpt lat="46.0177843272686" lon="8.638937333598733">
        <ele>1127.76</ele>
        <time>2014-06-08T10:15:28Z</time>
      </trkpt>
      <trkpt lat="46.017800252884626" lon="8.638870948925614">
        <ele>1129.6900000000001</ele>
        <time>2014-06-08T10:15:47Z</time>
      </trkpt>
      <trkpt lat="46.017853058874607" lon="8.638835828751326">
        <ele>1132.0899999999999</ele>
        <time>2014-06-08T10:15:59Z</time>
      </trkpt>
      <trkpt lat="46.017881976440549" lon="8.638819316402078">
        <ele>1134.01</ele>
        <time>2014-06-08T10:16:14Z</time>
      </trkpt>
      <trkpt lat="46.017926568165421" lon="8.638800792396069">
        <ele>1135.9400000000001</ele>
        <time>2014-06-08T10:16:25Z</time>
      </trkpt>
      <trkpt lat="46.017942745238543" lon="8.638739855960012">
        <ele>1137.8599999999999</ele>
        <time>2014-06-08T10:16:38Z</time>
      </trkpt>
      <trkpt lat="46.017961269244552" lon="8.638669447973371">
        <ele>1139.78</ele>
        <time>2014-06-08T10:16:52Z</time>
      </trkpt>
      <trkpt lat="46.018013320863247" lon="8.638642122969031">
        <ele>1141.7</ele>
        <time>2014-06-08T10:17:06Z</time>
      </trkpt>
      <trkpt lat="46.018018098548055" lon="8.638705154880881">
        <ele>1142.6600000000001</ele>
        <time>2014-06-08T10:17:19Z</time>
      </trkpt>
      <trkpt lat="46.018022457137704" lon="8.638786543160677">
        <ele>1143.1400000000001</ele>
        <time>2014-06-08T10:17:27Z</time>
      </trkpt>
      <trkpt lat="46.018061265349388" lon="8.638963233679533">
        <ele>1145.55</ele>
        <time>2014-06-08T10:17:43Z</time>
      </trkpt>
      <trkpt lat="46.01809361949563" lon="8.639058033004403">
        <ele>1148.4300000000001</ele>
        <time>2014-06-08T10:17:55Z</time>
      </trkpt>
      <trkpt lat="46.018087081611156" lon="8.639149479568005">
        <ele>1148.4300000000001</ele>
        <time>2014-06-08T10:18:08Z</time>
      </trkpt>
      <trkpt lat="46.018090602010489" lon="8.639216618612409">
        <ele>1149.8699999999999</ele>
        <time>2014-06-08T10:18:25Z</time>
      </trkpt>
      <trkpt lat="46.018127063289285" lon="8.639316447079182">
        <ele>1153.24</ele>
        <time>2014-06-08T10:18:39Z</time>
      </trkpt>
      <trkpt lat="46.018170565366745" lon="8.63941459916532">
        <ele>1155.6400000000001</ele>
        <time>2014-06-08T10:18:54Z</time>
      </trkpt>
      <trkpt lat="46.018194453790784" lon="8.639366067945957">
        <ele>1158.05</ele>
        <time>2014-06-08T10:19:08Z</time>
      </trkpt>
      <trkpt lat="46.018246505409479" lon="8.639401104301214">
        <ele>1160.9300000000001</ele>
        <time>2014-06-08T10:19:23Z</time>
      </trkpt>
      <trkpt lat="46.018283888697624" lon="8.63943756558001">
        <ele>1162.3699999999999</ele>
        <time>2014-06-08T10:19:37Z</time>
      </trkpt>
      <trkpt lat="46.018327055498958" lon="8.639479894191027">
        <ele>1164.77</ele>
        <time>2014-06-08T10:19:51Z</time>
      </trkpt>
      <trkpt lat="46.018367791548371" lon="8.639457514509559">
        <ele>1166.22</ele>
        <time>2014-06-08T10:20:06Z</time>
      </trkpt>
      <trkpt lat="46.018395954743028" lon="8.639439241960645">
        <ele>1168.6199999999999</ele>
        <time>2014-06-08T10:20:20Z</time>
      </trkpt>
      <trkpt lat="46.018449096009135" lon="8.639423735439777">
        <ele>1171.5</ele>
        <time>2014-06-08T10:20:37Z</time>
      </trkpt>
      <trkpt lat="46.018501734361053" lon="8.639440666884184">
        <ele>1173.9100000000001</ele>
        <time>2014-06-08T10:20:49Z</time>
      </trkpt>
      <trkpt lat="46.018552528694272" lon="8.639485342428088">
        <ele>1176.79</ele>
        <time>2014-06-08T10:21:00Z</time>
      </trkpt>
      <trkpt lat="46.018613968044519" lon="8.63951425999403">
        <ele>1179.6700000000001</ele>
        <time>2014-06-08T10:21:14Z</time>
      </trkpt>
      <trkpt lat="46.018690913915634" lon="8.639560276642442">
        <ele>1182.5599999999999</ele>
        <time>2014-06-08T10:21:29Z</time>
      </trkpt>
      <trkpt lat="46.018752437084913" lon="8.639572095125914">
        <ele>1184</ele>
        <time>2014-06-08T10:21:43Z</time>
      </trkpt>
      <trkpt lat="46.018855115398765" lon="8.639588188380003">
        <ele>1187.3699999999999</ele>
        <time>2014-06-08T10:21:57Z</time>
      </trkpt>
      <trkpt lat="46.018949327990413" lon="8.639590200036764">
        <ele>1188.8099999999999</ele>
        <time>2014-06-08T10:22:14Z</time>
      </trkpt>
      <trkpt lat="46.01899609901011" lon="8.639576956629753">
        <ele>1191.21</ele>
        <time>2014-06-08T10:22:31Z</time>
      </trkpt>
      <trkpt lat="46.019022334367037" lon="8.63958508707583">
        <ele>1191.21</ele>
        <time>2014-06-08T10:22:51Z</time>
      </trkpt>
      <trkpt lat="46.019034152850509" lon="8.639537477865815">
        <ele>1191.21</ele>
        <time>2014-06-08T10:23:13Z</time>
      </trkpt>
      <trkpt lat="46.019068518653512" lon="8.639543680474162">
        <ele>1192.6500000000001</ele>
        <time>2014-06-08T10:23:25Z</time>
      </trkpt>
      <trkpt lat="46.019102968275547" lon="8.639531610533595">
        <ele>1195.54</ele>
        <time>2014-06-08T10:23:39Z</time>
      </trkpt>
      <trkpt lat="46.019155941903591" lon="8.639490958303213">
        <ele>1197.9400000000001</ele>
        <time>2014-06-08T10:23:55Z</time>
      </trkpt>
      <trkpt lat="46.019186284393072" lon="8.639467572793365">
        <ele>1198.9000000000001</ele>
        <time>2014-06-08T10:24:07Z</time>
      </trkpt>
      <trkpt lat="46.019205981865525" lon="8.639395069330931">
        <ele>1202.27</ele>
        <time>2014-06-08T10:24:22Z</time>
      </trkpt>
      <trkpt lat="46.019187960773706" lon="8.639344107359648">
        <ele>1203.71</ele>
        <time>2014-06-08T10:24:34Z</time>
      </trkpt>
      <trkpt lat="46.019164072349668" lon="8.639332875609398">
        <ele>1204.6700000000001</ele>
        <time>2014-06-08T10:24:45Z</time>
      </trkpt>
      <trkpt lat="46.01911973208189" lon="8.639260539785028">
        <ele>1207.0699999999999</ele>
        <time>2014-06-08T10:24:58Z</time>
      </trkpt>
      <trkpt lat="46.019083019345999" lon="8.639198765158653">
        <ele>1209</ele>
        <time>2014-06-08T10:25:11Z</time>
      </trkpt>
      <trkpt lat="46.019051251932979" lon="8.639148054644465">
        <ele>1210.9200000000001</ele>
        <time>2014-06-08T10:25:23Z</time>
      </trkpt>
      <trkpt lat="46.019041445106268" lon="8.639075383543968">
        <ele>1212.8399999999999</ele>
        <time>2014-06-08T10:25:36Z</time>
      </trkpt>
      <trkpt lat="46.018981849774718" lon="8.639037581160665">
        <ele>1214.76</ele>
        <time>2014-06-08T10:25:49Z</time>
      </trkpt>
      <trkpt lat="46.018984196707606" lon="8.639041520655155">
        <ele>1215.24</ele>
        <time>2014-06-08T10:26:04Z</time>
      </trkpt>
      <trkpt lat="46.018995931372046" lon="8.638977650552988">
        <ele>1215.72</ele>
        <time>2014-06-08T10:26:25Z</time>
      </trkpt>
      <trkpt lat="46.019071871414781" lon="8.638921575620771">
        <ele>1218.6099999999999</ele>
        <time>2014-06-08T10:26:38Z</time>
      </trkpt>
      <trkpt lat="46.01909969933331" lon="8.638902045786381">
        <ele>1219.5699999999999</ele>
        <time>2014-06-08T10:26:42Z</time>
      </trkpt>
      <trkpt lat="46.019190475344658" lon="8.638846222311258">
        <ele>1222.9300000000001</ele>
        <time>2014-06-08T10:26:55Z</time>
      </trkpt>
      <trkpt lat="46.019178656861186" lon="8.638761229813099">
        <ele>1224.8599999999999</ele>
        <time>2014-06-08T10:27:05Z</time>
      </trkpt>
      <trkpt lat="46.019214196130633" lon="8.638749746605754">
        <ele>1226.3</ele>
        <time>2014-06-08T10:27:18Z</time>
      </trkpt>
      <trkpt lat="46.019244203343987" lon="8.638697024434805">
        <ele>1228.7</ele>
        <time>2014-06-08T10:27:31Z</time>
      </trkpt>
      <trkpt lat="46.019262727349997" lon="8.638611696660519">
        <ele>1232.0699999999999</ele>
        <time>2014-06-08T10:27:47Z</time>
      </trkpt>
      <trkpt lat="46.019293991848826" lon="8.63854430615902">
        <ele>1235.4300000000001</ele>
        <time>2014-06-08T10:28:00Z</time>
      </trkpt>
      <trkpt lat="46.019349144771695" lon="8.638460738584399">
        <ele>1237.8299999999999</ele>
        <time>2014-06-08T10:28:16Z</time>
      </trkpt>
      <trkpt lat="46.019354341551661" lon="8.638359317556024">
        <ele>1240.72</ele>
        <time>2014-06-08T10:28:30Z</time>
      </trkpt>
      <trkpt lat="46.019408907741308" lon="8.638326795771718">
        <ele>1243.5999999999999</ele>
        <time>2014-06-08T10:28:43Z</time>
      </trkpt>
      <trkpt lat="46.019440842792392" lon="8.638270469382405">
        <ele>1246.49</ele>
        <time>2014-06-08T10:28:56Z</time>
      </trkpt>
      <trkpt lat="46.019445955753326" lon="8.638203581795096">
        <ele>1249.8499999999999</ele>
        <time>2014-06-08T10:29:08Z</time>
      </trkpt>
      <trkpt lat="46.019482584670186" lon="8.638196289539337">
        <ele>1251.77</ele>
        <time>2014-06-08T10:29:21Z</time>
      </trkpt>
      <trkpt lat="46.019518543034792" lon="8.638242222368717">
        <ele>1251.77</ele>
        <time>2014-06-08T10:29:36Z</time>
      </trkpt>
      <trkpt lat="46.019521476700902" lon="8.638245323672891">
        <ele>1250.8099999999999</ele>
        <time>2014-06-08T10:29:47Z</time>
      </trkpt>
      <trkpt lat="46.019538575783372" lon="8.638241551816464">
        <ele>1251.29</ele>
        <time>2014-06-08T10:30:14Z</time>
      </trkpt>
      <trkpt lat="46.019542515277863" lon="8.638232918456197">
        <ele>1251.29</ele>
        <time>2014-06-08T10:30:42Z</time>
      </trkpt>
      <trkpt lat="46.019542934373021" lon="8.638231577351689">
        <ele>1251.29</ele>
        <time>2014-06-08T10:31:25Z</time>
      </trkpt>
      <trkpt lat="46.019543102011085" lon="8.638236438855529">
        <ele>1251.29</ele>
        <time>2014-06-08T10:32:07Z</time>
      </trkpt>
      <trkpt lat="46.019538575783372" lon="8.638243228197098">
        <ele>1251.29</ele>
        <time>2014-06-08T10:32:38Z</time>
      </trkpt>
      <trkpt lat="46.019543185830116" lon="8.638235181570053">
        <ele>1251.29</ele>
        <time>2014-06-08T10:33:12Z</time>
      </trkpt>
      <trkpt lat="46.01953212171793" lon="8.63825554959476">
        <ele>1252.25</ele>
        <time>2014-06-08T10:33:44Z</time>
      </trkpt>
      <trkpt lat="46.019524997100234" lon="8.638276169076562">
        <ele>1252.25</ele>
        <time>2014-06-08T10:33:57Z</time>
      </trkpt>
      <trkpt lat="46.019569421187043" lon="8.638307768851519">
        <ele>1252.25</ele>
        <time>2014-06-08T10:34:12Z</time>
      </trkpt>
      <trkpt lat="46.019552070647478" lon="8.638311456888914">
        <ele>1252.25</ele>
        <time>2014-06-08T10:34:26Z</time>
      </trkpt>
      <trkpt lat="46.019577635452151" lon="8.638357222080231">
        <ele>1252.25</ele>
        <time>2014-06-08T10:34:41Z</time>
      </trkpt>
      <trkpt lat="46.019566152244806" lon="8.638356970623136">
        <ele>1252.25</ele>
        <time>2014-06-08T10:34:56Z</time>
      </trkpt>
      <trkpt lat="46.019604541361332" lon="8.638387899845839">
        <ele>1252.74</ele>
        <time>2014-06-08T10:35:16Z</time>
      </trkpt>
      <trkpt lat="46.019667321816087" lon="8.638417571783066">
        <ele>1252.74</ele>
        <time>2014-06-08T10:35:23Z</time>
      </trkpt>
      <trkpt lat="46.019691210240126" lon="8.6384382750839">
        <ele>1250.8099999999999</ele>
        <time>2014-06-08T10:35:26Z</time>
      </trkpt>
      <trkpt lat="46.019759858027101" lon="8.638472808524966">
        <ele>1252.25</ele>
        <time>2014-06-08T10:35:35Z</time>
      </trkpt>
      <trkpt lat="46.019882820546627" lon="8.638516562059522">
        <ele>1252.74</ele>
        <time>2014-06-08T10:35:49Z</time>
      </trkpt>
      <trkpt lat="46.020016092807055" lon="8.638583868741989">
        <ele>1253.22</ele>
        <time>2014-06-08T10:36:06Z</time>
      </trkpt>
      <trkpt lat="46.020220862701535" lon="8.63871093839407">
        <ele>1253.22</ele>
        <time>2014-06-08T10:36:26Z</time>
      </trkpt>
      <trkpt lat="46.020229244604707" lon="8.638716051355004">
        <ele>1253.22</ele>
        <time>2014-06-08T10:36:27Z</time>
      </trkpt>
      <trkpt lat="46.020360169932246" lon="8.638909002766013">
        <ele>1253.7</ele>
        <time>2014-06-08T10:36:45Z</time>
      </trkpt>
      <trkpt lat="46.020509703084826" lon="8.639179654419422">
        <ele>1253.7</ele>
        <time>2014-06-08T10:37:04Z</time>
      </trkpt>
      <trkpt lat="46.020571142435074" lon="8.639439912512898">
        <ele>1254.1800000000001</ele>
        <time>2014-06-08T10:37:21Z</time>
      </trkpt>
      <trkpt lat="46.020669545978308" lon="8.639657171443105">
        <ele>1253.7</ele>
        <time>2014-06-08T10:37:38Z</time>
      </trkpt>
      <trkpt lat="46.020760741084814" lon="8.639938551932573">
        <ele>1253.7</ele>
        <time>2014-06-08T10:37:58Z</time>
      </trkpt>
      <trkpt lat="46.020792676135898" lon="8.640178274363279">
        <ele>1253.7</ele>
        <time>2014-06-08T10:38:14Z</time>
      </trkpt>
      <trkpt lat="46.020805165171623" lon="8.640434090048075">
        <ele>1253.7</ele>
        <time>2014-06-08T10:38:30Z</time>
      </trkpt>
      <trkpt lat="46.020878003910184" lon="8.640683451667428">
        <ele>1253.7</ele>
        <time>2014-06-08T10:38:48Z</time>
      </trkpt>
      <trkpt lat="46.020925948396325" lon="8.640950499102473">
        <ele>1254.1800000000001</ele>
        <time>2014-06-08T10:39:05Z</time>
      </trkpt>
      <trkpt lat="46.02092326618731" lon="8.641096511855722">
        <ele>1254.1800000000001</ele>
        <time>2014-06-08T10:39:14Z</time>
      </trkpt>
      <trkpt lat="46.020919913426042" lon="8.641140684485436">
        <ele>1254.1800000000001</ele>
        <time>2014-06-08T10:39:17Z</time>
      </trkpt>
      <trkpt lat="46.020977916195989" lon="8.641325673088431">
        <ele>1254.1800000000001</ele>
        <time>2014-06-08T10:39:30Z</time>
      </trkpt>
      <trkpt lat="46.021032482385635" lon="8.641593139618635">
        <ele>1254.1800000000001</ele>
        <time>2014-06-08T10:39:47Z</time>
      </trkpt>
      <trkpt lat="46.02113583125174" lon="8.641873430460692">
        <ele>1254.1800000000001</ele>
        <time>2014-06-08T10:40:07Z</time>
      </trkpt>
      <trkpt lat="46.021165838465095" lon="8.642051629722118">
        <ele>1254.1800000000001</ele>
        <time>2014-06-08T10:40:21Z</time>
      </trkpt>
      <trkpt lat="46.021188553422689" lon="8.642085995525122">
        <ele>1254.1800000000001</ele>
        <time>2014-06-08T10:40:32Z</time>
      </trkpt>
      <trkpt lat="46.021177908405662" lon="8.642093287780881">
        <ele>1254.6600000000001</ele>
        <time>2014-06-08T10:40:51Z</time>
      </trkpt>
      <trkpt lat="46.02116365917027" lon="8.642090437933803">
        <ele>1254.6600000000001</ele>
        <time>2014-06-08T10:41:08Z</time>
      </trkpt>
      <trkpt lat="46.021176986396313" lon="8.642046852037311">
        <ele>1254.6600000000001</ele>
        <time>2014-06-08T10:41:21Z</time>
      </trkpt>
      <trkpt lat="46.021190397441387" lon="8.642061771824956">
        <ele>1254.6600000000001</ele>
        <time>2014-06-08T10:41:32Z</time>
      </trkpt>
      <trkpt lat="46.021190397441387" lon="8.64208054728806">
        <ele>1256.0999999999999</ele>
        <time>2014-06-08T10:41:42Z</time>
      </trkpt>
      <trkpt lat="46.02118126116693" lon="8.642193535342813">
        <ele>1257.0599999999999</ele>
        <time>2014-06-08T10:41:59Z</time>
      </trkpt>
      <trkpt lat="46.021166341379285" lon="8.642187751829624">
        <ele>1257.0599999999999</ele>
        <time>2014-06-08T10:42:19Z</time>
      </trkpt>
      <trkpt lat="46.021193498745561" lon="8.642181549221277">
        <ele>1257.0599999999999</ele>
        <time>2014-06-08T10:42:38Z</time>
      </trkpt>
      <trkpt lat="46.021186877042055" lon="8.642169144004583">
        <ele>1257.0599999999999</ele>
        <time>2014-06-08T10:42:59Z</time>
      </trkpt>
      <trkpt lat="46.021161647513509" lon="8.642166713252664">
        <ele>1257.54</ele>
        <time>2014-06-08T10:43:39Z</time>
      </trkpt>
      <trkpt lat="46.021169107407331" lon="8.642183812335134">
        <ele>1258.02</ele>
        <time>2014-06-08T10:44:01Z</time>
      </trkpt>
      <trkpt lat="46.021185955032706" lon="8.642207449302077">
        <ele>1258.5</ele>
        <time>2014-06-08T10:44:24Z</time>
      </trkpt>
      <trkpt lat="46.021169694140553" lon="8.642260087653995">
        <ele>1258.02</ele>
        <time>2014-06-08T10:44:42Z</time>
      </trkpt>
      <trkpt lat="46.021155947819352" lon="8.642268804833293">
        <ele>1257.54</ele>
        <time>2014-06-08T10:44:55Z</time>
      </trkpt>
      <trkpt lat="46.021139100193977" lon="8.642292022705078">
        <ele>1256.5799999999999</ele>
        <time>2014-06-08T10:45:17Z</time>
      </trkpt>
      <trkpt lat="46.02110012434423" lon="8.642468713223934">
        <ele>1256.0999999999999</ele>
        <time>2014-06-08T10:45:33Z</time>
      </trkpt>
      <trkpt lat="46.021099956706166" lon="8.642650349065661">
        <ele>1258.02</ele>
        <time>2014-06-08T10:45:52Z</time>
      </trkpt>
      <trkpt lat="46.021153014153242" lon="8.642722768709064">
        <ele>1259.9400000000001</ele>
        <time>2014-06-08T10:46:08Z</time>
      </trkpt>
      <trkpt lat="46.021145889535546" lon="8.642598129808903">
        <ele>1262.3499999999999</ele>
        <time>2014-06-08T10:46:22Z</time>
      </trkpt>
      <trkpt lat="46.021156702190638" lon="8.642590502277017">
        <ele>1262.3499999999999</ele>
        <time>2014-06-08T10:46:45Z</time>
      </trkpt>
      <trkpt lat="46.021153014153242" lon="8.642600057646632">
        <ele>1262.8299999999999</ele>
        <time>2014-06-08T10:47:03Z</time>
      </trkpt>
      <trkpt lat="46.021155528724194" lon="8.642587149515748">
        <ele>1261.8699999999999</ele>
        <time>2014-06-08T10:47:17Z</time>
      </trkpt>
      <trkpt lat="46.021141782402992" lon="8.642585054039955">
        <ele>1261.3900000000001</ele>
        <time>2014-06-08T10:47:37Z</time>
      </trkpt>
      <trkpt lat="46.021138429641724" lon="8.642603075131774">
        <ele>1261.3900000000001</ele>
        <time>2014-06-08T10:48:04Z</time>
      </trkpt>
      <trkpt lat="46.021142201498151" lon="8.642605924978852">
        <ele>1261.8699999999999</ele>
        <time>2014-06-08T10:48:23Z</time>
      </trkpt>
      <trkpt lat="46.021141447126865" lon="8.642584048211575">
        <ele>1261.8699999999999</ele>
        <time>2014-06-08T10:48:49Z</time>
      </trkpt>
      <trkpt lat="46.021177656948566" lon="8.642597626894712">
        <ele>1261.8699999999999</ele>
        <time>2014-06-08T10:49:13Z</time>
      </trkpt>
      <trkpt lat="46.021167179569602" lon="8.642586646601558">
        <ele>1261.8699999999999</ele>
        <time>2014-06-08T10:49:52Z</time>
      </trkpt>
      <trkpt lat="46.021159300580621" lon="8.642591927200556">
        <ele>1262.8299999999999</ele>
        <time>2014-06-08T10:50:08Z</time>
      </trkpt>
      <trkpt lat="46.0211690235883" lon="8.642600728198886">
        <ele>1262.3499999999999</ele>
        <time>2014-06-08T10:50:22Z</time>
      </trkpt>
      <trkpt lat="46.021152175962925" lon="8.64259704016149">
        <ele>1261.8699999999999</ele>
        <time>2014-06-08T10:50:36Z</time>
      </trkpt>
      <trkpt lat="46.021206323057413" lon="8.642608691006899">
        <ele>1262.3499999999999</ele>
        <time>2014-06-08T10:51:11Z</time>
      </trkpt>
      <trkpt lat="46.021183356642723" lon="8.642576336860657">
        <ele>1262.8299999999999</ele>
        <time>2014-06-08T10:51:42Z</time>
      </trkpt>
      <trkpt lat="46.021210597828031" lon="8.642559656873345">
        <ele>1262.8299999999999</ele>
        <time>2014-06-08T10:52:16Z</time>
      </trkpt>
      <trkpt lat="46.021199533715844" lon="8.642556890845299">
        <ele>1262.8299999999999</ele>
        <time>2014-06-08T10:52:52Z</time>
      </trkpt>
      <trkpt lat="46.021197270601988" lon="8.642559656873345">
        <ele>1263.3099999999999</ele>
        <time>2014-06-08T10:53:20Z</time>
      </trkpt>
      <trkpt lat="46.02118419483304" lon="8.642523027956486">
        <ele>1263.3099999999999</ele>
        <time>2014-06-08T10:53:55Z</time>
      </trkpt>
      <trkpt lat="46.021172879263759" lon="8.64250953309238">
        <ele>1263.3099999999999</ele>
        <time>2014-06-08T10:54:33Z</time>
      </trkpt>
      <trkpt lat="46.021192744374275" lon="8.642488159239292">
        <ele>1263.79</ele>
        <time>2014-06-08T10:55:00Z</time>
      </trkpt>
      <trkpt lat="46.021190984174609" lon="8.642518585547805">
        <ele>1263.79</ele>
        <time>2014-06-08T10:55:31Z</time>
      </trkpt>
      <trkpt lat="46.021184781566262" lon="8.642560495063663">
        <ele>1264.27</ele>
        <time>2014-06-08T10:56:10Z</time>
      </trkpt>
      <trkpt lat="46.021160809323192" lon="8.642580192536116">
        <ele>1264.27</ele>
        <time>2014-06-08T10:56:45Z</time>
      </trkpt>
      <trkpt lat="46.021165167912841" lon="8.642553789541125">
        <ele>1264.27</ele>
        <time>2014-06-08T10:57:28Z</time>
      </trkpt>
      <trkpt lat="46.021176148205996" lon="8.642572900280356">
        <ele>1264.27</ele>
        <time>2014-06-08T10:58:03Z</time>
      </trkpt>
      <trkpt lat="46.021168436855078" lon="8.642579354345799">
        <ele>1264.27</ele>
        <time>2014-06-08T10:58:43Z</time>
      </trkpt>
      <trkpt lat="46.021176232025027" lon="8.642571642994881">
        <ele>1264.75</ele>
        <time>2014-06-08T10:59:25Z</time>
      </trkpt>
      <trkpt lat="46.021169442683458" lon="8.64255940541625">
        <ele>1264.75</ele>
        <time>2014-06-08T11:00:08Z</time>
      </trkpt>
      <trkpt lat="46.021175226196647" lon="8.642546832561493">
        <ele>1264.75</ele>
        <time>2014-06-08T11:00:46Z</time>
      </trkpt>
      <trkpt lat="46.02117438800633" lon="8.642577929422259">
        <ele>1265.23</ele>
        <time>2014-06-08T11:01:29Z</time>
      </trkpt>
      <trkpt lat="46.021171202883124" lon="8.642574828118086">
        <ele>1265.23</ele>
        <time>2014-06-08T11:02:06Z</time>
      </trkpt>
      <trkpt lat="46.021159384399652" lon="8.64256476983428">
        <ele>1265.23</ele>
        <time>2014-06-08T11:02:43Z</time>
      </trkpt>
      <trkpt lat="46.02116365917027" lon="8.642584718763828">
        <ele>1265.23</ele>
        <time>2014-06-08T11:03:16Z</time>
      </trkpt>
      <trkpt lat="46.021170616149902" lon="8.642575079575181">
        <ele>1265.71</ele>
        <time>2014-06-08T11:03:55Z</time>
      </trkpt>
      <trkpt lat="46.021184027194977" lon="8.642533337697387">
        <ele>1265.71</ele>
        <time>2014-06-08T11:04:32Z</time>
      </trkpt>
      <trkpt lat="46.02118025533855" lon="8.642569212242961">
        <ele>1265.71</ele>
        <time>2014-06-08T11:05:09Z</time>
      </trkpt>
      <trkpt lat="46.021177405491471" lon="8.642619671300054">
        <ele>1265.71</ele>
        <time>2014-06-08T11:05:46Z</time>
      </trkpt>
      <trkpt lat="46.021148823201656" lon="8.642587317153812">
        <ele>1265.71</ele>
        <time>2014-06-08T11:06:28Z</time>
      </trkpt>
      <trkpt lat="46.021172376349568" lon="8.642602656036615">
        <ele>1265.71</ele>
        <time>2014-06-08T11:07:09Z</time>
      </trkpt>
      <trkpt lat="46.021200455725193" lon="8.642600812017918">
        <ele>1265.71</ele>
        <time>2014-06-08T11:07:40Z</time>
      </trkpt>
      <trkpt lat="46.021200371906161" lon="8.642572229728103">
        <ele>1265.71</ele>
        <time>2014-06-08T11:08:13Z</time>
      </trkpt>
      <trkpt lat="46.021212106570601" lon="8.642578264698386">
        <ele>1265.71</ele>
        <time>2014-06-08T11:08:45Z</time>
      </trkpt>
      <trkpt lat="46.021186038851738" lon="8.642593100667">
        <ele>1266.1900000000001</ele>
        <time>2014-06-08T11:09:20Z</time>
      </trkpt>
      <trkpt lat="46.021192241460085" lon="8.642595363780856">
        <ele>1265.71</ele>
        <time>2014-06-08T11:10:07Z</time>
      </trkpt>
      <trkpt lat="46.021187715232372" lon="8.642556890845299">
        <ele>1265.71</ele>
        <time>2014-06-08T11:10:54Z</time>
      </trkpt>
      <trkpt lat="46.021183943375945" lon="8.642557058483362">
        <ele>1265.71</ele>
        <time>2014-06-08T11:11:38Z</time>
      </trkpt>
      <trkpt lat="46.021193331107497" lon="8.642560327425599">
        <ele>1266.1900000000001</ele>
        <time>2014-06-08T11:12:20Z</time>
      </trkpt>
      <trkpt lat="46.021195510402322" lon="8.642554208636284">
        <ele>1266.1900000000001</ele>
        <time>2014-06-08T11:13:02Z</time>
      </trkpt>
      <trkpt lat="46.021179081872106" lon="8.642569966614246">
        <ele>1267.1600000000001</ele>
        <time>2014-06-08T11:13:40Z</time>
      </trkpt>
      <trkpt lat="46.02117296308279" lon="8.642598129808903">
        <ele>1266.6700000000001</ele>
        <time>2014-06-08T11:14:22Z</time>
      </trkpt>
      <trkpt lat="46.021172292530537" lon="8.642616486176848">
        <ele>1266.1900000000001</ele>
        <time>2014-06-08T11:15:04Z</time>
      </trkpt>
      <trkpt lat="46.021173298358917" lon="8.642594022676349">
        <ele>1266.1900000000001</ele>
        <time>2014-06-08T11:15:42Z</time>
      </trkpt>
      <trkpt lat="46.021167011931539" lon="8.642588742077351">
        <ele>1266.1900000000001</ele>
        <time>2014-06-08T11:16:24Z</time>
      </trkpt>
      <trkpt lat="46.021154187619686" lon="8.642545491456986">
        <ele>1266.1900000000001</ele>
        <time>2014-06-08T11:17:07Z</time>
      </trkpt>
      <trkpt lat="46.021180422976613" lon="8.642615983262658">
        <ele>1266.1900000000001</ele>
        <time>2014-06-08T11:17:55Z</time>
      </trkpt>
      <trkpt lat="46.021168269217014" lon="8.642571642994881">
        <ele>1266.1900000000001</ele>
        <time>2014-06-08T11:18:37Z</time>
      </trkpt>
      <trkpt lat="46.021154606714845" lon="8.642562925815582">
        <ele>1266.1900000000001</ele>
        <time>2014-06-08T11:19:15Z</time>
      </trkpt>
      <trkpt lat="46.021152175962925" lon="8.642559824511409">
        <ele>1266.1900000000001</ele>
        <time>2014-06-08T11:19:55Z</time>
      </trkpt>
      <trkpt lat="46.021157959476113" lon="8.642635848373175">
        <ele>1266.1900000000001</ele>
        <time>2014-06-08T11:20:32Z</time>
      </trkpt>
      <trkpt lat="46.021149326115847" lon="8.642604080960155">
        <ele>1265.71</ele>
        <time>2014-06-08T11:21:14Z</time>
      </trkpt>
      <trkpt lat="46.021165167912841" lon="8.642620593309403">
        <ele>1265.71</ele>
        <time>2014-06-08T11:21:49Z</time>
      </trkpt>
      <trkpt lat="46.021161312237382" lon="8.642577677965164">
        <ele>1265.71</ele>
        <time>2014-06-08T11:22:34Z</time>
      </trkpt>
      <trkpt lat="46.021154522895813" lon="8.642594274133444">
        <ele>1265.23</ele>
        <time>2014-06-08T11:23:10Z</time>
      </trkpt>
      <trkpt lat="46.021150164306164" lon="8.642606595531106">
        <ele>1265.71</ele>
        <time>2014-06-08T11:23:50Z</time>
      </trkpt>
      <trkpt lat="46.021150583401322" lon="8.642579857259989">
        <ele>1265.23</ele>
        <time>2014-06-08T11:24:34Z</time>
      </trkpt>
      <trkpt lat="46.021152678877115" lon="8.642572229728103">
        <ele>1265.71</ele>
        <time>2014-06-08T11:25:18Z</time>
      </trkpt>
      <trkpt lat="46.021157037466764" lon="8.642567787319422">
        <ele>1265.23</ele>
        <time>2014-06-08T11:25:53Z</time>
      </trkpt>
      <trkpt lat="46.021165167912841" lon="8.642594609409571">
        <ele>1265.23</ele>
        <time>2014-06-08T11:26:30Z</time>
      </trkpt>
      <trkpt lat="46.021147901192307" lon="8.642569798976183">
        <ele>1265.23</ele>
        <time>2014-06-08T11:27:07Z</time>
      </trkpt>
      <trkpt lat="46.02116416208446" lon="8.642610535025597">
        <ele>1265.23</ele>
        <time>2014-06-08T11:27:42Z</time>
      </trkpt>
      <trkpt lat="46.021155528724194" lon="8.642576588317752">
        <ele>1265.23</ele>
        <time>2014-06-08T11:28:16Z</time>
      </trkpt>
      <trkpt lat="46.0211465600878" lon="8.642596201971173">
        <ele>1265.23</ele>
        <time>2014-06-08T11:29:02Z</time>
      </trkpt>
      <trkpt lat="46.02115779183805" lon="8.642591508105397">
        <ele>1265.23</ele>
        <time>2014-06-08T11:29:45Z</time>
      </trkpt>
      <trkpt lat="46.021157875657082" lon="8.642592178657651">
        <ele>1265.23</ele>
        <time>2014-06-08T11:30:28Z</time>
      </trkpt>
      <trkpt lat="46.02115485817194" lon="8.642595866695046">
        <ele>1265.23</ele>
        <time>2014-06-08T11:31:12Z</time>
      </trkpt>
      <trkpt lat="46.021148068830371" lon="8.642583461478353">
        <ele>1265.23</ele>
        <time>2014-06-08T11:32:04Z</time>
      </trkpt>
      <trkpt lat="46.021153684705496" lon="8.642534930258989">
        <ele>1265.23</ele>
        <time>2014-06-08T11:32:50Z</time>
      </trkpt>
      <trkpt lat="46.021143291145563" lon="8.642520178109407">
        <ele>1265.23</ele>
        <time>2014-06-08T11:33:27Z</time>
      </trkpt>
      <trkpt lat="46.021157540380955" lon="8.642574157565832">
        <ele>1265.71</ele>
        <time>2014-06-08T11:34:11Z</time>
      </trkpt>
      <trkpt lat="46.02115435525775" lon="8.642597543075681">
        <ele>1265.71</ele>
        <time>2014-06-08T11:34:53Z</time>
      </trkpt>
      <trkpt lat="46.021153433248401" lon="8.642607936635613">
        <ele>1265.71</ele>
        <time>2014-06-08T11:35:28Z</time>
      </trkpt>
      <trkpt lat="46.021174639463425" lon="8.642546162009239">
        <ele>1265.23</ele>
        <time>2014-06-08T11:36:08Z</time>
      </trkpt>
      <trkpt lat="46.021169358864427" lon="8.6425154004246">
        <ele>1265.23</ele>
        <time>2014-06-08T11:36:46Z</time>
      </trkpt>
      <trkpt lat="46.021153936162591" lon="8.642554543912411">
        <ele>1265.71</ele>
        <time>2014-06-08T11:37:25Z</time>
      </trkpt>
      <trkpt lat="46.021147649735212" lon="8.642523027956486">
        <ele>1265.71</ele>
        <time>2014-06-08T11:38:11Z</time>
      </trkpt>
      <trkpt lat="46.021154103800654" lon="8.642514562234283">
        <ele>1265.71</ele>
        <time>2014-06-08T11:38:42Z</time>
      </trkpt>
      <trkpt lat="46.021156869828701" lon="8.642558567225933">
        <ele>1265.71</ele>
        <time>2014-06-08T11:39:22Z</time>
      </trkpt>
      <trkpt lat="46.021158546209335" lon="8.642568793147802">
        <ele>1265.23</ele>
        <time>2014-06-08T11:39:40Z</time>
      </trkpt>
      <trkpt lat="46.021160054951906" lon="8.64257013425231">
        <ele>1267.1600000000001</ele>
        <time>2014-06-08T11:39:47Z</time>
      </trkpt>
      <trkpt lat="46.021158462390304" lon="8.642560327425599">
        <ele>1266.6700000000001</ele>
        <time>2014-06-08T11:40:02Z</time>
      </trkpt>
      <trkpt lat="46.021157875657082" lon="8.642565943300724">
        <ele>1266.6700000000001</ele>
        <time>2014-06-08T11:40:19Z</time>
      </trkpt>
      <trkpt lat="46.021168185397983" lon="8.642560830339789">
        <ele>1266.6700000000001</ele>
        <time>2014-06-08T11:40:37Z</time>
      </trkpt>
      <trkpt lat="46.021174471825361" lon="8.642606846988201">
        <ele>1266.6700000000001</ele>
        <time>2014-06-08T11:40:50Z</time>
      </trkpt>
      <trkpt lat="46.021161898970604" lon="8.642622185871005">
        <ele>1266.6700000000001</ele>
        <time>2014-06-08T11:41:04Z</time>
      </trkpt>
      <trkpt lat="46.021142285317183" lon="8.642643308266997">
        <ele>1266.1900000000001</ele>
        <time>2014-06-08T11:41:21Z</time>
      </trkpt>
      <trkpt lat="46.021133149042726" lon="8.642668034881353">
        <ele>1266.1900000000001</ele>
        <time>2014-06-08T11:41:50Z</time>
      </trkpt>
      <trkpt lat="46.021129712462425" lon="8.642689408734441">
        <ele>1266.1900000000001</ele>
        <time>2014-06-08T11:42:16Z</time>
      </trkpt>
      <trkpt lat="46.021127784624696" lon="8.642673650756478">
        <ele>1266.1900000000001</ele>
        <time>2014-06-08T11:42:29Z</time>
      </trkpt>
      <trkpt lat="46.021132729947567" lon="8.642677841708064">
        <ele>1265.71</ele>
        <time>2014-06-08T11:42:32Z</time>
      </trkpt>
      <trkpt lat="46.021142201498151" lon="8.642767276614904">
        <ele>1264.75</ele>
        <time>2014-06-08T11:42:41Z</time>
      </trkpt>
      <trkpt lat="46.021087551489472" lon="8.642907673493028">
        <ele>1266.6700000000001</ele>
        <time>2014-06-08T11:42:57Z</time>
      </trkpt>
      <trkpt lat="46.021071542054415" lon="8.643070785328746">
        <ele>1269.5599999999999</ele>
        <time>2014-06-08T11:43:11Z</time>
      </trkpt>
      <trkpt lat="46.021078247576952" lon="8.643251331523061">
        <ele>1271.48</ele>
        <time>2014-06-08T11:43:27Z</time>
      </trkpt>
      <trkpt lat="46.02106299251318" lon="8.643394829705358">
        <ele>1274.3599999999999</ele>
        <time>2014-06-08T11:43:45Z</time>
      </trkpt>
      <trkpt lat="46.021080259233713" lon="8.643558612093329">
        <ele>1277.25</ele>
        <time>2014-06-08T11:44:01Z</time>
      </trkpt>
      <trkpt lat="46.021078834310174" lon="8.643654668703675">
        <ele>1278.6900000000001</ele>
        <time>2014-06-08T11:44:15Z</time>
      </trkpt>
      <trkpt lat="46.021100040525198" lon="8.643700601533055">
        <ele>1278.6900000000001</ele>
        <time>2014-06-08T11:44:23Z</time>
      </trkpt>
      <trkpt lat="46.021107081323862" lon="8.643842255696654">
        <ele>1280.6099999999999</ele>
        <time>2014-06-08T11:44:37Z</time>
      </trkpt>
      <trkpt lat="46.02111579850316" lon="8.643875448033214">
        <ele>1280.6099999999999</ele>
        <time>2014-06-08T11:44:40Z</time>
      </trkpt>
      <trkpt lat="46.021121665835381" lon="8.643914591521025">
        <ele>1280.6099999999999</ele>
        <time>2014-06-08T11:44:42Z</time>
      </trkpt>
      <trkpt lat="46.021141698583961" lon="8.644183231517673">
        <ele>1283.98</ele>
        <time>2014-06-08T11:44:57Z</time>
      </trkpt>
      <trkpt lat="46.021142369136214" lon="8.644263697788119">
        <ele>1287.3399999999999</ele>
        <time>2014-06-08T11:45:08Z</time>
      </trkpt>
      <trkpt lat="46.021163407713175" lon="8.644367046654224">
        <ele>1290.23</ele>
        <time>2014-06-08T11:45:23Z</time>
      </trkpt>
      <trkpt lat="46.021188301965594" lon="8.644458493217826">
        <ele>1292.6300000000001</ele>
        <time>2014-06-08T11:45:36Z</time>
      </trkpt>
      <trkpt lat="46.021233312785625" lon="8.644571145996451">
        <ele>1294.55</ele>
        <time>2014-06-08T11:45:48Z</time>
      </trkpt>
      <trkpt lat="46.021251585334539" lon="8.644678769633174">
        <ele>1296.48</ele>
        <time>2014-06-08T11:46:03Z</time>
      </trkpt>
      <trkpt lat="46.021293997764587" lon="8.644795026630163">
        <ele>1297.4400000000001</ele>
        <time>2014-06-08T11:46:16Z</time>
      </trkpt>
      <trkpt lat="46.021252423524857" lon="8.644898124039173">
        <ele>1300.8</ele>
        <time>2014-06-08T11:46:27Z</time>
      </trkpt>
      <trkpt lat="46.021218812093139" lon="8.644956881180406">
        <ele>1301.76</ele>
        <time>2014-06-08T11:46:43Z</time>
      </trkpt>
      <trkpt lat="46.021238509565592" lon="8.644947493448854">
        <ele>1302.24</ele>
        <time>2014-06-08T11:46:58Z</time>
      </trkpt>
      <trkpt lat="46.021279161795974" lon="8.645024858415127">
        <ele>1306.0899999999999</ele>
        <time>2014-06-08T11:47:09Z</time>
      </trkpt>
      <trkpt lat="46.021293662488461" lon="8.645109431818128">
        <ele>1309.45</ele>
        <time>2014-06-08T11:47:20Z</time>
      </trkpt>
      <trkpt lat="46.021309671923518" lon="8.645141534507275">
        <ele>1310.4100000000001</ele>
        <time>2014-06-08T11:47:26Z</time>
      </trkpt>
      <trkpt lat="46.021353844553232" lon="8.645245470106602">
        <ele>1313.3</ele>
        <time>2014-06-08T11:47:40Z</time>
      </trkpt>
      <trkpt lat="46.021392485126853" lon="8.645333899185062">
        <ele>1315.22</ele>
        <time>2014-06-08T11:47:51Z</time>
      </trkpt>
      <trkpt lat="46.021402208134532" lon="8.645345717668533">
        <ele>1315.7</ele>
        <time>2014-06-08T11:47:53Z</time>
      </trkpt>
      <trkpt lat="46.021459121257067" lon="8.645501034334302">
        <ele>1315.7</ele>
        <time>2014-06-08T11:48:06Z</time>
      </trkpt>
      <trkpt lat="46.021464318037033" lon="8.645549733191729">
        <ele>1315.7</ele>
        <time>2014-06-08T11:48:21Z</time>
      </trkpt>
      <trkpt lat="46.02149985730648" lon="8.645581668242812">
        <ele>1315.7</ele>
        <time>2014-06-08T11:48:41Z</time>
      </trkpt>
      <trkpt lat="46.021520895883441" lon="8.645573118701577">
        <ele>1315.22</ele>
        <time>2014-06-08T11:48:54Z</time>
      </trkpt>
      <trkpt lat="46.021585604175925" lon="8.645565239712596">
        <ele>1315.22</ele>
        <time>2014-06-08T11:49:05Z</time>
      </trkpt>
      <trkpt lat="46.021586945280433" lon="8.645610753446817">
        <ele>1314.74</ele>
        <time>2014-06-08T11:49:19Z</time>
      </trkpt>
      <trkpt lat="46.021597590297461" lon="8.645670432597399">
        <ele>1314.26</ele>
        <time>2014-06-08T11:49:36Z</time>
      </trkpt>
      <trkpt lat="46.021640589460731" lon="8.645671019330621">
        <ele>1312.3399999999999</ele>
        <time>2014-06-08T11:49:48Z</time>
      </trkpt>
      <trkpt lat="46.021651234477758" lon="8.645749306306243">
        <ele>1308.97</ele>
        <time>2014-06-08T11:50:00Z</time>
      </trkpt>
      <trkpt lat="46.021633632481098" lon="8.645811332389712">
        <ele>1306.5699999999999</ele>
        <time>2014-06-08T11:50:11Z</time>
      </trkpt>
      <trkpt lat="46.021624580025673" lon="8.646056586876512">
        <ele>1304.6500000000001</ele>
        <time>2014-06-08T11:50:26Z</time>
      </trkpt>
      <trkpt lat="46.021624412387609" lon="8.646099586039782">
        <ele>1305.1300000000001</ele>
        <time>2014-06-08T11:50:34Z</time>
      </trkpt>
      <trkpt lat="46.021621143445373" lon="8.646142920479178">
        <ele>1303.2</ele>
        <time>2014-06-08T11:50:37Z</time>
      </trkpt>
      <trkpt lat="46.021612593904138" lon="8.646271834149957">
        <ele>1302.72</ele>
        <time>2014-06-08T11:50:50Z</time>
      </trkpt>
      <trkpt lat="46.021598260849714" lon="8.646245263516903">
        <ele>1302.24</ele>
        <time>2014-06-08T11:51:12Z</time>
      </trkpt>
      <trkpt lat="46.021591303870082" lon="8.646241826936603">
        <ele>1302.24</ele>
        <time>2014-06-08T11:51:45Z</time>
      </trkpt>
      <trkpt lat="46.021594991907477" lon="8.646268816664815">
        <ele>1302.24</ele>
        <time>2014-06-08T11:52:22Z</time>
      </trkpt>
      <trkpt lat="46.021596919745207" lon="8.646290777251124">
        <ele>1302.24</ele>
        <time>2014-06-08T11:52:49Z</time>
      </trkpt>
      <trkpt lat="46.021580826491117" lon="8.64628323353827">
        <ele>1302.72</ele>
        <time>2014-06-08T11:52:55Z</time>
      </trkpt>
      <trkpt lat="46.021596668288112" lon="8.64622799679637">
        <ele>1302.72</ele>
        <time>2014-06-08T11:53:07Z</time>
      </trkpt>
      <trkpt lat="46.021610666066408" lon="8.646243251860142">
        <ele>1302.72</ele>
        <time>2014-06-08T11:53:29Z</time>
      </trkpt>
      <trkpt lat="46.021612426266074" lon="8.646260350942612">
        <ele>1303.2</ele>
        <time>2014-06-08T11:53:48Z</time>
      </trkpt>
      <trkpt lat="46.021583173424006" lon="8.646292705088854">
        <ele>1302.24</ele>
        <time>2014-06-08T11:54:01Z</time>
      </trkpt>
      <trkpt lat="46.021550903096795" lon="8.646342996507883">
        <ele>1300.3199999999999</ele>
        <time>2014-06-08T11:54:11Z</time>
      </trkpt>
      <trkpt lat="46.021553920581937" lon="8.64628323353827">
        <ele>1300.3199999999999</ele>
        <time>2014-06-08T11:54:31Z</time>
      </trkpt>
      <trkpt lat="46.021559787914157" lon="8.646293040364981">
        <ele>1300.8</ele>
        <time>2014-06-08T11:54:53Z</time>
      </trkpt>
      <trkpt lat="46.021589962765574" lon="8.646337129175663">
        <ele>1301.28</ele>
        <time>2014-06-08T11:55:04Z</time>
      </trkpt>
      <trkpt lat="46.021593734622002" lon="8.646348780021071">
        <ele>1301.28</ele>
        <time>2014-06-08T11:55:17Z</time>
      </trkpt>
      <trkpt lat="46.021598596125841" lon="8.64632966928184">
        <ele>1302.24</ele>
        <time>2014-06-08T11:55:37Z</time>
      </trkpt>
      <trkpt lat="46.021585268899798" lon="8.646281138062477">
        <ele>1303.6900000000001</ele>
        <time>2014-06-08T11:55:48Z</time>
      </trkpt>
      <trkpt lat="46.021577306091785" lon="8.646144093945622">
        <ele>1303.2</ele>
        <time>2014-06-08T11:56:01Z</time>
      </trkpt>
      <trkpt lat="46.021581077948213" lon="8.64607896655798">
        <ele>1305.6099999999999</ele>
        <time>2014-06-08T11:56:10Z</time>
      </trkpt>
      <trkpt lat="46.021592477336526" lon="8.645966146141291">
        <ele>1307.05</ele>
        <time>2014-06-08T11:56:23Z</time>
      </trkpt>
      <trkpt lat="46.021595243364573" lon="8.645861288532615">
        <ele>1308.01</ele>
        <time>2014-06-08T11:56:37Z</time>
      </trkpt>
      <trkpt lat="46.021640924736857" lon="8.645775625482202">
        <ele>1311.3800000000001</ele>
        <time>2014-06-08T11:56:51Z</time>
      </trkpt>
      <trkpt lat="46.021619383245707" lon="8.645717538893223">
        <ele>1313.78</ele>
        <time>2014-06-08T11:57:04Z</time>
      </trkpt>
      <trkpt lat="46.021601194515824" lon="8.645616453140974">
        <ele>1315.22</ele>
        <time>2014-06-08T11:57:15Z</time>
      </trkpt>
      <trkpt lat="46.02159365080297" lon="8.645604467019439">
        <ele>1315.7</ele>
        <time>2014-06-08T11:57:17Z</time>
      </trkpt>
      <trkpt lat="46.021536067128181" lon="8.645463734865189">
        <ele>1314.74</ele>
        <time>2014-06-08T11:57:33Z</time>
      </trkpt>
      <trkpt lat="46.021496336907148" lon="8.645380167290568">
        <ele>1311.8599999999999</ele>
        <time>2014-06-08T11:57:44Z</time>
      </trkpt>
      <trkpt lat="46.021460797637701" lon="8.645277991890907">
        <ele>1308.49</ele>
        <time>2014-06-08T11:57:55Z</time>
      </trkpt>
      <trkpt lat="46.021481668576598" lon="8.645196184515953">
        <ele>1306.0899999999999</ele>
        <time>2014-06-08T11:58:01Z</time>
      </trkpt>
      <trkpt lat="46.021447805687785" lon="8.645160226151347">
        <ele>1304.6500000000001</ele>
        <time>2014-06-08T11:58:05Z</time>
      </trkpt>
      <trkpt lat="46.021429533138871" lon="8.64512225612998">
        <ele>1303.6900000000001</ele>
        <time>2014-06-08T11:58:08Z</time>
      </trkpt>
      <trkpt lat="46.021347977221012" lon="8.64503332413733">
        <ele>1300.3199999999999</ele>
        <time>2014-06-08T11:58:17Z</time>
      </trkpt>
      <trkpt lat="46.021339762955904" lon="8.645020751282573">
        <ele>1300.3199999999999</ele>
        <time>2014-06-08T11:58:18Z</time>
      </trkpt>
      <trkpt lat="46.021323082968593" lon="8.644992923364043">
        <ele>1299.8399999999999</ele>
        <time>2014-06-08T11:58:20Z</time>
      </trkpt>
      <trkpt lat="46.021276144310832" lon="8.64495076239109">
        <ele>1298.8800000000001</ele>
        <time>2014-06-08T11:58:24Z</time>
      </trkpt>
      <trkpt lat="46.021234150975943" lon="8.644714308902621">
        <ele>1297.9200000000001</ele>
        <time>2014-06-08T11:58:38Z</time>
      </trkpt>
      <trkpt lat="46.021225182339549" lon="8.644666196778417">
        <ele>1295.99</ele>
        <time>2014-06-08T11:58:43Z</time>
      </trkpt>
      <trkpt lat="46.021215375512838" lon="8.644600817933679">
        <ele>1293.5899999999999</ele>
        <time>2014-06-08T11:58:48Z</time>
      </trkpt>
      <trkpt lat="46.021210933104157" lon="8.644385654479265">
        <ele>1291.6700000000001</ele>
        <time>2014-06-08T11:59:01Z</time>
      </trkpt>
      <trkpt lat="46.021177656948566" lon="8.644311223179102">
        <ele>1290.23</ele>
        <time>2014-06-08T11:59:04Z</time>
      </trkpt>
      <trkpt lat="46.021160306409001" lon="8.64425397478044">
        <ele>1289.27</ele>
        <time>2014-06-08T11:59:07Z</time>
      </trkpt>
      <trkpt lat="46.02113876491785" lon="8.644200833514333">
        <ele>1288.3</ele>
        <time>2014-06-08T11:59:11Z</time>
      </trkpt>
      <trkpt lat="46.021102052181959" lon="8.644122965633869">
        <ele>1287.8199999999999</ele>
        <time>2014-06-08T11:59:16Z</time>
      </trkpt>
      <trkpt lat="46.020990991964936" lon="8.643938312307">
        <ele>1286.3800000000001</ele>
        <time>2014-06-08T11:59:33Z</time>
      </trkpt>
      <trkpt lat="46.020957296714187" lon="8.643751228228211">
        <ele>1283.5</ele>
        <time>2014-06-08T11:59:47Z</time>
      </trkpt>
      <trkpt lat="46.020965343341231" lon="8.643660200759769">
        <ele>1282.54</ele>
        <time>2014-06-08T11:59:51Z</time>
      </trkpt>
      <trkpt lat="46.02097942493856" lon="8.643587362021208">
        <ele>1281.5699999999999</ele>
        <time>2014-06-08T11:59:53Z</time>
      </trkpt>
      <trkpt lat="46.020982777699828" lon="8.643574370071292">
        <ele>1281.5699999999999</ele>
        <time>2014-06-08T11:59:54Z</time>
      </trkpt>
      <trkpt lat="46.021000044420362" lon="8.643387872725725">
        <ele>1277.73</ele>
        <time>2014-06-08T12:00:05Z</time>
      </trkpt>
      <trkpt lat="46.020994260907173" lon="8.643349064514041">
        <ele>1277.25</ele>
        <time>2014-06-08T12:00:08Z</time>
      </trkpt>
      <trkpt lat="46.021006666123867" lon="8.643313860520721">
        <ele>1275.8099999999999</ele>
        <time>2014-06-08T12:00:11Z</time>
      </trkpt>
      <trkpt lat="46.021006414666772" lon="8.643299778923392">
        <ele>1274.8499999999999</ele>
        <time>2014-06-08T12:00:13Z</time>
      </trkpt>
      <trkpt lat="46.021017478778958" lon="8.643151922151446">
        <ele>1272.9200000000001</ele>
        <time>2014-06-08T12:00:26Z</time>
      </trkpt>
      <trkpt lat="46.020986214280128" lon="8.643064331263304">
        <ele>1271</ele>
        <time>2014-06-08T12:00:37Z</time>
      </trkpt>
      <trkpt lat="46.020970540121198" lon="8.642975818365812">
        <ele>1268.5999999999999</ele>
        <time>2014-06-08T12:00:41Z</time>
      </trkpt>
      <trkpt lat="46.020978670567274" lon="8.642946481704712">
        <ele>1269.0799999999999</ele>
        <time>2014-06-08T12:00:43Z</time>
      </trkpt>
      <trkpt lat="46.020997110754251" lon="8.642855621874332">
        <ele>1268.5999999999999</ele>
        <time>2014-06-08T12:00:47Z</time>
      </trkpt>
      <trkpt lat="46.02111236192286" lon="8.642731066793203">
        <ele>1267.6400000000001</ele>
        <time>2014-06-08T12:00:59Z</time>
      </trkpt>
      <trkpt lat="46.021119654178619" lon="8.642572229728103">
        <ele>1269.5599999999999</ele>
        <time>2014-06-08T12:01:14Z</time>
      </trkpt>
      <trkpt lat="46.021121749654412" lon="8.642571726813912">
        <ele>1269.5599999999999</ele>
        <time>2014-06-08T12:01:15Z</time>
      </trkpt>
      <trkpt lat="46.021126192063093" lon="8.642561417073011">
        <ele>1269.5599999999999</ele>
        <time>2014-06-08T12:01:26Z</time>
      </trkpt>
      <trkpt lat="46.021133316680789" lon="8.6425896640867">
        <ele>1269.5599999999999</ele>
        <time>2014-06-08T12:01:36Z</time>
      </trkpt>
      <trkpt lat="46.021160474047065" lon="8.642568290233612">
        <ele>1268.5999999999999</ele>
        <time>2014-06-08T12:01:50Z</time>
      </trkpt>
      <trkpt lat="46.021161647513509" lon="8.642552699893713">
        <ele>1268.1199999999999</ele>
        <time>2014-06-08T12:02:15Z</time>
      </trkpt>
      <trkpt lat="46.02117782458663" lon="8.642655545845628">
        <ele>1268.5999999999999</ele>
        <time>2014-06-08T12:02:50Z</time>
      </trkpt>
      <trkpt lat="46.021164413541555" lon="8.642593184486032">
        <ele>1268.5999999999999</ele>
        <time>2014-06-08T12:03:14Z</time>
      </trkpt>
      <trkpt lat="46.021168688312173" lon="8.642596872523427">
        <ele>1269.0799999999999</ele>
        <time>2014-06-08T12:03:27Z</time>
      </trkpt>
      <trkpt lat="46.021156031638384" lon="8.642610786482692">
        <ele>1268.1199999999999</ele>
        <time>2014-06-08T12:03:50Z</time>
      </trkpt>
      <trkpt lat="46.021159971132874" lon="8.642620425671339">
        <ele>1268.1199999999999</ele>
        <time>2014-06-08T12:04:31Z</time>
      </trkpt>
      <trkpt lat="46.021170364692807" lon="8.642631908878684">
        <ele>1267.6400000000001</ele>
        <time>2014-06-08T12:05:11Z</time>
      </trkpt>
      <trkpt lat="46.021178495138884" lon="8.642643056809902">
        <ele>1268.1199999999999</ele>
        <time>2014-06-08T12:05:43Z</time>
      </trkpt>
      <trkpt lat="46.021174052730203" lon="8.642643559724093">
        <ele>1268.1199999999999</ele>
        <time>2014-06-08T12:06:07Z</time>
      </trkpt>
      <trkpt lat="46.021174471825361" lon="8.642643811181188">
        <ele>1268.1199999999999</ele>
        <time>2014-06-08T12:06:22Z</time>
      </trkpt>
      <trkpt lat="46.021152678877115" lon="8.64264540374279">
        <ele>1268.5999999999999</ele>
        <time>2014-06-08T12:06:33Z</time>
      </trkpt>
      <trkpt lat="46.021177740767598" lon="8.642645739018917">
        <ele>1268.5999999999999</ele>
        <time>2014-06-08T12:06:54Z</time>
      </trkpt>
      <trkpt lat="46.021155109629035" lon="8.642606846988201">
        <ele>1269.0799999999999</ele>
        <time>2014-06-08T12:07:10Z</time>
      </trkpt>
      <trkpt lat="46.021159049123526" lon="8.642630148679018">
        <ele>1268.5999999999999</ele>
        <time>2014-06-08T12:07:27Z</time>
      </trkpt>
      <trkpt lat="46.021179584786296" lon="8.642595196142793">
        <ele>1268.5999999999999</ele>
        <time>2014-06-08T12:07:45Z</time>
      </trkpt>
      <trkpt lat="46.021186709403992" lon="8.642629981040955">
        <ele>1268.5999999999999</ele>
        <time>2014-06-08T12:08:05Z</time>
      </trkpt>
      <trkpt lat="46.021202802658081" lon="8.642650516703725">
        <ele>1269.0799999999999</ele>
        <time>2014-06-08T12:08:31Z</time>
      </trkpt>
      <trkpt lat="46.021212441846728" lon="8.642639871686697">
        <ele>1269.0799999999999</ele>
        <time>2014-06-08T12:08:55Z</time>
      </trkpt>
      <trkpt lat="46.021196683868766" lon="8.642606595531106">
        <ele>1268.5999999999999</ele>
        <time>2014-06-08T12:09:16Z</time>
      </trkpt>
      <trkpt lat="46.021168436855078" lon="8.642644984647632">
        <ele>1268.5999999999999</ele>
        <time>2014-06-08T12:09:39Z</time>
      </trkpt>
      <trkpt lat="46.021187882870436" lon="8.642616821452975">
        <ele>1268.5999999999999</ele>
        <time>2014-06-08T12:10:01Z</time>
      </trkpt>
      <trkpt lat="46.021162150427699" lon="8.642534175887704">
        <ele>1269.0799999999999</ele>
        <time>2014-06-08T12:10:15Z</time>
      </trkpt>
      <trkpt lat="46.021206742152572" lon="8.642539791762829">
        <ele>1268.1199999999999</ele>
        <time>2014-06-08T12:10:26Z</time>
      </trkpt>
      <trkpt lat="46.021223086863756" lon="8.642451027408242">
        <ele>1267.1600000000001</ele>
        <time>2014-06-08T12:10:45Z</time>
      </trkpt>
      <trkpt lat="46.021225769072771" lon="8.642327561974526">
        <ele>1266.6700000000001</ele>
        <time>2014-06-08T12:10:54Z</time>
      </trkpt>
      <trkpt lat="46.021221745759249" lon="8.642109213396907">
        <ele>1265.71</ele>
        <time>2014-06-08T12:11:08Z</time>
      </trkpt>
      <trkpt lat="46.021165251731873" lon="8.642100915312767">
        <ele>1261.8699999999999</ele>
        <time>2014-06-08T12:11:20Z</time>
      </trkpt>
      <trkpt lat="46.021161647513509" lon="8.642117762938142">
        <ele>1261.8699999999999</ele>
        <time>2014-06-08T12:11:30Z</time>
      </trkpt>
      <trkpt lat="46.02116952650249" lon="8.64211960695684">
        <ele>1261.8699999999999</ele>
        <time>2014-06-08T12:11:46Z</time>
      </trkpt>
      <trkpt lat="46.021196767687798" lon="8.642106531187892">
        <ele>1262.8299999999999</ele>
        <time>2014-06-08T12:12:00Z</time>
      </trkpt>
      <trkpt lat="46.021271198987961" lon="8.642077362164855">
        <ele>1265.23</ele>
        <time>2014-06-08T12:12:14Z</time>
      </trkpt>
      <trkpt lat="46.021286621689796" lon="8.642051545903087">
        <ele>1264.75</ele>
        <time>2014-06-08T12:12:17Z</time>
      </trkpt>
      <trkpt lat="46.021301038563251" lon="8.641804195940495">
        <ele>1264.75</ele>
        <time>2014-06-08T12:12:33Z</time>
      </trkpt>
      <trkpt lat="46.02133221924305" lon="8.64166421815753">
        <ele>1264.75</ele>
        <time>2014-06-08T12:12:43Z</time>
      </trkpt>
      <trkpt lat="46.021391227841377" lon="8.641424244269729">
        <ele>1264.75</ele>
        <time>2014-06-08T12:12:59Z</time>
      </trkpt>
      <trkpt lat="46.02142509073019" lon="8.64122492261231">
        <ele>1264.75</ele>
        <time>2014-06-08T12:13:12Z</time>
      </trkpt>
      <trkpt lat="46.021445291116834" lon="8.641002969816327">
        <ele>1264.75</ele>
        <time>2014-06-08T12:13:26Z</time>
      </trkpt>
      <trkpt lat="46.021474041044712" lon="8.640740197151899">
        <ele>1264.75</ele>
        <time>2014-06-08T12:13:43Z</time>
      </trkpt>
      <trkpt lat="46.021474627777934" lon="8.64048664458096">
        <ele>1264.75</ele>
        <time>2014-06-08T12:13:59Z</time>
      </trkpt>
      <trkpt lat="46.021482422947884" lon="8.640317497774959">
        <ele>1265.23</ele>
        <time>2014-06-08T12:14:08Z</time>
      </trkpt>
      <trkpt lat="46.021490637212992" lon="8.640229236334562">
        <ele>1264.75</ele>
        <time>2014-06-08T12:14:13Z</time>
      </trkpt>
      <trkpt lat="46.021501952782273" lon="8.639955734834075">
        <ele>1264.75</ele>
        <time>2014-06-08T12:14:28Z</time>
      </trkpt>
      <trkpt lat="46.021532882004976" lon="8.639719532802701">
        <ele>1265.23</ele>
        <time>2014-06-08T12:14:43Z</time>
      </trkpt>
      <trkpt lat="46.021612426266074" lon="8.63947369158268">
        <ele>1265.23</ele>
        <time>2014-06-08T12:14:59Z</time>
      </trkpt>
      <trkpt lat="46.021678308025002" lon="8.639224916696549">
        <ele>1265.71</ele>
        <time>2014-06-08T12:15:17Z</time>
      </trkpt>
      <trkpt lat="46.021655425429344" lon="8.639005059376359">
        <ele>1265.71</ele>
        <time>2014-06-08T12:15:30Z</time>
      </trkpt>
      <trkpt lat="46.021669004112482" lon="8.638745890930295">
        <ele>1265.71</ele>
        <time>2014-06-08T12:15:45Z</time>
      </trkpt>
      <trkpt lat="46.021673949435353" lon="8.638674477115274">
        <ele>1265.71</ele>
        <time>2014-06-08T12:15:49Z</time>
      </trkpt>
      <trkpt lat="46.021673446521163" lon="8.638420924544334">
        <ele>1265.71</ele>
        <time>2014-06-08T12:16:05Z</time>
      </trkpt>
      <trkpt lat="46.021710829809308" lon="8.638189919292927">
        <ele>1265.71</ele>
        <time>2014-06-08T12:16:20Z</time>
      </trkpt>
      <trkpt lat="46.021718289703131" lon="8.638089001178742">
        <ele>1265.71</ele>
        <time>2014-06-08T12:16:26Z</time>
      </trkpt>
      <trkpt lat="46.021735388785601" lon="8.637840477749705">
        <ele>1265.23</ele>
        <time>2014-06-08T12:16:42Z</time>
      </trkpt>
      <trkpt lat="46.021782578900456" lon="8.637557420879602">
        <ele>1265.71</ele>
        <time>2014-06-08T12:17:00Z</time>
      </trkpt>
      <trkpt lat="46.021839240565896" lon="8.637361619621515">
        <ele>1265.71</ele>
        <time>2014-06-08T12:17:15Z</time>
      </trkpt>
      <trkpt lat="46.021838402375579" lon="8.637142265215516">
        <ele>1265.71</ele>
        <time>2014-06-08T12:17:31Z</time>
      </trkpt>
      <trkpt lat="46.022005537524819" lon="8.636990552768111">
        <ele>1266.6700000000001</ele>
        <time>2014-06-08T12:17:48Z</time>
      </trkpt>
      <trkpt lat="46.022139899432659" lon="8.636921988800168">
        <ele>1266.1900000000001</ele>
        <time>2014-06-08T12:18:02Z</time>
      </trkpt>
      <trkpt lat="46.022304855287075" lon="8.636838756501675">
        <ele>1266.1900000000001</ele>
        <time>2014-06-08T12:18:18Z</time>
      </trkpt>
      <trkpt lat="46.022440893575549" lon="8.636712860316038">
        <ele>1266.6700000000001</ele>
        <time>2014-06-08T12:18:35Z</time>
      </trkpt>
      <trkpt lat="46.022549439221621" lon="8.636462409049273">
        <ele>1265.23</ele>
        <time>2014-06-08T12:18:53Z</time>
      </trkpt>
      <trkpt lat="46.022630659863353" lon="8.636171473190188">
        <ele>1266.6700000000001</ele>
        <time>2014-06-08T12:19:14Z</time>
      </trkpt>
      <trkpt lat="46.022617500275373" lon="8.635940803214908">
        <ele>1267.1600000000001</ele>
        <time>2014-06-08T12:19:29Z</time>
      </trkpt>
      <trkpt lat="46.02261196821928" lon="8.635736284777522">
        <ele>1267.1600000000001</ele>
        <time>2014-06-08T12:19:44Z</time>
      </trkpt>
      <trkpt lat="46.022593444213271" lon="8.635535454377532">
        <ele>1266.6700000000001</ele>
        <time>2014-06-08T12:19:57Z</time>
      </trkpt>
      <trkpt lat="46.022579111158848" lon="8.635280895978212">
        <ele>1266.6700000000001</ele>
        <time>2014-06-08T12:20:14Z</time>
      </trkpt>
      <trkpt lat="46.022607106715441" lon="8.6350276786834">
        <ele>1266.6700000000001</ele>
        <time>2014-06-08T12:20:29Z</time>
      </trkpt>
      <trkpt lat="46.022606017068028" lon="8.634838834404945">
        <ele>1266.6700000000001</ele>
        <time>2014-06-08T12:20:44Z</time>
      </trkpt>
      <trkpt lat="46.022601323202252" lon="8.634701455011964">
        <ele>1266.6700000000001</ele>
        <time>2014-06-08T12:20:54Z</time>
      </trkpt>
      <trkpt lat="46.022565867751837" lon="8.63448285497725">
        <ele>1266.6700000000001</ele>
        <time>2014-06-08T12:21:11Z</time>
      </trkpt>
      <trkpt lat="46.022500153630972" lon="8.634260399267077">
        <ele>1266.6700000000001</ele>
        <time>2014-06-08T12:21:26Z</time>
      </trkpt>
      <trkpt lat="46.022447599098086" lon="8.6340675316751">
        <ele>1266.6700000000001</ele>
        <time>2014-06-08T12:21:42Z</time>
      </trkpt>
      <trkpt lat="46.022339221090078" lon="8.633846417069435">
        <ele>1267.1600000000001</ele>
        <time>2014-06-08T12:21:57Z</time>
      </trkpt>
      <trkpt lat="46.022201757878065" lon="8.633664026856422">
        <ele>1266.6700000000001</ele>
        <time>2014-06-08T12:22:13Z</time>
      </trkpt>
      <trkpt lat="46.022154400125146" lon="8.633522624149919">
        <ele>1267.1600000000001</ele>
        <time>2014-06-08T12:22:25Z</time>
      </trkpt>
      <trkpt lat="46.022154483944178" lon="8.633383819833398">
        <ele>1267.1600000000001</ele>
        <time>2014-06-08T12:22:33Z</time>
      </trkpt>
      <trkpt lat="46.022083070129156" lon="8.633219785988331">
        <ele>1267.1600000000001</ele>
        <time>2014-06-08T12:22:45Z</time>
      </trkpt>
      <trkpt lat="46.022120034322143" lon="8.633133871480823">
        <ele>1267.6400000000001</ele>
        <time>2014-06-08T12:22:51Z</time>
      </trkpt>
      <trkpt lat="46.022145682945848" lon="8.63286204636097">
        <ele>1267.1600000000001</ele>
        <time>2014-06-08T12:23:08Z</time>
      </trkpt>
      <trkpt lat="46.022128416225314" lon="8.632633974775672">
        <ele>1266.6700000000001</ele>
        <time>2014-06-08T12:23:23Z</time>
      </trkpt>
      <trkpt lat="46.022268058732152" lon="8.632458541542292">
        <ele>1267.1600000000001</ele>
        <time>2014-06-08T12:23:39Z</time>
      </trkpt>
      <trkpt lat="46.022300999611616" lon="8.632395090535283">
        <ele>1267.1600000000001</ele>
        <time>2014-06-08T12:23:43Z</time>
      </trkpt>
      <trkpt lat="46.022349949926138" lon="8.632198954001069">
        <ele>1266.6700000000001</ele>
        <time>2014-06-08T12:23:57Z</time>
      </trkpt>
      <trkpt lat="46.022401582449675" lon="8.632026873528957">
        <ele>1266.6700000000001</ele>
        <time>2014-06-08T12:24:09Z</time>
      </trkpt>
      <trkpt lat="46.022442486137152" lon="8.631937354803085">
        <ele>1266.6700000000001</ele>
        <time>2014-06-08T12:24:16Z</time>
      </trkpt>
      <trkpt lat="46.022456148639321" lon="8.631843645125628">
        <ele>1266.6700000000001</ele>
        <time>2014-06-08T12:24:22Z</time>
      </trkpt>
      <trkpt lat="46.02245463989675" lon="8.631804333999753">
        <ele>1266.6700000000001</ele>
        <time>2014-06-08T12:24:24Z</time>
      </trkpt>
      <trkpt lat="46.022443156689405" lon="8.631530581042171">
        <ele>1267.6400000000001</ele>
        <time>2014-06-08T12:24:41Z</time>
      </trkpt>
      <trkpt lat="46.022442653775215" lon="8.631366044282913">
        <ele>1267.6400000000001</ele>
        <time>2014-06-08T12:24:53Z</time>
      </trkpt>
      <trkpt lat="46.022387752309442" lon="8.631145432591438">
        <ele>1267.6400000000001</ele>
        <time>2014-06-08T12:25:07Z</time>
      </trkpt>
      <trkpt lat="46.022287672385573" lon="8.630974190309644">
        <ele>1268.1199999999999</ele>
        <time>2014-06-08T12:25:22Z</time>
      </trkpt>
      <trkpt lat="46.022200416773558" lon="8.630831278860569">
        <ele>1268.1199999999999</ele>
        <time>2014-06-08T12:25:35Z</time>
      </trkpt>
      <trkpt lat="46.022149538621306" lon="8.630620557814837">
        <ele>1267.6400000000001</ele>
        <time>2014-06-08T12:25:52Z</time>
      </trkpt>
      <trkpt lat="46.022106455639005" lon="8.630423163995147">
        <ele>1267.6400000000001</ele>
        <time>2014-06-08T12:26:07Z</time>
      </trkpt>
      <trkpt lat="46.022254563868046" lon="8.63025913015008">
        <ele>1265.23</ele>
        <time>2014-06-08T12:26:24Z</time>
      </trkpt>
      <trkpt lat="46.022313321009278" lon="8.630114458501339">
        <ele>1262.3499999999999</ele>
        <time>2014-06-08T12:26:39Z</time>
      </trkpt>
      <trkpt lat="46.022383393719792" lon="8.629957884550095">
        <ele>1261.3900000000001</ele>
        <time>2014-06-08T12:26:53Z</time>
      </trkpt>
      <trkpt lat="46.02248883806169" lon="8.629829809069634">
        <ele>1258.5</ele>
        <time>2014-06-08T12:27:08Z</time>
      </trkpt>
      <trkpt lat="46.022547846660018" lon="8.629656219854951">
        <ele>1257.0599999999999</ele>
        <time>2014-06-08T12:27:22Z</time>
      </trkpt>
      <trkpt lat="46.022598054260015" lon="8.629494700580835">
        <ele>1254.6600000000001</ele>
        <time>2014-06-08T12:27:37Z</time>
      </trkpt>
      <trkpt lat="46.022665528580546" lon="8.629347933456302">
        <ele>1251.29</ele>
        <time>2014-06-08T12:27:49Z</time>
      </trkpt>
      <trkpt lat="46.022710874676704" lon="8.62911231815815">
        <ele>1249.8499999999999</ele>
        <time>2014-06-08T12:28:05Z</time>
      </trkpt>
      <trkpt lat="46.022791843861341" lon="8.628869745880365">
        <ele>1247.45</ele>
        <time>2014-06-08T12:28:21Z</time>
      </trkpt>
      <trkpt lat="46.022835932672024" lon="8.628602279350162">
        <ele>1246.97</ele>
        <time>2014-06-08T12:28:39Z</time>
      </trkpt>
      <trkpt lat="46.02295495569706" lon="8.628437155857682">
        <ele>1246.49</ele>
        <time>2014-06-08T12:28:56Z</time>
      </trkpt>
      <trkpt lat="46.023147068917751" lon="8.628269098699093">
        <ele>1246.97</ele>
        <time>2014-06-08T12:29:15Z</time>
      </trkpt>
      <trkpt lat="46.023303810507059" lon="8.628259794786573">
        <ele>1247.9300000000001</ele>
        <time>2014-06-08T12:29:30Z</time>
      </trkpt>
      <trkpt lat="46.023481087759137" lon="8.628202211111784">
        <ele>1247.9300000000001</ele>
        <time>2014-06-08T12:29:43Z</time>
      </trkpt>
      <trkpt lat="46.023574965074658" lon="8.628094587475061">
        <ele>1246.97</ele>
        <time>2014-06-08T12:29:53Z</time>
      </trkpt>
      <trkpt lat="46.023691892623901" lon="8.627896690741181">
        <ele>1245.53</ele>
        <time>2014-06-08T12:30:09Z</time>
      </trkpt>
      <trkpt lat="46.023790715262294" lon="8.627775236964226">
        <ele>1243.5999999999999</ele>
        <time>2014-06-08T12:30:21Z</time>
      </trkpt>
      <trkpt lat="46.023978386074305" lon="8.627541298046708">
        <ele>1241.2</ele>
        <time>2014-06-08T12:30:38Z</time>
      </trkpt>
      <trkpt lat="46.024003950878978" lon="8.627525288611651">
        <ele>1240.72</ele>
        <time>2014-06-08T12:30:40Z</time>
      </trkpt>
      <trkpt lat="46.024040412157774" lon="8.627472566440702">
        <ele>1239.28</ele>
        <time>2014-06-08T12:30:44Z</time>
      </trkpt>
      <trkpt lat="46.024053990840912" lon="8.627448510378599">
        <ele>1239.28</ele>
        <time>2014-06-08T12:30:46Z</time>
      </trkpt>
      <trkpt lat="46.024163123220205" lon="8.62726285122335">
        <ele>1236.8699999999999</ele>
        <time>2014-06-08T12:31:00Z</time>
      </trkpt>
      <trkpt lat="46.024187430739403" lon="8.627193616703153">
        <ele>1235.4300000000001</ele>
        <time>2014-06-08T12:31:05Z</time>
      </trkpt>
      <trkpt lat="46.024242164567113" lon="8.626979626715183">
        <ele>1232.0699999999999</ele>
        <time>2014-06-08T12:31:17Z</time>
      </trkpt>
      <trkpt lat="46.024264292791486" lon="8.626894382759929">
        <ele>1230.1400000000001</ele>
        <time>2014-06-08T12:31:32Z</time>
      </trkpt>
      <trkpt lat="46.024252641946077" lon="8.626886671409011">
        <ele>1231.5899999999999</ele>
        <time>2014-06-08T12:31:52Z</time>
      </trkpt>
      <trkpt lat="46.024262867867947" lon="8.626762200146914">
        <ele>1230.6199999999999</ele>
        <time>2014-06-08T12:32:06Z</time>
      </trkpt>
      <trkpt lat="46.024350123479962" lon="8.626793883740902">
        <ele>1230.6199999999999</ele>
        <time>2014-06-08T12:32:24Z</time>
      </trkpt>
      <trkpt lat="46.024308716878295" lon="8.626771504059434">
        <ele>1230.6199999999999</ele>
        <time>2014-06-08T12:32:53Z</time>
      </trkpt>
      <trkpt lat="46.024359259754419" lon="8.626733366400003">
        <ele>1229.6600000000001</ele>
        <time>2014-06-08T12:33:04Z</time>
      </trkpt>
      <trkpt lat="46.024368312209845" lon="8.626769324764609">
        <ele>1229.1800000000001</ele>
        <time>2014-06-08T12:33:19Z</time>
      </trkpt>
      <trkpt lat="46.024375604465604" lon="8.626747028902173">
        <ele>1229.1800000000001</ele>
        <time>2014-06-08T12:33:43Z</time>
      </trkpt>
      <trkpt lat="46.02438373491168" lon="8.626735461875796">
        <ele>1229.1800000000001</ele>
        <time>2014-06-08T12:33:59Z</time>
      </trkpt>
      <trkpt lat="46.024367138743401" lon="8.626762283965945">
        <ele>1229.1800000000001</ele>
        <time>2014-06-08T12:34:21Z</time>
      </trkpt>
      <trkpt lat="46.024411059916019" lon="8.626843253150582">
        <ele>1228.7</ele>
        <time>2014-06-08T12:34:39Z</time>
      </trkpt>
      <trkpt lat="46.024372586980462" lon="8.626809306442738">
        <ele>1228.7</ele>
        <time>2014-06-08T12:35:00Z</time>
      </trkpt>
      <trkpt lat="46.024371329694986" lon="8.626831686124206">
        <ele>1228.7</ele>
        <time>2014-06-08T12:35:22Z</time>
      </trkpt>
      <trkpt lat="46.024388847872615" lon="8.626835457980633">
        <ele>1228.7</ele>
        <time>2014-06-08T12:35:42Z</time>
      </trkpt>
      <trkpt lat="46.02444039657712" lon="8.626969736069441">
        <ele>1226.78</ele>
        <time>2014-06-08T12:35:55Z</time>
      </trkpt>
      <trkpt lat="46.024425560608506" lon="8.627094877883792">
        <ele>1224.3800000000001</ele>
        <time>2014-06-08T12:36:09Z</time>
      </trkpt>
      <trkpt lat="46.024460010230541" lon="8.627174254506826">
        <ele>1221.49</ele>
        <time>2014-06-08T12:36:22Z</time>
      </trkpt>
      <trkpt lat="46.024465039372444" lon="8.627305682748556">
        <ele>1218.6099999999999</ele>
        <time>2014-06-08T12:36:34Z</time>
      </trkpt>
      <trkpt lat="46.024485239759088" lon="8.627354213967919">
        <ele>1215.24</ele>
        <time>2014-06-08T12:36:45Z</time>
      </trkpt>
      <trkpt lat="46.024491861462593" lon="8.627451611682773">
        <ele>1211.8800000000001</ele>
        <time>2014-06-08T12:36:54Z</time>
      </trkpt>
      <trkpt lat="46.024545505642891" lon="8.627506429329515">
        <ele>1209.48</ele>
        <time>2014-06-08T12:37:05Z</time>
      </trkpt>
      <trkpt lat="46.024548439309001" lon="8.62759267911315">
        <ele>1207.0699999999999</ele>
        <time>2014-06-08T12:37:16Z</time>
      </trkpt>
      <trkpt lat="46.024579619988799" lon="8.627505591139197">
        <ele>1204.1900000000001</ele>
        <time>2014-06-08T12:37:29Z</time>
      </trkpt>
      <trkpt lat="46.024581212550402" lon="8.627490336075425">
        <ele>1203.71</ele>
        <time>2014-06-08T12:37:30Z</time>
      </trkpt>
      <trkpt lat="46.024663355201483" lon="8.627420263364911">
        <ele>1200.8199999999999</ele>
        <time>2014-06-08T12:37:41Z</time>
      </trkpt>
      <trkpt lat="46.024755220860243" lon="8.627448594197631">
        <ele>1197.46</ele>
        <time>2014-06-08T12:37:52Z</time>
      </trkpt>
      <trkpt lat="46.024756310507655" lon="8.627538532018662">
        <ele>1194.5799999999999</ele>
        <time>2014-06-08T12:38:02Z</time>
      </trkpt>
      <trkpt lat="46.024816241115332" lon="8.627655878663063">
        <ele>1191.21</ele>
        <time>2014-06-08T12:38:13Z</time>
      </trkpt>
      <trkpt lat="46.02484448812902" lon="8.627724358811975">
        <ele>1188.3299999999999</ele>
        <time>2014-06-08T12:38:21Z</time>
      </trkpt>
      <trkpt lat="46.024838285520673" lon="8.627838352695108">
        <ele>1185.9200000000001</ele>
        <time>2014-06-08T12:38:29Z</time>
      </trkpt>
      <trkpt lat="46.024858821183443" lon="8.627960225567222">
        <ele>1182.5599999999999</ele>
        <time>2014-06-08T12:38:44Z</time>
      </trkpt>
      <trkpt lat="46.024905759841204" lon="8.628042368218303">
        <ele>1179.1900000000001</ele>
        <time>2014-06-08T12:38:55Z</time>
      </trkpt>
      <trkpt lat="46.024917494505644" lon="8.628164241090417">
        <ele>1175.3499999999999</ele>
        <time>2014-06-08T12:39:08Z</time>
      </trkpt>
      <trkpt lat="46.024951441213489" lon="8.628223082050681">
        <ele>1173.9100000000001</ele>
        <time>2014-06-08T12:39:12Z</time>
      </trkpt>
      <trkpt lat="46.024945322424173" lon="8.628360293805599">
        <ele>1170.54</ele>
        <time>2014-06-08T12:39:21Z</time>
      </trkpt>
      <trkpt lat="46.024971390143037" lon="8.628475544974208">
        <ele>1167.6600000000001</ele>
        <time>2014-06-08T12:39:31Z</time>
      </trkpt>
      <trkpt lat="46.024968372657895" lon="8.6284932307899">
        <ele>1166.7</ele>
        <time>2014-06-08T12:39:33Z</time>
      </trkpt>
      <trkpt lat="46.024956218898296" lon="8.628630945459008">
        <ele>1163.8099999999999</ele>
        <time>2014-06-08T12:39:45Z</time>
      </trkpt>
      <trkpt lat="46.024968791753054" lon="8.628743514418602">
        <ele>1160.45</ele>
        <time>2014-06-08T12:39:54Z</time>
      </trkpt>
      <trkpt lat="46.024967534467578" lon="8.628906542435288">
        <ele>1157.5599999999999</ele>
        <time>2014-06-08T12:40:06Z</time>
      </trkpt>
      <trkpt lat="46.024992931634188" lon="8.629035875201225">
        <ele>1154.2</ele>
        <time>2014-06-08T12:40:16Z</time>
      </trkpt>
      <trkpt lat="46.02503702044487" lon="8.629101337864995">
        <ele>1151.3199999999999</ele>
        <time>2014-06-08T12:40:27Z</time>
      </trkpt>
      <trkpt lat="46.02502922527492" lon="8.629239471629262">
        <ele>1148.4300000000001</ele>
        <time>2014-06-08T12:40:39Z</time>
      </trkpt>
      <trkpt lat="46.025045653805137" lon="8.629329828545451">
        <ele>1145.0699999999999</ele>
        <time>2014-06-08T12:40:53Z</time>
      </trkpt>
      <trkpt lat="46.025073565542698" lon="8.629410294815898">
        <ele>1142.1800000000001</ele>
        <time>2014-06-08T12:41:01Z</time>
      </trkpt>
      <trkpt lat="46.025127544999123" lon="8.629417922347784">
        <ele>1139.3</ele>
        <time>2014-06-08T12:41:12Z</time>
      </trkpt>
      <trkpt lat="46.025138776749372" lon="8.629528982564807">
        <ele>1135.9400000000001</ele>
        <time>2014-06-08T12:41:25Z</time>
      </trkpt>
      <trkpt lat="46.025170963257551" lon="8.629647837951779">
        <ele>1132.5699999999999</ele>
        <time>2014-06-08T12:41:34Z</time>
      </trkpt>
      <trkpt lat="46.025141710415483" lon="8.629793766885996">
        <ele>1129.6900000000001</ele>
        <time>2014-06-08T12:41:48Z</time>
      </trkpt>
      <trkpt lat="46.025178506970406" lon="8.629970792680979">
        <ele>1126.3199999999999</ele>
        <time>2014-06-08T12:42:01Z</time>
      </trkpt>
      <trkpt lat="46.025185380131006" lon="8.630080260336399">
        <ele>1122.96</ele>
        <time>2014-06-08T12:42:10Z</time>
      </trkpt>
      <trkpt lat="46.025188229978085" lon="8.630090234801173">
        <ele>1122.96</ele>
        <time>2014-06-08T12:42:11Z</time>
      </trkpt>
      <trkpt lat="46.02519242092967" lon="8.63009593449533">
        <ele>1122.48</ele>
        <time>2014-06-08T12:42:12Z</time>
      </trkpt>
      <trkpt lat="46.025218069553375" lon="8.630168437957764">
        <ele>1120.0699999999999</ele>
        <time>2014-06-08T12:42:19Z</time>
      </trkpt>
      <trkpt lat="46.025175824761391" lon="8.630318054929376">
        <ele>1117.1900000000001</ele>
        <time>2014-06-08T12:42:33Z</time>
      </trkpt>
      <trkpt lat="46.025189571082592" lon="8.630468510091305">
        <ele>1114.3099999999999</ele>
        <time>2014-06-08T12:42:45Z</time>
      </trkpt>
      <trkpt lat="46.025174232199788" lon="8.630578061565757">
        <ele>1110.9400000000001</ele>
        <time>2014-06-08T12:42:55Z</time>
      </trkpt>
      <trkpt lat="46.025162162259221" lon="8.630698509514332">
        <ele>1108.0599999999999</ele>
        <time>2014-06-08T12:43:04Z</time>
      </trkpt>
      <trkpt lat="46.025092927739024" lon="8.630815017968416">
        <ele>1104.6900000000001</ele>
        <time>2014-06-08T12:43:17Z</time>
      </trkpt>
      <trkpt lat="46.025169873610139" lon="8.630803870037198">
        <ele>1101.8099999999999</ele>
        <time>2014-06-08T12:43:31Z</time>
      </trkpt>
      <trkpt lat="46.025234246626496" lon="8.630802445113659">
        <ele>1098.4400000000001</ele>
        <time>2014-06-08T12:43:42Z</time>
      </trkpt>
      <trkpt lat="46.025202479213476" lon="8.630853490903974">
        <ele>1097.96</ele>
        <time>2014-06-08T12:43:47Z</time>
      </trkpt>
      <trkpt lat="46.025040540844202" lon="8.630938567221165">
        <ele>1096.04</ele>
        <time>2014-06-08T12:44:02Z</time>
      </trkpt>
      <trkpt lat="46.024877009913325" lon="8.630973184481263">
        <ele>1095.5599999999999</ele>
        <time>2014-06-08T12:44:14Z</time>
      </trkpt>
      <trkpt lat="46.024844571948051" lon="8.630989110097289">
        <ele>1095.5599999999999</ele>
        <time>2014-06-08T12:44:18Z</time>
      </trkpt>
      <trkpt lat="46.024798890575767" lon="8.631072174757719">
        <ele>1096.04</ele>
        <time>2014-06-08T12:44:34Z</time>
      </trkpt>
      <trkpt lat="46.024853121489286" lon="8.631197651848197">
        <ele>1097.96</ele>
        <time>2014-06-08T12:44:51Z</time>
      </trkpt>
      <trkpt lat="46.025029309093952" lon="8.631307790055871">
        <ele>1095.5599999999999</ele>
        <time>2014-06-08T12:45:07Z</time>
      </trkpt>
      <trkpt lat="46.025073397904634" lon="8.631331259384751">
        <ele>1092.6800000000001</ele>
        <time>2014-06-08T12:45:15Z</time>
      </trkpt>
      <trkpt lat="46.025070631876588" lon="8.631275855004787">
        <ele>1091.71</ele>
        <time>2014-06-08T12:45:28Z</time>
      </trkpt>
      <trkpt lat="46.025111200287938" lon="8.631367720663548">
        <ele>1090.27</ele>
        <time>2014-06-08T12:45:51Z</time>
      </trkpt>
      <trkpt lat="46.025123102590442" lon="8.631365541368723">
        <ele>1089.79</ele>
        <time>2014-06-08T12:46:03Z</time>
      </trkpt>
      <trkpt lat="46.025129975751042" lon="8.631352297961712">
        <ele>1090.27</ele>
        <time>2014-06-08T12:46:23Z</time>
      </trkpt>
      <trkpt lat="46.025131987407804" lon="8.631387250497937">
        <ele>1090.27</ele>
        <time>2014-06-08T12:46:41Z</time>
      </trkpt>
      <trkpt lat="46.02511421777308" lon="8.631333019584417">
        <ele>1090.27</ele>
        <time>2014-06-08T12:46:58Z</time>
      </trkpt>
      <trkpt lat="46.025145314633846" lon="8.631396051496267">
        <ele>1090.27</ele>
        <time>2014-06-08T12:47:20Z</time>
      </trkpt>
      <trkpt lat="46.025103237479925" lon="8.631370989605784">
        <ele>1089.79</ele>
        <time>2014-06-08T12:47:38Z</time>
      </trkpt>
      <trkpt lat="46.025131400674582" lon="8.631360260769725">
        <ele>1089.3099999999999</ele>
        <time>2014-06-08T12:47:56Z</time>
      </trkpt>
      <trkpt lat="46.025031320750713" lon="8.631413402035832">
        <ele>1089.3099999999999</ele>
        <time>2014-06-08T12:48:24Z</time>
      </trkpt>
      <trkpt lat="46.02508882060647" lon="8.631412480026484">
        <ele>1089.3099999999999</ele>
        <time>2014-06-08T12:48:54Z</time>
      </trkpt>
      <trkpt lat="46.02518948726356" lon="8.631481882184744">
        <ele>1088.8299999999999</ele>
        <time>2014-06-08T12:49:16Z</time>
      </trkpt>
      <trkpt lat="46.025265259668231" lon="8.63161607645452">
        <ele>1085.95</ele>
        <time>2014-06-08T12:49:29Z</time>
      </trkpt>
      <trkpt lat="46.025426778942347" lon="8.631741972640157">
        <ele>1083.54</ele>
        <time>2014-06-08T12:49:45Z</time>
      </trkpt>
      <trkpt lat="46.025448990985751" lon="8.631759993731976">
        <ele>1082.5799999999999</ele>
        <time>2014-06-08T12:49:49Z</time>
      </trkpt>
      <trkpt lat="46.025558039546013" lon="8.631843477487564">
        <ele>1080.6600000000001</ele>
        <time>2014-06-08T12:50:02Z</time>
      </trkpt>
      <trkpt lat="46.02567370980978" lon="8.631954118609428">
        <ele>1078.26</ele>
        <time>2014-06-08T12:50:17Z</time>
      </trkpt>
      <trkpt lat="46.025730120018125" lon="8.632031986489892">
        <ele>1076.3299999999999</ele>
        <time>2014-06-08T12:50:28Z</time>
      </trkpt>
      <trkpt lat="46.025833636522293" lon="8.632165426388383">
        <ele>1073.9300000000001</ele>
        <time>2014-06-08T12:50:42Z</time>
      </trkpt>
      <trkpt lat="46.025925502181053" lon="8.632304482161999">
        <ele>1071.53</ele>
        <time>2014-06-08T12:50:54Z</time>
      </trkpt>
      <trkpt lat="46.025958275422454" lon="8.632343374192715">
        <ele>1071.05</ele>
        <time>2014-06-08T12:50:58Z</time>
      </trkpt>
      <trkpt lat="46.026013344526291" lon="8.632559794932604">
        <ele>1068.6400000000001</ele>
        <time>2014-06-08T12:51:13Z</time>
      </trkpt>
      <trkpt lat="46.025990881025791" lon="8.632599776610732">
        <ele>1068.6400000000001</ele>
        <time>2014-06-08T12:51:17Z</time>
      </trkpt>
      <trkpt lat="46.025945032015443" lon="8.632802618667483">
        <ele>1064.8</ele>
        <time>2014-06-08T12:51:33Z</time>
      </trkpt>
      <trkpt lat="46.025925753638148" lon="8.632852993905544">
        <ele>1062.8699999999999</ele>
        <time>2014-06-08T12:51:41Z</time>
      </trkpt>
      <trkpt lat="46.025849981233478" lon="8.632915271446109">
        <ele>1059.51</ele>
        <time>2014-06-08T12:51:51Z</time>
      </trkpt>
      <trkpt lat="46.025737999007106" lon="8.632986014708877">
        <ele>1059.99</ele>
        <time>2014-06-08T12:52:05Z</time>
      </trkpt>
      <trkpt lat="46.025706063956022" lon="8.633030019700527">
        <ele>1059.51</ele>
        <time>2014-06-08T12:52:10Z</time>
      </trkpt>
      <trkpt lat="46.025683768093586" lon="8.633111910894513">
        <ele>1058.55</ele>
        <time>2014-06-08T12:52:25Z</time>
      </trkpt>
      <trkpt lat="46.025779992341995" lon="8.633139571174979">
        <ele>1057.5899999999999</ele>
        <time>2014-06-08T12:52:41Z</time>
      </trkpt>
      <trkpt lat="46.025911588221788" lon="8.633258594200015">
        <ele>1055.6700000000001</ele>
        <time>2014-06-08T12:52:52Z</time>
      </trkpt>
      <trkpt lat="46.026058439165354" lon="8.633346939459443">
        <ele>1052.78</ele>
        <time>2014-06-08T12:53:04Z</time>
      </trkpt>
      <trkpt lat="46.026127925142646" lon="8.633417095988989">
        <ele>1049.9000000000001</ele>
        <time>2014-06-08T12:53:15Z</time>
      </trkpt>
      <trkpt lat="46.026175785809755" lon="8.633469315245748">
        <ele>1047.97</ele>
        <time>2014-06-08T12:53:28Z</time>
      </trkpt>
      <trkpt lat="46.026252647861838" lon="8.63351927138865">
        <ele>1045.0899999999999</ele>
        <time>2014-06-08T12:53:42Z</time>
      </trkpt>
      <trkpt lat="46.026287013664842" lon="8.633567802608013">
        <ele>1043.6500000000001</ele>
        <time>2014-06-08T12:53:48Z</time>
      </trkpt>
      <trkpt lat="46.026343004778028" lon="8.633720437064767">
        <ele>1040.76</ele>
        <time>2014-06-08T12:54:00Z</time>
      </trkpt>
      <trkpt lat="46.026397654786706" lon="8.633874747902155">
        <ele>1038.3599999999999</ele>
        <time>2014-06-08T12:54:11Z</time>
      </trkpt>
      <trkpt lat="46.026422549039125" lon="8.633964015170932">
        <ele>1035.48</ele>
        <time>2014-06-08T12:54:20Z</time>
      </trkpt>
      <trkpt lat="46.026493879035115" lon="8.634097957983613">
        <ele>1032.5899999999999</ele>
        <time>2014-06-08T12:54:29Z</time>
      </trkpt>
      <trkpt lat="46.026564789935946" lon="8.634248077869415">
        <ele>1029.23</ele>
        <time>2014-06-08T12:54:45Z</time>
      </trkpt>
      <trkpt lat="46.026598904281855" lon="8.634393587708473">
        <ele>1026.3399999999999</ele>
        <time>2014-06-08T12:55:00Z</time>
      </trkpt>
      <trkpt lat="46.026630001142621" lon="8.634606404229999">
        <ele>1024.9000000000001</ele>
        <time>2014-06-08T12:55:13Z</time>
      </trkpt>
      <trkpt lat="46.026636539027095" lon="8.634625934064388">
        <ele>1024.4200000000001</ele>
        <time>2014-06-08T12:55:14Z</time>
      </trkpt>
      <trkpt lat="46.026754723861814" lon="8.634810084477067">
        <ele>1022.5</ele>
        <time>2014-06-08T12:55:29Z</time>
      </trkpt>
      <trkpt lat="46.026785653084517" lon="8.634888539090753">
        <ele>1021.54</ele>
        <time>2014-06-08T12:55:36Z</time>
      </trkpt>
      <trkpt lat="46.026814738288522" lon="8.634929358959198">
        <ele>1021.0599999999999</ele>
        <time>2014-06-08T12:55:41Z</time>
      </trkpt>
      <trkpt lat="46.026875674724579" lon="8.635067827999592">
        <ele>1019.62</ele>
        <time>2014-06-08T12:55:51Z</time>
      </trkpt>
      <trkpt lat="46.026977933943272" lon="8.63525147549808">
        <ele>1017.21</ele>
        <time>2014-06-08T12:56:07Z</time>
      </trkpt>
      <trkpt lat="46.027044570073485" lon="8.635426154360175">
        <ele>1015.29</ele>
        <time>2014-06-08T12:56:20Z</time>
      </trkpt>
      <trkpt lat="46.027115397155285" lon="8.63559152930975">
        <ele>1014.8099999999999</ele>
        <time>2014-06-08T12:56:33Z</time>
      </trkpt>
      <trkpt lat="46.027149679139256" lon="8.635640814900398">
        <ele>1014.8099999999999</ele>
        <time>2014-06-08T12:56:37Z</time>
      </trkpt>
      <trkpt lat="46.027200724929571" lon="8.635718431323767">
        <ele>1014.8099999999999</ele>
        <time>2014-06-08T12:56:43Z</time>
      </trkpt>
      <trkpt lat="46.027228133752942" lon="8.635916160419583">
        <ele>1011.4400000000001</ele>
        <time>2014-06-08T12:56:57Z</time>
      </trkpt>
      <trkpt lat="46.027182200923562" lon="8.636098802089691">
        <ele>1008.5599999999999</ele>
        <time>2014-06-08T12:57:12Z</time>
      </trkpt>
      <trkpt lat="46.027151858434081" lon="8.636235343292356">
        <ele>1005.2</ele>
        <time>2014-06-08T12:57:28Z</time>
      </trkpt>
      <trkpt lat="46.027194019407034" lon="8.636283120140433">
        <ele>1004.23</ele>
        <time>2014-06-08T12:57:42Z</time>
      </trkpt>
      <trkpt lat="46.02713224478066" lon="8.636369872838259">
        <ele>1001.83</ele>
        <time>2014-06-08T12:57:55Z</time>
      </trkpt>
      <trkpt lat="46.027122940868139" lon="8.636406250298023">
        <ele>1001.35</ele>
        <time>2014-06-08T12:57:58Z</time>
      </trkpt>
      <trkpt lat="46.027174070477486" lon="8.636434329673648">
        <ele>999.42999999999995</ele>
        <time>2014-06-08T12:58:11Z</time>
      </trkpt>
      <trkpt lat="46.027291333302855" lon="8.636344140395522">
        <ele>997.99000000000001</ele>
        <time>2014-06-08T12:58:28Z</time>
      </trkpt>
      <trkpt lat="46.027339613065124" lon="8.636234253644943">
        <ele>995.58000000000004</ele>
        <time>2014-06-08T12:58:45Z</time>
      </trkpt>
      <trkpt lat="46.027336427941918" lon="8.636239869520068">
        <ele>995.10000000000002</ele>
        <time>2014-06-08T12:58:46Z</time>
      </trkpt>
      <trkpt lat="46.027415636926889" lon="8.636265266686678">
        <ele>994.62</ele>
        <time>2014-06-08T12:59:00Z</time>
      </trkpt>
      <trkpt lat="46.027390658855438" lon="8.636274989694357">
        <ele>994.13999999999999</ele>
        <time>2014-06-08T12:59:36Z</time>
      </trkpt>
      <trkpt lat="46.027360903099179" lon="8.636285131797195">
        <ele>994.13999999999999</ele>
        <time>2014-06-08T12:59:48Z</time>
      </trkpt>
      <trkpt lat="46.02739317342639" lon="8.636257220059633">
        <ele>995.10000000000002</ele>
        <time>2014-06-08T13:00:03Z</time>
      </trkpt>
      <trkpt lat="46.027430556714535" lon="8.636252777650952">
        <ele>994.62</ele>
        <time>2014-06-08T13:00:35Z</time>
      </trkpt>
      <trkpt lat="46.027358220890164" lon="8.636314552277327">
        <ele>995.10000000000002</ele>
        <time>2014-06-08T13:00:52Z</time>
      </trkpt>
      <trkpt lat="46.027299631386995" lon="8.636404406279326">
        <ele>996.53999999999996</ele>
        <time>2014-06-08T13:01:06Z</time>
      </trkpt>
      <trkpt lat="46.027226038277149" lon="8.636444974690676">
        <ele>997.99000000000001</ele>
        <time>2014-06-08T13:01:15Z</time>
      </trkpt>
      <trkpt lat="46.027175914496183" lon="8.636526865884662">
        <ele>997.99000000000001</ele>
        <time>2014-06-08T13:01:23Z</time>
      </trkpt>
      <trkpt lat="46.027045827358961" lon="8.636562991887331">
        <ele>996.53999999999996</ele>
        <time>2014-06-08T13:01:37Z</time>
      </trkpt>
      <trkpt lat="46.027037696912885" lon="8.636566596105695">
        <ele>996.05999999999995</ele>
        <time>2014-06-08T13:01:38Z</time>
      </trkpt>
      <trkpt lat="46.026866370812058" lon="8.636625437065959">
        <ele>994.13999999999999</ele>
        <time>2014-06-08T13:01:55Z</time>
      </trkpt>
      <trkpt lat="46.026845751330256" lon="8.636711854487658">
        <ele>992.70000000000005</ele>
        <time>2014-06-08T13:02:07Z</time>
      </trkpt>
      <trkpt lat="46.026949603110552" lon="8.636902123689652">
        <ele>988.85000000000002</ele>
        <time>2014-06-08T13:02:18Z</time>
      </trkpt>
      <trkpt lat="46.02695245295763" lon="8.636926850304008">
        <ele>988.85000000000002</ele>
        <time>2014-06-08T13:02:19Z</time>
      </trkpt>
      <trkpt lat="46.026962427422404" lon="8.63715467043221">
        <ele>985.49000000000001</ele>
        <time>2014-06-08T13:02:29Z</time>
      </trkpt>
      <trkpt lat="46.026923870667815" lon="8.637328259646893">
        <ele>982.60000000000002</ele>
        <time>2014-06-08T13:02:38Z</time>
      </trkpt>
      <trkpt lat="46.026924792677164" lon="8.637382239103317">
        <ele>982.12</ele>
        <time>2014-06-08T13:02:53Z</time>
      </trkpt>
      <trkpt lat="46.026898976415396" lon="8.637406211346388">
        <ele>982.12</ele>
        <time>2014-06-08T13:03:10Z</time>
      </trkpt>
      <trkpt lat="46.026923703029752" lon="8.637497490271926">
        <ele>982.12</ele>
        <time>2014-06-08T13:03:29Z</time>
      </trkpt>
      <trkpt lat="46.026892187073827" lon="8.637534203007817">
        <ele>981.63999999999999</ele>
        <time>2014-06-08T13:03:41Z</time>
      </trkpt>
      <trkpt lat="46.026891432702541" lon="8.637565886601806">
        <ele>980.67999999999995</ele>
        <time>2014-06-08T13:03:55Z</time>
      </trkpt>
      <trkpt lat="46.026886235922575" lon="8.637584242969751">
        <ele>980.67999999999995</ele>
        <time>2014-06-08T13:04:14Z</time>
      </trkpt>
      <trkpt lat="46.026893444359303" lon="8.637600922957063">
        <ele>980.67999999999995</ele>
        <time>2014-06-08T13:04:37Z</time>
      </trkpt>
      <trkpt lat="46.026861257851124" lon="8.637617938220501">
        <ele>980.20000000000005</ele>
        <time>2014-06-08T13:04:59Z</time>
      </trkpt>
      <trkpt lat="46.026881709694862" lon="8.637608550488949">
        <ele>979.72000000000003</ele>
        <time>2014-06-08T13:05:15Z</time>
      </trkpt>
      <trkpt lat="46.026894450187683" lon="8.637612238526344">
        <ele>980.20000000000005</ele>
        <time>2014-06-08T13:05:27Z</time>
      </trkpt>
      <trkpt lat="46.026872489601374" lon="8.637623721733689">
        <ele>980.20000000000005</ele>
        <time>2014-06-08T13:05:51Z</time>
      </trkpt>
      <trkpt lat="46.026875674724579" lon="8.637671498581767">
        <ele>979.72000000000003</ele>
        <time>2014-06-08T13:06:07Z</time>
      </trkpt>
      <trkpt lat="46.026807194575667" lon="8.637652806937695">
        <ele>979.24000000000001</ele>
        <time>2014-06-08T13:06:25Z</time>
      </trkpt>
      <trkpt lat="46.026849858462811" lon="8.637659596279264">
        <ele>978.75999999999999</ele>
        <time>2014-06-08T13:06:45Z</time>
      </trkpt>
      <trkpt lat="46.026900736615062" lon="8.637627242133021">
        <ele>977.32000000000005</ele>
        <time>2014-06-08T13:06:56Z</time>
      </trkpt>
      <trkpt lat="46.026902915909886" lon="8.637638138607144">
        <ele>975.88</ele>
        <time>2014-06-08T13:07:04Z</time>
      </trkpt>
      <trkpt lat="46.02692898362875" lon="8.637775266543031">
        <ele>975.88</ele>
        <time>2014-06-08T13:07:15Z</time>
      </trkpt>
      <trkpt lat="46.026852540671825" lon="8.637943910434842">
        <ele>972.99000000000001</ele>
        <time>2014-06-08T13:07:28Z</time>
      </trkpt>
      <trkpt lat="46.026819683611393" lon="8.638028986752033">
        <ele>971.07000000000005</ele>
        <time>2014-06-08T13:07:34Z</time>
      </trkpt>
      <trkpt lat="46.026821695268154" lon="8.638117667287588">
        <ele>970.59000000000003</ele>
        <time>2014-06-08T13:07:43Z</time>
      </trkpt>
      <trkpt lat="46.02688254788518" lon="8.63817005418241">
        <ele>969.14999999999998</ele>
        <time>2014-06-08T13:07:49Z</time>
      </trkpt>
      <trkpt lat="46.026902664452791" lon="8.638240210711956">
        <ele>968.66999999999996</ele>
        <time>2014-06-08T13:07:55Z</time>
      </trkpt>
      <trkpt lat="46.026894450187683" lon="8.638309445232153">
        <ele>967.70000000000005</ele>
        <time>2014-06-08T13:07:59Z</time>
      </trkpt>
      <trkpt lat="46.02686695754528" lon="8.638493344187737">
        <ele>966.25999999999999</ele>
        <time>2014-06-08T13:08:12Z</time>
      </trkpt>
      <trkpt lat="46.026861760765314" lon="8.638690486550331">
        <ele>964.34000000000003</ele>
        <time>2014-06-08T13:08:27Z</time>
      </trkpt>
      <trkpt lat="46.026811134070158" lon="8.638804061338306">
        <ele>963.38</ele>
        <time>2014-06-08T13:08:37Z</time>
      </trkpt>
      <trkpt lat="46.026796381920576" lon="8.638939177617431">
        <ele>961.94000000000005</ele>
        <time>2014-06-08T13:08:50Z</time>
      </trkpt>
      <trkpt lat="46.026850445196033" lon="8.639093153178692">
        <ele>960.49000000000001</ele>
        <time>2014-06-08T13:09:04Z</time>
      </trkpt>
      <trkpt lat="46.02685128338635" lon="8.639289624989033">
        <ele>958.57000000000005</ele>
        <time>2014-06-08T13:09:17Z</time>
      </trkpt>
      <trkpt lat="46.026813229545951" lon="8.639498669654131">
        <ele>957.13</ele>
        <time>2014-06-08T13:09:31Z</time>
      </trkpt>
      <trkpt lat="46.026789676398039" lon="8.63952599465847">
        <ele>956.16999999999996</ele>
        <time>2014-06-08T13:09:34Z</time>
      </trkpt>
      <trkpt lat="46.026738295331597" lon="8.639705535024405">
        <ele>955.21000000000004</ele>
        <time>2014-06-08T13:09:50Z</time>
      </trkpt>
      <trkpt lat="46.02673695422709" lon="8.639913825318217">
        <ele>955.21000000000004</ele>
        <time>2014-06-08T13:10:03Z</time>
      </trkpt>
      <trkpt lat="46.026760591194034" lon="8.640098227187991">
        <ele>952.79999999999995</ele>
        <time>2014-06-08T13:10:18Z</time>
      </trkpt>
      <trkpt lat="46.026748772710562" lon="8.640180202201009">
        <ele>951.84000000000003</ele>
        <time>2014-06-08T13:10:24Z</time>
      </trkpt>
      <trkpt lat="46.026678029447794" lon="8.640329064801335">
        <ele>950.88</ele>
        <time>2014-06-08T13:10:37Z</time>
      </trkpt>
      <trkpt lat="46.026631090790033" lon="8.64044557325542">
        <ele>950.39999999999998</ele>
        <time>2014-06-08T13:10:51Z</time>
      </trkpt>
      <trkpt lat="46.026637712493539" lon="8.640510616824031">
        <ele>948.96000000000004</ele>
        <time>2014-06-08T13:10:58Z</time>
      </trkpt>
      <trkpt lat="46.026663025841117" lon="8.64061170257628">
        <ele>946.07000000000005</ele>
        <time>2014-06-08T13:11:10Z</time>
      </trkpt>
      <trkpt lat="46.026683729141951" lon="8.640683116391301">
        <ele>944.63</ele>
        <time>2014-06-08T13:11:14Z</time>
      </trkpt>
      <trkpt lat="46.026711389422417" lon="8.640786716714501">
        <ele>942.23000000000002</ele>
        <time>2014-06-08T13:11:20Z</time>
      </trkpt>
      <trkpt lat="46.026727985590696" lon="8.640888556838036">
        <ele>938.86000000000001</ele>
        <time>2014-06-08T13:11:29Z</time>
      </trkpt>
      <trkpt lat="46.026764363050461" lon="8.641063487157226">
        <ele>936.46000000000004</ele>
        <time>2014-06-08T13:11:41Z</time>
      </trkpt>
      <trkpt lat="46.026746761053801" lon="8.641299856826663">
        <ele>933.10000000000002</ele>
        <time>2014-06-08T13:11:55Z</time>
      </trkpt>
      <trkpt lat="46.026741815730929" lon="8.641316452994943">
        <ele>933.10000000000002</ele>
        <time>2014-06-08T13:11:56Z</time>
      </trkpt>
      <trkpt lat="46.0266172606498" lon="8.641467578709126">
        <ele>934.05999999999995</ele>
        <time>2014-06-08T13:12:13Z</time>
      </trkpt>
      <trkpt lat="46.026651542633772" lon="8.641557516530156">
        <ele>932.62</ele>
        <time>2014-06-08T13:12:20Z</time>
      </trkpt>
      <trkpt lat="46.026678364723921" lon="8.641622643917799">
        <ele>930.69000000000005</ele>
        <time>2014-06-08T13:12:24Z</time>
      </trkpt>
      <trkpt lat="46.026693535968661" lon="8.641631444916129">
        <ele>929.25</ele>
        <time>2014-06-08T13:12:27Z</time>
      </trkpt>
      <trkpt lat="46.026711137965322" lon="8.641709899529815">
        <ele>927.33000000000004</ele>
        <time>2014-06-08T13:12:30Z</time>
      </trkpt>
      <trkpt lat="46.026707869023085" lon="8.641778714954853">
        <ele>926.85000000000002</ele>
        <time>2014-06-08T13:12:34Z</time>
      </trkpt>
      <trkpt lat="46.026660678908229" lon="8.64192615263164">
        <ele>924.45000000000005</ele>
        <time>2014-06-08T13:12:50Z</time>
      </trkpt>
      <trkpt lat="46.026720525696874" lon="8.642001505941153">
        <ele>923.96000000000004</ele>
        <time>2014-06-08T13:12:57Z</time>
      </trkpt>
      <trkpt lat="46.026772577315569" lon="8.642179453745484">
        <ele>921.08000000000004</ele>
        <time>2014-06-08T13:13:12Z</time>
      </trkpt>
      <trkpt lat="46.026760507375002" lon="8.642263440415263">
        <ele>920.12</ele>
        <time>2014-06-08T13:13:18Z</time>
      </trkpt>
      <trkpt lat="46.026705102995038" lon="8.642494445666671">
        <ele>918.20000000000005</ele>
        <time>2014-06-08T13:13:32Z</time>
      </trkpt>
      <trkpt lat="46.026726476848125" lon="8.642634004354477">
        <ele>915.30999999999995</ele>
        <time>2014-06-08T13:13:41Z</time>
      </trkpt>
      <trkpt lat="46.02671985514462" lon="8.642724780365825">
        <ele>913.38999999999999</ele>
        <time>2014-06-08T13:13:47Z</time>
      </trkpt>
      <trkpt lat="46.026727063581347" lon="8.642901303246617">
        <ele>910.99000000000001</ele>
        <time>2014-06-08T13:14:00Z</time>
      </trkpt>
      <trkpt lat="46.026657074689865" lon="8.64289116114378">
        <ele>910.02999999999997</ele>
        <time>2014-06-08T13:14:12Z</time>
      </trkpt>
      <trkpt lat="46.026610219851136" lon="8.642866769805551">
        <ele>909.05999999999995</ele>
        <time>2014-06-08T13:14:21Z</time>
      </trkpt>
      <trkpt lat="46.026552803814411" lon="8.64285989664495">
        <ele>906.17999999999995</ele>
        <time>2014-06-08T13:14:27Z</time>
      </trkpt>
      <trkpt lat="46.026490610092878" lon="8.642865428701043">
        <ele>905.22000000000003</ele>
        <time>2014-06-08T13:14:33Z</time>
      </trkpt>
      <trkpt lat="46.026458004489541" lon="8.642934747040272">
        <ele>906.17999999999995</ele>
        <time>2014-06-08T13:14:44Z</time>
      </trkpt>
      <trkpt lat="46.026484156027436" lon="8.642956037074328">
        <ele>906.17999999999995</ele>
        <time>2014-06-08T13:14:47Z</time>
      </trkpt>
      <trkpt lat="46.026574093848467" lon="8.643052093684673">
        <ele>904.74000000000001</ele>
        <time>2014-06-08T13:15:02Z</time>
      </trkpt>
      <trkpt lat="46.026697559282184" lon="8.642996102571487">
        <ele>904.25999999999999</ele>
        <time>2014-06-08T13:15:28Z</time>
      </trkpt>
      <trkpt lat="46.026794286444783" lon="8.642902728170157">
        <ele>904.25999999999999</ele>
        <time>2014-06-08T13:15:56Z</time>
      </trkpt>
      <trkpt lat="46.026839716359973" lon="8.642900967970491">
        <ele>904.25999999999999</ele>
        <time>2014-06-08T13:16:04Z</time>
      </trkpt>
      <trkpt lat="46.026786742731929" lon="8.643031558021903">
        <ele>903.77999999999997</ele>
        <time>2014-06-08T13:16:12Z</time>
      </trkpt>
      <trkpt lat="46.026750784367323" lon="8.643049579113722">
        <ele>902.82000000000005</ele>
        <time>2014-06-08T13:16:14Z</time>
      </trkpt>
      <trkpt lat="46.02661918848753" lon="8.643349902704358">
        <ele>902.33000000000004</ele>
        <time>2014-06-08T13:16:29Z</time>
      </trkpt>
      <trkpt lat="46.026706947013736" lon="8.643605131655932">
        <ele>903.29999999999995</ele>
        <time>2014-06-08T13:16:42Z</time>
      </trkpt>
      <trkpt lat="46.026772577315569" lon="8.643916603177786">
        <ele>904.74000000000001</ele>
        <time>2014-06-08T13:17:00Z</time>
      </trkpt>
      <trkpt lat="46.02681465446949" lon="8.643978126347065">
        <ele>903.29999999999995</ele>
        <time>2014-06-08T13:17:05Z</time>
      </trkpt>
      <trkpt lat="46.026774505153298" lon="8.644081726670265">
        <ele>901.85000000000002</ele>
        <time>2014-06-08T13:17:12Z</time>
      </trkpt>
      <trkpt lat="46.026774505153298" lon="8.644160851836205">
        <ele>899.92999999999995</ele>
        <time>2014-06-08T13:17:18Z</time>
      </trkpt>
      <trkpt lat="46.02669051848352" lon="8.644225727766752">
        <ele>901.37</ele>
        <time>2014-06-08T13:17:32Z</time>
      </trkpt>
      <trkpt lat="46.026773247867823" lon="8.644293118268251">
        <ele>902.33000000000004</ele>
        <time>2014-06-08T13:17:51Z</time>
      </trkpt>
      <trkpt lat="46.026777606457472" lon="8.644402837380767">
        <ele>900.40999999999997</ele>
        <time>2014-06-08T13:18:05Z</time>
      </trkpt>
      <trkpt lat="46.026797220110893" lon="8.644409961998463">
        <ele>899.92999999999995</ele>
        <time>2014-06-08T13:18:12Z</time>
      </trkpt>
      <trkpt lat="46.026821443811059" lon="8.64453979767859">
        <ele>898.97000000000003</ele>
        <time>2014-06-08T13:18:26Z</time>
      </trkpt>
      <trkpt lat="46.026848098263144" lon="8.64460282959044">
        <ele>895.61000000000001</ele>
        <time>2014-06-08T13:18:38Z</time>
      </trkpt>
      <trkpt lat="46.026855139061809" lon="8.644585143774748">
        <ele>894.15999999999997</ele>
        <time>2014-06-08T13:18:43Z</time>
      </trkpt>
      <trkpt lat="46.026890845969319" lon="8.644631328061223">
        <ele>892.24000000000001</ele>
        <time>2014-06-08T13:18:54Z</time>
      </trkpt>
      <trkpt lat="46.026891432702541" lon="8.644598219543695">
        <ele>892.24000000000001</ele>
        <time>2014-06-08T13:19:10Z</time>
      </trkpt>
      <trkpt lat="46.026875004172325" lon="8.644631328061223">
        <ele>892.24000000000001</ele>
        <time>2014-06-08T13:19:29Z</time>
      </trkpt>
      <trkpt lat="46.026873914524913" lon="8.644659239798784">
        <ele>891.75999999999999</ele>
        <time>2014-06-08T13:19:47Z</time>
      </trkpt>
      <trkpt lat="46.026877267286181" lon="8.644697545096278">
        <ele>891.75999999999999</ele>
        <time>2014-06-08T13:20:08Z</time>
      </trkpt>
      <trkpt lat="46.026859665289521" lon="8.644879516214132">
        <ele>888.39999999999998</ele>
        <time>2014-06-08T13:20:21Z</time>
      </trkpt>
      <trkpt lat="46.026846505701542" lon="8.6450728867203">
        <ele>885.50999999999999</ele>
        <time>2014-06-08T13:20:33Z</time>
      </trkpt>
      <trkpt lat="46.026810631155968" lon="8.645192664116621">
        <ele>884.07000000000005</ele>
        <time>2014-06-08T13:20:41Z</time>
      </trkpt>
      <trkpt lat="46.026732260361314" lon="8.645392656326294">
        <ele>881.66999999999996</ele>
        <time>2014-06-08T13:20:54Z</time>
      </trkpt>
      <trkpt lat="46.026637796312571" lon="8.645512266084552">
        <ele>880.22000000000003</ele>
        <time>2014-06-08T13:21:07Z</time>
      </trkpt>
      <trkpt lat="46.026641651988029" lon="8.64558644592762">
        <ele>879.74000000000001</ele>
        <time>2014-06-08T13:21:21Z</time>
      </trkpt>
      <trkpt lat="46.026576440781355" lon="8.645519390702248">
        <ele>878.77999999999997</ele>
        <time>2014-06-08T13:21:37Z</time>
      </trkpt>
      <trkpt lat="46.026673838496208" lon="8.645565658807755">
        <ele>879.25999999999999</ele>
        <time>2014-06-08T13:21:57Z</time>
      </trkpt>
      <trkpt lat="46.026684232056141" lon="8.64564998075366">
        <ele>877.34000000000003</ele>
        <time>2014-06-08T13:22:11Z</time>
      </trkpt>
      <trkpt lat="46.026685321703553" lon="8.645743271335959">
        <ele>876.86000000000001</ele>
        <time>2014-06-08T13:22:23Z</time>
      </trkpt>
      <trkpt lat="46.026696469634771" lon="8.645703373476863">
        <ele>876.86000000000001</ele>
        <time>2014-06-08T13:22:44Z</time>
      </trkpt>
      <trkpt lat="46.026672413572669" lon="8.645683592185378">
        <ele>875.89999999999998</ele>
        <time>2014-06-08T13:23:00Z</time>
      </trkpt>
      <trkpt lat="46.026727482676506" lon="8.645699098706245">
        <ele>875.41999999999996</ele>
        <time>2014-06-08T13:23:16Z</time>
      </trkpt>
      <trkpt lat="46.02673745714128" lon="8.645776379853487">
        <ele>873.98000000000002</ele>
        <time>2014-06-08T13:23:39Z</time>
      </trkpt>
      <trkpt lat="46.026754472404718" lon="8.645805548876524">
        <ele>873.00999999999999</ele>
        <time>2014-06-08T13:23:52Z</time>
      </trkpt>
      <trkpt lat="46.02674625813961" lon="8.645806051790714">
        <ele>872.52999999999997</ele>
        <time>2014-06-08T13:24:08Z</time>
      </trkpt>
      <trkpt lat="46.02673745714128" lon="8.64577260799706">
        <ele>872.52999999999997</ele>
        <time>2014-06-08T13:24:22Z</time>
      </trkpt>
      <trkpt lat="46.026710299775004" lon="8.645759867504239">
        <ele>872.52999999999997</ele>
        <time>2014-06-08T13:24:50Z</time>
      </trkpt>
      <trkpt lat="46.026723710820079" lon="8.645772272720933">
        <ele>872.52999999999997</ele>
        <time>2014-06-08T13:25:12Z</time>
      </trkpt>
      <trkpt lat="46.026715496554971" lon="8.645913172513247">
        <ele>870.61000000000001</ele>
        <time>2014-06-08T13:25:29Z</time>
      </trkpt>
      <trkpt lat="46.02671935223043" lon="8.64603697322309">
        <ele>868.21000000000004</ele>
        <time>2014-06-08T13:25:43Z</time>
      </trkpt>
      <trkpt lat="46.026715999469161" lon="8.64617376588285">
        <ele>864.84000000000003</ele>
        <time>2014-06-08T13:25:56Z</time>
      </trkpt>
      <trkpt lat="46.026690602302551" lon="8.646345008164644">
        <ele>861.96000000000004</ele>
        <time>2014-06-08T13:26:10Z</time>
      </trkpt>
      <trkpt lat="46.026685237884521" lon="8.646506862714887">
        <ele>858.59000000000003</ele>
        <time>2014-06-08T13:26:23Z</time>
      </trkpt>
      <trkpt lat="46.026654308661819" lon="8.646632423624396">
        <ele>855.71000000000004</ele>
        <time>2014-06-08T13:26:34Z</time>
      </trkpt>
      <trkpt lat="46.026598652824759" lon="8.64674398675561">
        <ele>854.75</ele>
        <time>2014-06-08T13:26:46Z</time>
      </trkpt>
      <trkpt lat="46.02661089040339" lon="8.646952528506517">
        <ele>851.87</ele>
        <time>2014-06-08T13:27:01Z</time>
      </trkpt>
      <trkpt lat="46.026617344468832" lon="8.647096948698163">
        <ele>848.98000000000002</ele>
        <time>2014-06-08T13:27:12Z</time>
      </trkpt>
      <trkpt lat="46.026607034727931" lon="8.647224185988307">
        <ele>846.10000000000002</ele>
        <time>2014-06-08T13:27:26Z</time>
      </trkpt>
      <trkpt lat="46.026639472693205" lon="8.647256623953581">
        <ele>843.21000000000004</ele>
        <time>2014-06-08T13:27:38Z</time>
      </trkpt>
      <trkpt lat="46.026593456044793" lon="8.647356284782291">
        <ele>841.76999999999998</ele>
        <time>2014-06-08T13:27:46Z</time>
      </trkpt>
      <trkpt lat="46.02659328840673" lon="8.647495340555906">
        <ele>838.88999999999999</ele>
        <time>2014-06-08T13:28:01Z</time>
      </trkpt>
      <trkpt lat="46.026564119383693" lon="8.647615369409323">
        <ele>836.48000000000002</ele>
        <time>2014-06-08T13:28:16Z</time>
      </trkpt>
      <trkpt lat="46.0265654604882" lon="8.647713521495462">
        <ele>833.12</ele>
        <time>2014-06-08T13:28:27Z</time>
      </trkpt>
      <trkpt lat="46.026585660874844" lon="8.647772530093789">
        <ele>831.67999999999995</ele>
        <time>2014-06-08T13:28:34Z</time>
      </trkpt>
      <trkpt lat="46.02655079215765" lon="8.647856432944536">
        <ele>829.75999999999999</ele>
        <time>2014-06-08T13:28:40Z</time>
      </trkpt>
      <trkpt lat="46.026490358635783" lon="8.647894486784935">
        <ele>828.30999999999995</ele>
        <time>2014-06-08T13:28:46Z</time>
      </trkpt>
      <trkpt lat="46.026406874880195" lon="8.648001775145531">
        <ele>825.42999999999995</ele>
        <time>2014-06-08T13:28:57Z</time>
      </trkpt>
      <trkpt lat="46.026365300640464" lon="8.648065393790603">
        <ele>823.50999999999999</ele>
        <time>2014-06-08T13:29:02Z</time>
      </trkpt>
      <trkpt lat="46.026318613439798" lon="8.648162288591266">
        <ele>822.54999999999995</ele>
        <time>2014-06-08T13:29:08Z</time>
      </trkpt>
      <trkpt lat="46.026298915967345" lon="8.648177376016974">
        <ele>822.54999999999995</ele>
        <time>2014-06-08T13:29:10Z</time>
      </trkpt>
      <trkpt lat="46.026252564042807" lon="8.648252729326487">
        <ele>821.58000000000004</ele>
        <time>2014-06-08T13:29:16Z</time>
      </trkpt>
      <trkpt lat="46.026201685890555" lon="8.64834425970912">
        <ele>821.10000000000002</ele>
        <time>2014-06-08T13:29:27Z</time>
      </trkpt>
      <trkpt lat="46.026205122470856" lon="8.648368148133159">
        <ele>820.62</ele>
        <time>2014-06-08T13:29:29Z</time>
      </trkpt>
      <trkpt lat="46.02617846801877" lon="8.648445764556527">
        <ele>819.65999999999997</ele>
        <time>2014-06-08T13:29:33Z</time>
      </trkpt>
      <trkpt lat="46.026141420006752" lon="8.648522207513452">
        <ele>819.17999999999995</ele>
        <time>2014-06-08T13:29:38Z</time>
      </trkpt>
      <trkpt lat="46.02612029761076" lon="8.648592866957188">
        <ele>818.70000000000005</ele>
        <time>2014-06-08T13:29:42Z</time>
      </trkpt>
      <trkpt lat="46.026008985936642" lon="8.648711806163192">
        <ele>817.25999999999999</ele>
        <time>2014-06-08T13:29:56Z</time>
      </trkpt>
      <trkpt lat="46.025947714224458" lon="8.648777017369866">
        <ele>816.77999999999997</ele>
        <time>2014-06-08T13:30:13Z</time>
      </trkpt>
      <trkpt lat="46.025955257937312" lon="8.648944068700075">
        <ele>813.40999999999997</ele>
        <time>2014-06-08T13:30:25Z</time>
      </trkpt>
      <trkpt lat="46.025913096964359" lon="8.649062840268016">
        <ele>810.52999999999997</ele>
        <time>2014-06-08T13:30:37Z</time>
      </trkpt>
      <trkpt lat="46.025873869657516" lon="8.649168787524104">
        <ele>806.67999999999995</ele>
        <time>2014-06-08T13:30:48Z</time>
      </trkpt>
      <trkpt lat="46.025863895192742" lon="8.649233663454652">
        <ele>804.27999999999997</ele>
        <time>2014-06-08T13:30:56Z</time>
      </trkpt>
      <trkpt lat="46.025828858837485" lon="8.649364421144128">
        <ele>801.39999999999998</ele>
        <time>2014-06-08T13:31:08Z</time>
      </trkpt>
      <trkpt lat="46.025807820260525" lon="8.649453604593873">
        <ele>799.95000000000005</ele>
        <time>2014-06-08T13:31:16Z</time>
      </trkpt>
      <trkpt lat="46.025785524398088" lon="8.649505069479346">
        <ele>798.99000000000001</ele>
        <time>2014-06-08T13:31:20Z</time>
      </trkpt>
      <trkpt lat="46.025788709521294" lon="8.649538345634937">
        <ele>798.50999999999999</ele>
        <time>2014-06-08T13:31:22Z</time>
      </trkpt>
      <trkpt lat="46.025792649015784" lon="8.649609759449959">
        <ele>797.54999999999995</ele>
        <time>2014-06-08T13:31:26Z</time>
      </trkpt>
      <trkpt lat="46.025694664567709" lon="8.64984386600554">
        <ele>795.14999999999998</ele>
        <time>2014-06-08T13:31:42Z</time>
      </trkpt>
      <trkpt lat="46.02560724131763" lon="8.649873957037926">
        <ele>795.14999999999998</ele>
        <time>2014-06-08T13:31:55Z</time>
      </trkpt>
      <trkpt lat="46.025642361491919" lon="8.649971187114716">
        <ele>794.19000000000005</ele>
        <time>2014-06-08T13:32:09Z</time>
      </trkpt>
      <trkpt lat="46.025715619325638" lon="8.650076296180487">
        <ele>790.82000000000005</ele>
        <time>2014-06-08T13:32:20Z</time>
      </trkpt>
      <trkpt lat="46.025720480829477" lon="8.65010236389935">
        <ele>790.82000000000005</ele>
        <time>2014-06-08T13:32:22Z</time>
      </trkpt>
      <trkpt lat="46.025758450850844" lon="8.650274109095335">
        <ele>787.94000000000005</ele>
        <time>2014-06-08T13:32:34Z</time>
      </trkpt>
      <trkpt lat="46.025772700086236" lon="8.650301517918706">
        <ele>787.94000000000005</ele>
        <time>2014-06-08T13:32:36Z</time>
      </trkpt>
      <trkpt lat="46.02575677447021" lon="8.650457337498665">
        <ele>786.98000000000002</ele>
        <time>2014-06-08T13:32:48Z</time>
      </trkpt>
      <trkpt lat="46.025617215782404" lon="8.650585664436221">
        <ele>784.57000000000005</ele>
        <time>2014-06-08T13:33:02Z</time>
      </trkpt>
      <trkpt lat="46.025576815009117" lon="8.650605110451579">
        <ele>784.57000000000005</ele>
        <time>2014-06-08T13:33:05Z</time>
      </trkpt>
      <trkpt lat="46.025457959622145" lon="8.650716170668602">
        <ele>784.57000000000005</ele>
        <time>2014-06-08T13:33:18Z</time>
      </trkpt>
      <trkpt lat="46.02538738399744" lon="8.650847682729363">
        <ele>784.57000000000005</ele>
        <time>2014-06-08T13:33:31Z</time>
      </trkpt>
      <trkpt lat="46.025392077863216" lon="8.650865284726024">
        <ele>784.57000000000005</ele>
        <time>2014-06-08T13:33:32Z</time>
      </trkpt>
      <trkpt lat="46.025527445599437" lon="8.651014901697636">
        <ele>781.69000000000005</ele>
        <time>2014-06-08T13:33:48Z</time>
      </trkpt>
      <trkpt lat="46.025544125586748" lon="8.651095535606146">
        <ele>780.73000000000002</ele>
        <time>2014-06-08T13:33:53Z</time>
      </trkpt>
      <trkpt lat="46.025571618229151" lon="8.651286559179425">
        <ele>777.84000000000003</ele>
        <time>2014-06-08T13:34:06Z</time>
      </trkpt>
      <trkpt lat="46.025554016232491" lon="8.651424357667565">
        <ele>774.48000000000002</ele>
        <time>2014-06-08T13:34:18Z</time>
      </trkpt>
      <trkpt lat="46.025477321818471" lon="8.65157607011497">
        <ele>771.60000000000002</ele>
        <time>2014-06-08T13:34:33Z</time>
      </trkpt>
      <trkpt lat="46.025441447272897" lon="8.651743372902274">
        <ele>768.71000000000004</ele>
        <time>2014-06-08T13:34:50Z</time>
      </trkpt>
      <trkpt lat="46.025452259927988" lon="8.651845632120967">
        <ele>766.30999999999995</ele>
        <time>2014-06-08T13:34:59Z</time>
      </trkpt>
      <trkpt lat="46.025438345968723" lon="8.652037745341659">
        <ele>763.41999999999996</ele>
        <time>2014-06-08T13:35:12Z</time>
      </trkpt>
      <trkpt lat="46.025417139753699" lon="8.652181746438146">
        <ele>760.05999999999995</ele>
        <time>2014-06-08T13:35:25Z</time>
      </trkpt>
      <trkpt lat="46.025452679023147" lon="8.652205802500248">
        <ele>756.69000000000005</ele>
        <time>2014-06-08T13:35:38Z</time>
      </trkpt>
      <trkpt lat="46.025437172502279" lon="8.652346367016435">
        <ele>753.80999999999995</ele>
        <time>2014-06-08T13:35:50Z</time>
      </trkpt>
      <trkpt lat="46.025432562455535" lon="8.652489446103573">
        <ele>750.92999999999995</ele>
        <time>2014-06-08T13:36:03Z</time>
      </trkpt>
      <trkpt lat="46.025451421737671" lon="8.652566224336624">
        <ele>749.49000000000001</ele>
        <time>2014-06-08T13:36:09Z</time>
      </trkpt>
      <trkpt lat="46.025413200259209" lon="8.652703016996384">
        <ele>749.49000000000001</ele>
        <time>2014-06-08T13:36:18Z</time>
      </trkpt>
      <trkpt lat="46.025409009307623" lon="8.652736376971006">
        <ele>747.08000000000004</ele>
        <time>2014-06-08T13:36:20Z</time>
      </trkpt>
      <trkpt lat="46.025463659316301" lon="8.652633195742965">
        <ele>744.67999999999995</ele>
        <time>2014-06-08T13:36:33Z</time>
      </trkpt>
      <trkpt lat="46.025539012625813" lon="8.652638057246804">
        <ele>741.30999999999995</ele>
        <time>2014-06-08T13:36:43Z</time>
      </trkpt>
      <trkpt lat="46.025556614622474" lon="8.652742747217417">
        <ele>738.42999999999995</ele>
        <time>2014-06-08T13:36:54Z</time>
      </trkpt>
      <trkpt lat="46.025562398135662" lon="8.652770994231105">
        <ele>737.95000000000005</ele>
        <time>2014-06-08T13:36:56Z</time>
      </trkpt>
      <trkpt lat="46.025509759783745" lon="8.652932262048125">
        <ele>734.58000000000004</ele>
        <time>2014-06-08T13:37:09Z</time>
      </trkpt>
      <trkpt lat="46.025477657094598" lon="8.653035443276167">
        <ele>732.17999999999995</ele>
        <time>2014-06-08T13:37:25Z</time>
      </trkpt>
      <trkpt lat="46.025483189150691" lon="8.653064779937267">
        <ele>732.17999999999995</ele>
        <time>2014-06-08T13:37:29Z</time>
      </trkpt>
      <trkpt lat="46.0254792496562" lon="8.653209619224072">
        <ele>728.82000000000005</ele>
        <time>2014-06-08T13:37:40Z</time>
      </trkpt>
      <trkpt lat="46.025472460314631" lon="8.653235184028745">
        <ele>728.34000000000003</ele>
        <time>2014-06-08T13:37:42Z</time>
      </trkpt>
      <trkpt lat="46.025450751185417" lon="8.653377676382661">
        <ele>724.97000000000003</ele>
        <time>2014-06-08T13:37:53Z</time>
      </trkpt>
      <trkpt lat="46.025472795590758" lon="8.653417238965631">
        <ele>721.61000000000001</ele>
        <time>2014-06-08T13:38:05Z</time>
      </trkpt>
      <trkpt lat="46.025461480021477" lon="8.653548918664455">
        <ele>719.67999999999995</ele>
        <time>2014-06-08T13:38:16Z</time>
      </trkpt>
      <trkpt lat="46.025448823347688" lon="8.653608849272132">
        <ele>719.20000000000005</ele>
        <time>2014-06-08T13:38:20Z</time>
      </trkpt>
      <trkpt lat="46.025457875803113" lon="8.653749162331224">
        <ele>715.84000000000003</ele>
        <time>2014-06-08T13:38:33Z</time>
      </trkpt>
      <trkpt lat="46.025460390374064" lon="8.653892576694489">
        <ele>712.47000000000003</ele>
        <time>2014-06-08T13:38:44Z</time>
      </trkpt>
      <trkpt lat="46.025445302948356" lon="8.653940353542566">
        <ele>712.47000000000003</ele>
        <time>2014-06-08T13:38:48Z</time>
      </trkpt>
      <trkpt lat="46.025424096733332" lon="8.653988549485803">
        <ele>711.02999999999997</ele>
        <time>2014-06-08T13:38:51Z</time>
      </trkpt>
      <trkpt lat="46.025333404541016" lon="8.65417261607945">
        <ele>709.11000000000001</ele>
        <time>2014-06-08T13:39:06Z</time>
      </trkpt>
      <trkpt lat="46.025270288810134" lon="8.654340589419007">
        <ele>706.23000000000002</ele>
        <time>2014-06-08T13:39:19Z</time>
      </trkpt>
      <trkpt lat="46.025218237191439" lon="8.654465479776263">
        <ele>703.34000000000003</ele>
        <time>2014-06-08T13:39:31Z</time>
      </trkpt>
      <trkpt lat="46.02516895160079" lon="8.654601937159896">
        <ele>700.46000000000004</ele>
        <time>2014-06-08T13:39:42Z</time>
      </trkpt>
      <trkpt lat="46.025150176137686" lon="8.654615432024002">
        <ele>699.98000000000002</ele>
        <time>2014-06-08T13:39:44Z</time>
      </trkpt>
      <trkpt lat="46.025070631876588" lon="8.654654994606972">
        <ele>698.04999999999995</ele>
        <time>2014-06-08T13:39:51Z</time>
      </trkpt>
      <trkpt lat="46.024979436770082" lon="8.6547467764467">
        <ele>696.13</ele>
        <time>2014-06-08T13:40:05Z</time>
      </trkpt>
      <trkpt lat="46.025002906098962" lon="8.654849622398615">
        <ele>693.73000000000002</ele>
        <time>2014-06-08T13:40:18Z</time>
      </trkpt>
      <trkpt lat="46.025061411783099" lon="8.654915671795607">
        <ele>690.36000000000001</ele>
        <time>2014-06-08T13:40:30Z</time>
      </trkpt>
      <trkpt lat="46.025096196681261" lon="8.655028659850359">
        <ele>687</ele>
        <time>2014-06-08T13:40:42Z</time>
      </trkpt>
      <trkpt lat="46.02505755610764" lon="8.655145084485412">
        <ele>684.12</ele>
        <time>2014-06-08T13:40:55Z</time>
      </trkpt>
      <trkpt lat="46.025044647976756" lon="8.655296294018626">
        <ele>681.71000000000004</ele>
        <time>2014-06-08T13:41:09Z</time>
      </trkpt>
      <trkpt lat="46.025022519752383" lon="8.655434176325798">
        <ele>679.30999999999995</ele>
        <time>2014-06-08T13:41:23Z</time>
      </trkpt>
      <trkpt lat="46.024999134242535" lon="8.655512966215611">
        <ele>677.87</ele>
        <time>2014-06-08T13:41:36Z</time>
      </trkpt>
      <trkpt lat="46.025007935240865" lon="8.655539536848664">
        <ele>676.90999999999997</ele>
        <time>2014-06-08T13:41:53Z</time>
      </trkpt>
      <trkpt lat="46.024965019896626" lon="8.655541632324457">
        <ele>677.38999999999999</ele>
        <time>2014-06-08T13:42:23Z</time>
      </trkpt>
      <trkpt lat="46.02498035877943" lon="8.65554858930409">
        <ele>676.41999999999996</ele>
        <time>2014-06-08T13:42:46Z</time>
      </trkpt>
      <trkpt lat="46.024968875572085" lon="8.655660655349493">
        <ele>674.98000000000002</ele>
        <time>2014-06-08T13:43:01Z</time>
      </trkpt>
      <trkpt lat="46.024985304102302" lon="8.655697368085384">
        <ele>674.98000000000002</ele>
        <time>2014-06-08T13:43:19Z</time>
      </trkpt>
      <trkpt lat="46.024931324645877" lon="8.655769536271691">
        <ele>673.05999999999995</ele>
        <time>2014-06-08T13:43:37Z</time>
      </trkpt>
      <trkpt lat="46.02490508928895" lon="8.65575629286468">
        <ele>673.05999999999995</ele>
        <time>2014-06-08T13:44:01Z</time>
      </trkpt>
      <trkpt lat="46.024958314374089" lon="8.655731147155166">
        <ele>673.05999999999995</ele>
        <time>2014-06-08T13:44:19Z</time>
      </trkpt>
      <trkpt lat="46.024923529475927" lon="8.655764423310757">
        <ele>672.58000000000004</ele>
        <time>2014-06-08T13:44:36Z</time>
      </trkpt>
      <trkpt lat="46.024926295503974" lon="8.655697535723448">
        <ele>672.58000000000004</ele>
        <time>2014-06-08T13:44:58Z</time>
      </trkpt>
      <trkpt lat="46.024921853095293" lon="8.655785545706749">
        <ele>672.10000000000002</ele>
        <time>2014-06-08T13:45:21Z</time>
      </trkpt>
      <trkpt lat="46.024903999641538" lon="8.655765848234296">
        <ele>672.10000000000002</ele>
        <time>2014-06-08T13:45:45Z</time>
      </trkpt>
      <trkpt lat="46.024883547797799" lon="8.65565612912178">
        <ele>672.10000000000002</ele>
        <time>2014-06-08T13:46:03Z</time>
      </trkpt>
      <trkpt lat="46.024889834225178" lon="8.655742462724447">
        <ele>671.62</ele>
        <time>2014-06-08T13:46:28Z</time>
      </trkpt>
      <trkpt lat="46.024919422343373" lon="8.655769787728787">
        <ele>669.22000000000003</ele>
        <time>2014-06-08T13:46:42Z</time>
      </trkpt>
      <trkpt lat="46.024904083460569" lon="8.655765261501074">
        <ele>671.62</ele>
        <time>2014-06-08T13:46:46Z</time>
      </trkpt>
      <trkpt lat="46.024919589981437" lon="8.655782863497734">
        <ele>671.62</ele>
        <time>2014-06-08T13:47:06Z</time>
      </trkpt>
      <trkpt lat="46.024914477020502" lon="8.655801052227616">
        <ele>671.13999999999999</ele>
        <time>2014-06-08T13:47:26Z</time>
      </trkpt>
      <trkpt lat="46.024910202249885" lon="8.655780600383878">
        <ele>671.62</ele>
        <time>2014-06-08T13:47:48Z</time>
      </trkpt>
      <trkpt lat="46.025025201961398" lon="8.655727040022612">
        <ele>671.62</ele>
        <time>2014-06-08T13:48:12Z</time>
      </trkpt>
      <trkpt lat="46.024929983541369" lon="8.655824856832624">
        <ele>671.62</ele>
        <time>2014-06-08T13:48:36Z</time>
      </trkpt>
      <trkpt lat="46.024927888065577" lon="8.655872801318765">
        <ele>671.13999999999999</ele>
        <time>2014-06-08T13:48:49Z</time>
      </trkpt>
      <trkpt lat="46.024927636608481" lon="8.655999032780528">
        <ele>668.73000000000002</ele>
        <time>2014-06-08T13:49:05Z</time>
      </trkpt>
      <trkpt lat="46.024924200028181" lon="8.656090060248971">
        <ele>666.33000000000004</ele>
        <time>2014-06-08T13:49:14Z</time>
      </trkpt>
      <trkpt lat="46.024795956909657" lon="8.656139178201556">
        <ele>663.92999999999995</ele>
        <time>2014-06-08T13:49:26Z</time>
      </trkpt>
      <trkpt lat="46.024708785116673" lon="8.656165162101388">
        <ele>662.49000000000001</ele>
        <time>2014-06-08T13:49:35Z</time>
      </trkpt>
      <trkpt lat="46.024675676599145" lon="8.656290471553803">
        <ele>660.55999999999995</ele>
        <time>2014-06-08T13:49:46Z</time>
      </trkpt>
      <trkpt lat="46.024753879755735" lon="8.656369848176837">
        <ele>658.15999999999997</ele>
        <time>2014-06-08T13:49:58Z</time>
      </trkpt>
      <trkpt lat="46.024776175618172" lon="8.656553495675325">
        <ele>655.75999999999999</ele>
        <time>2014-06-08T13:50:10Z</time>
      </trkpt>
      <trkpt lat="46.024760250002146" lon="8.656593561172485">
        <ele>655.27999999999997</ele>
        <time>2014-06-08T13:50:13Z</time>
      </trkpt>
      <trkpt lat="46.024685734882951" lon="8.656810317188501">
        <ele>653.35000000000002</ele>
        <time>2014-06-08T13:50:27Z</time>
      </trkpt>
      <trkpt lat="46.024653045460582" lon="8.656871169805527">
        <ele>652.87</ele>
        <time>2014-06-08T13:50:32Z</time>
      </trkpt>
      <trkpt lat="46.024567801505327" lon="8.657021205872297">
        <ele>650.47000000000003</ele>
        <time>2014-06-08T13:50:46Z</time>
      </trkpt>
      <trkpt lat="46.024518515914679" lon="8.65718306042254">
        <ele>648.07000000000005</ele>
        <time>2014-06-08T13:51:00Z</time>
      </trkpt>
      <trkpt lat="46.024474091827869" lon="8.657351704314351">
        <ele>645.17999999999995</ele>
        <time>2014-06-08T13:51:14Z</time>
      </trkpt>
      <trkpt lat="46.024410640820861" lon="8.657547757029533">
        <ele>642.77999999999997</ele>
        <time>2014-06-08T13:51:29Z</time>
      </trkpt>
      <trkpt lat="46.024390943348408" lon="8.657736098393798">
        <ele>639.88999999999999</ele>
        <time>2014-06-08T13:51:44Z</time>
      </trkpt>
      <trkpt lat="46.024365713819861" lon="8.657893761992455">
        <ele>637.00999999999999</ele>
        <time>2014-06-08T13:51:57Z</time>
      </trkpt>
      <trkpt lat="46.024363031610847" lon="8.657935503870249">
        <ele>637.49000000000001</ele>
        <time>2014-06-08T13:51:59Z</time>
      </trkpt>
      <trkpt lat="46.024401001632214" lon="8.658100962638855">
        <ele>634.61000000000001</ele>
        <time>2014-06-08T13:52:08Z</time>
      </trkpt>
      <trkpt lat="46.024398738518357" lon="8.658134322613478">
        <ele>634.13</ele>
        <time>2014-06-08T13:52:10Z</time>
      </trkpt>
      <trkpt lat="46.024403851479292" lon="8.658166341483593">
        <ele>633.64999999999998</ele>
        <time>2014-06-08T13:52:12Z</time>
      </trkpt>
      <trkpt lat="46.024403683841228" lon="8.658227697014809">
        <ele>632.67999999999995</ele>
        <time>2014-06-08T13:52:17Z</time>
      </trkpt>
      <trkpt lat="46.024390105158091" lon="8.6582903098315">
        <ele>631.24000000000001</ele>
        <time>2014-06-08T13:52:23Z</time>
      </trkpt>
      <trkpt lat="46.024381052702665" lon="8.658351665362716">
        <ele>629.32000000000005</ele>
        <time>2014-06-08T13:52:27Z</time>
      </trkpt>
      <trkpt lat="46.024375855922699" lon="8.658363400027156">
        <ele>631.24000000000001</ele>
        <time>2014-06-08T13:52:28Z</time>
      </trkpt>
      <trkpt lat="46.02436906658113" lon="8.658374212682247">
        <ele>629.79999999999995</ele>
        <time>2014-06-08T13:52:29Z</time>
      </trkpt>
      <trkpt lat="46.024330258369446" lon="8.65851167589426">
        <ele>627.39999999999998</ele>
        <time>2014-06-08T13:52:40Z</time>
      </trkpt>
      <trkpt lat="46.02430016733706" lon="8.658646121621132">
        <ele>624.99000000000001</ele>
        <time>2014-06-08T13:52:51Z</time>
      </trkpt>
      <trkpt lat="46.024254653602839" lon="8.658715020865202">
        <ele>624.02999999999997</ele>
        <time>2014-06-08T13:52:57Z</time>
      </trkpt>
      <trkpt lat="46.024141665548086" lon="8.658852316439152">
        <ele>620.66999999999996</ele>
        <time>2014-06-08T13:53:11Z</time>
      </trkpt>
      <trkpt lat="46.024044184014201" lon="8.658964214846492">
        <ele>617.77999999999997</ele>
        <time>2014-06-08T13:53:25Z</time>
      </trkpt>
      <trkpt lat="46.023978553712368" lon="8.659025151282549">
        <ele>614.41999999999996</ele>
        <time>2014-06-08T13:53:36Z</time>
      </trkpt>
      <trkpt lat="46.023889286443591" lon="8.659025738015771">
        <ele>612.5</ele>
        <time>2014-06-08T13:53:46Z</time>
      </trkpt>
      <trkpt lat="46.023844443261623" lon="8.65901836194098">
        <ele>612.5</ele>
        <time>2014-06-08T13:53:51Z</time>
      </trkpt>
      <trkpt lat="46.023753583431244" lon="8.65906773135066">
        <ele>611.53999999999996</ele>
        <time>2014-06-08T13:54:03Z</time>
      </trkpt>
      <trkpt lat="46.02382424287498" lon="8.659151382744312">
        <ele>611.05999999999995</ele>
        <time>2014-06-08T13:54:08Z</time>
      </trkpt>
      <trkpt lat="46.024081399664283" lon="8.659356068819761">
        <ele>610.57000000000005</ele>
        <time>2014-06-08T13:54:22Z</time>
      </trkpt>
      <trkpt lat="46.024170415475965" lon="8.659426476806402">
        <ele>610.09000000000003</ele>
        <time>2014-06-08T13:54:34Z</time>
      </trkpt>
      <trkpt lat="46.024274686351418" lon="8.6595543846488">
        <ele>608.64999999999998</ele>
        <time>2014-06-08T13:54:46Z</time>
      </trkpt>
      <trkpt lat="46.024347860366106" lon="8.659641053527594">
        <ele>608.16999999999996</ele>
        <time>2014-06-08T13:54:53Z</time>
      </trkpt>
      <trkpt lat="46.024333611130714" lon="8.659855630248785">
        <ele>606.73000000000002</ele>
        <time>2014-06-08T13:55:09Z</time>
      </trkpt>
      <trkpt lat="46.024324055761099" lon="8.659955374896526">
        <ele>607.21000000000004</ele>
        <time>2014-06-08T13:55:16Z</time>
      </trkpt>
      <trkpt lat="46.024284660816193" lon="8.66021454334259">
        <ele>606.25</ele>
        <time>2014-06-08T13:55:30Z</time>
      </trkpt>
      <trkpt lat="46.024210983887315" lon="8.66029660217464">
        <ele>605.76999999999998</ele>
        <time>2014-06-08T13:55:38Z</time>
      </trkpt>
      <trkpt lat="46.024067150428891" lon="8.660433143377304">
        <ele>604.80999999999995</ele>
        <time>2014-06-08T13:55:54Z</time>
      </trkpt>
      <trkpt lat="46.024024318903685" lon="8.660466922447085">
        <ele>603.85000000000002</ele>
        <time>2014-06-08T13:55:59Z</time>
      </trkpt>
      <trkpt lat="46.023970590904355" lon="8.660463904961944">
        <ele>603.36000000000001</ele>
        <time>2014-06-08T13:56:04Z</time>
      </trkpt>
      <trkpt lat="46.023912923410535" lon="8.66044663824141">
        <ele>602.88</ele>
        <time>2014-06-08T13:56:11Z</time>
      </trkpt>
      <trkpt lat="46.023788787424564" lon="8.660440267995">
        <ele>601.44000000000005</ele>
        <time>2014-06-08T13:56:23Z</time>
      </trkpt>
      <trkpt lat="46.023630201816559" lon="8.660490056499839">
        <ele>600.48000000000002</ele>
        <time>2014-06-08T13:56:36Z</time>
      </trkpt>
      <trkpt lat="46.023637829348445" lon="8.660619892179966">
        <ele>600.48000000000002</ele>
        <time>2014-06-08T13:56:50Z</time>
      </trkpt>
      <trkpt lat="46.023674961179495" lon="8.66076716221869">
        <ele>600</ele>
        <time>2014-06-08T13:57:04Z</time>
      </trkpt>
      <trkpt lat="46.023668507114053" lon="8.660785770043731">
        <ele>600</ele>
        <time>2014-06-08T13:57:06Z</time>
      </trkpt>
      <trkpt lat="46.023621903732419" lon="8.660985762253404">
        <ele>598.55999999999995</ele>
        <time>2014-06-08T13:57:22Z</time>
      </trkpt>
      <trkpt lat="46.023565074428916" lon="8.661164129152894">
        <ele>597.60000000000002</ele>
        <time>2014-06-08T13:57:33Z</time>
      </trkpt>
      <trkpt lat="46.023577563464642" lon="8.661342915147543">
        <ele>596.14999999999998</ele>
        <time>2014-06-08T13:57:47Z</time>
      </trkpt>
      <trkpt lat="46.023576054722071" lon="8.661380549892783">
        <ele>596.14999999999998</ele>
        <time>2014-06-08T13:57:50Z</time>
      </trkpt>
      <trkpt lat="46.023581083863974" lon="8.661429919302464">
        <ele>595.66999999999996</ele>
        <time>2014-06-08T13:57:54Z</time>
      </trkpt>
      <trkpt lat="46.023537078872323" lon="8.661675676703453">
        <ele>594.23000000000002</ele>
        <time>2014-06-08T13:58:10Z</time>
      </trkpt>
      <trkpt lat="46.02346608415246" lon="8.661913638934493">
        <ele>593.26999999999998</ele>
        <time>2014-06-08T13:58:27Z</time>
      </trkpt>
      <trkpt lat="46.023489469662309" lon="8.662224020808935">
        <ele>593.26999999999998</ele>
        <time>2014-06-08T13:58:46Z</time>
      </trkpt>
      <trkpt lat="46.023472957313061" lon="8.662383779883385">
        <ele>593.75</ele>
        <time>2014-06-08T13:59:01Z</time>
      </trkpt>
      <trkpt lat="46.023478992283344" lon="8.662397610023618">
        <ele>593.26999999999998</ele>
        <time>2014-06-08T13:59:02Z</time>
      </trkpt>
      <trkpt lat="46.023529032245278" lon="8.662460977211595">
        <ele>592.30999999999995</ele>
        <time>2014-06-08T13:59:07Z</time>
      </trkpt>
      <trkpt lat="46.023510172963142" lon="8.662644121795893">
        <ele>590.87</ele>
        <time>2014-06-08T13:59:21Z</time>
      </trkpt>
      <trkpt lat="46.023498019203544" lon="8.662689132615924">
        <ele>588.95000000000005</ele>
        <time>2014-06-08T13:59:24Z</time>
      </trkpt>
      <trkpt lat="46.023489888757467" lon="8.662733640521765">
        <ele>588.95000000000005</ele>
        <time>2014-06-08T13:59:27Z</time>
      </trkpt>
      <trkpt lat="46.023470023646951" lon="8.662937069311738">
        <ele>588.95000000000005</ele>
        <time>2014-06-08T13:59:43Z</time>
      </trkpt>
      <trkpt lat="46.023470778018236" lon="8.662954336032271">
        <ele>588.46000000000004</ele>
        <time>2014-06-08T13:59:44Z</time>
      </trkpt>
      <trkpt lat="46.023496510460973" lon="8.663113508373499">
        <ele>587.01999999999998</ele>
        <time>2014-06-08T13:59:56Z</time>
      </trkpt>
      <trkpt lat="46.023444291204214" lon="8.663335964083672">
        <ele>584.13999999999999</ele>
        <time>2014-06-08T14:00:10Z</time>
      </trkpt>
      <trkpt lat="46.023420821875334" lon="8.663556911051273">
        <ele>582.70000000000005</ele>
        <time>2014-06-08T14:00:24Z</time>
      </trkpt>
      <trkpt lat="46.023389557376504" lon="8.663716586306691">
        <ele>580.76999999999998</ele>
        <time>2014-06-08T14:00:36Z</time>
      </trkpt>
      <trkpt lat="46.023399028927088" lon="8.663870645686984">
        <ele>578.37</ele>
        <time>2014-06-08T14:00:46Z</time>
      </trkpt>
      <trkpt lat="46.023393077775836" lon="8.663930408656597">
        <ele>577.88999999999999</ele>
        <time>2014-06-08T14:00:50Z</time>
      </trkpt>
      <trkpt lat="46.023384528234601" lon="8.664180943742394">
        <ele>576.92999999999995</ele>
        <time>2014-06-08T14:01:05Z</time>
      </trkpt>
      <trkpt lat="46.023384192958474" lon="8.664210950955749">
        <ele>576.45000000000005</ele>
        <time>2014-06-08T14:01:07Z</time>
      </trkpt>
      <trkpt lat="46.023393413051963" lon="8.664329638704658">
        <ele>574.52999999999997</ele>
        <time>2014-06-08T14:01:16Z</time>
      </trkpt>
      <trkpt lat="46.023393496870995" lon="8.664530888199806">
        <ele>572.12</ele>
        <time>2014-06-08T14:01:31Z</time>
      </trkpt>
      <trkpt lat="46.023344378918409" lon="8.664776645600796">
        <ele>569.72000000000003</ele>
        <time>2014-06-08T14:01:46Z</time>
      </trkpt>
      <trkpt lat="46.023339433595538" lon="8.665055343881249">
        <ele>567.79999999999995</ele>
        <time>2014-06-08T14:02:02Z</time>
      </trkpt>
      <trkpt lat="46.023348988965154" lon="8.665238488465548">
        <ele>567.32000000000005</ele>
        <time>2014-06-08T14:02:13Z</time>
      </trkpt>
      <trkpt lat="46.023406991735101" lon="8.665393805131316">
        <ele>564.90999999999997</ele>
        <time>2014-06-08T14:02:25Z</time>
      </trkpt>
      <trkpt lat="46.023436579853296" lon="8.665579212829471">
        <ele>561.54999999999995</ele>
        <time>2014-06-08T14:02:38Z</time>
      </trkpt>
      <trkpt lat="46.023472957313061" lon="8.665736541152">
        <ele>558.17999999999995</ele>
        <time>2014-06-08T14:02:49Z</time>
      </trkpt>
      <trkpt lat="46.023474130779505" lon="8.665810385718942">
        <ele>556.74000000000001</ele>
        <time>2014-06-08T14:02:54Z</time>
      </trkpt>
      <trkpt lat="46.023448146879673" lon="8.665988249704242">
        <ele>554.82000000000005</ele>
        <time>2014-06-08T14:03:03Z</time>
      </trkpt>
      <trkpt lat="46.023464743047953" lon="8.666060920804739">
        <ele>553.86000000000001</ele>
        <time>2014-06-08T14:03:07Z</time>
      </trkpt>
      <trkpt lat="46.023490140214562" lon="8.666310030966997">
        <ele>551.45000000000005</ele>
        <time>2014-06-08T14:03:19Z</time>
      </trkpt>
      <trkpt lat="46.02351201698184" lon="8.666380858048797">
        <ele>550.97000000000003</ele>
        <time>2014-06-08T14:03:23Z</time>
      </trkpt>
      <trkpt lat="46.023515034466982" lon="8.666571713984013">
        <ele>549.52999999999997</ele>
        <time>2014-06-08T14:03:35Z</time>
      </trkpt>
      <trkpt lat="46.023514028638601" lon="8.666668441146612">
        <ele>549.04999999999995</ele>
        <time>2014-06-08T14:03:40Z</time>
      </trkpt>
      <trkpt lat="46.023511178791523" lon="8.666861895471811">
        <ele>547.13</ele>
        <time>2014-06-08T14:03:54Z</time>
      </trkpt>
      <trkpt lat="46.023451164364815" lon="8.667009081691504">
        <ele>546.64999999999998</ele>
        <time>2014-06-08T14:04:05Z</time>
      </trkpt>
      <trkpt lat="46.023420738056302" lon="8.667196417227387">
        <ele>542.32000000000005</ele>
        <time>2014-06-08T14:04:19Z</time>
      </trkpt>
      <trkpt lat="46.023420067504048" lon="8.667343016713858">
        <ele>540.39999999999998</ele>
        <time>2014-06-08T14:04:28Z</time>
      </trkpt>
      <trkpt lat="46.023395759984851" lon="8.667588355019689">
        <ele>537.02999999999997</ele>
        <time>2014-06-08T14:04:43Z</time>
      </trkpt>
      <trkpt lat="46.02338838391006" lon="8.667698912322521">
        <ele>536.07000000000005</ele>
        <time>2014-06-08T14:04:55Z</time>
      </trkpt>
      <trkpt lat="46.023332476615906" lon="8.667889097705483">
        <ele>535.11000000000001</ele>
        <time>2014-06-08T14:05:08Z</time>
      </trkpt>
      <trkpt lat="46.023321663960814" lon="8.668098142370582">
        <ele>533.19000000000005</ele>
        <time>2014-06-08T14:05:24Z</time>
      </trkpt>
      <trkpt lat="46.023290315642953" lon="8.668128736317158">
        <ele>532.71000000000004</ele>
        <time>2014-06-08T14:05:37Z</time>
      </trkpt>
      <trkpt lat="46.023291824385524" lon="8.66814742796123">
        <ele>533.66999999999996</ele>
        <time>2014-06-08T14:06:05Z</time>
      </trkpt>
      <trkpt lat="46.023279838263988" lon="8.668161677196622">
        <ele>532.23000000000002</ele>
        <time>2014-06-08T14:06:30Z</time>
      </trkpt>
      <trkpt lat="46.023273216560483" lon="8.668184643611312">
        <ele>532.71000000000004</ele>
        <time>2014-06-08T14:06:49Z</time>
      </trkpt>
      <trkpt lat="46.023276820778847" lon="8.668293943628669">
        <ele>531.75</ele>
        <time>2014-06-08T14:07:03Z</time>
      </trkpt>
      <trkpt lat="46.023302217945457" lon="8.668306097388268">
        <ele>531.26999999999998</ele>
        <time>2014-06-08T14:07:17Z</time>
      </trkpt>
      <trkpt lat="46.023277407512069" lon="8.668328812345862">
        <ele>531.75</ele>
        <time>2014-06-08T14:07:29Z</time>
      </trkpt>
      <trkpt lat="46.023366507142782" lon="8.668318251147866">
        <ele>530.29999999999995</ele>
        <time>2014-06-08T14:07:45Z</time>
      </trkpt>
      <trkpt lat="46.023338343948126" lon="8.668314898386598">
        <ele>530.29999999999995</ele>
        <time>2014-06-08T14:07:59Z</time>
      </trkpt>
      <trkpt lat="46.023307666182518" lon="8.668299727141857">
        <ele>529.82000000000005</ele>
        <time>2014-06-08T14:08:17Z</time>
      </trkpt>
      <trkpt lat="46.023296602070332" lon="8.668327052146196">
        <ele>529.82000000000005</ele>
        <time>2014-06-08T14:08:42Z</time>
      </trkpt>
      <trkpt lat="46.023278664797544" lon="8.668337864801288">
        <ele>529.82000000000005</ele>
        <time>2014-06-08T14:09:23Z</time>
      </trkpt>
      <trkpt lat="46.023285118862987" lon="8.668311042711139">
        <ele>529.82000000000005</ele>
        <time>2014-06-08T14:10:06Z</time>
      </trkpt>
      <trkpt lat="46.023320993408561" lon="8.668281873688102">
        <ele>529.82000000000005</ele>
        <time>2014-06-08T14:10:41Z</time>
      </trkpt>
      <trkpt lat="46.023329040035605" lon="8.668263098224998">
        <ele>529.34000000000003</ele>
        <time>2014-06-08T14:11:16Z</time>
      </trkpt>
      <trkpt lat="46.023321580141783" lon="8.668265696614981">
        <ele>528.86000000000001</ele>
        <time>2014-06-08T14:11:44Z</time>
      </trkpt>
      <trkpt lat="46.023330381140113" lon="8.668232169002295">
        <ele>528.86000000000001</ele>
        <time>2014-06-08T14:12:04Z</time>
      </trkpt>
      <trkpt lat="46.023331889882684" lon="8.668259494006634">
        <ele>529.34000000000003</ele>
        <time>2014-06-08T14:12:26Z</time>
      </trkpt>
      <trkpt lat="46.02331412024796" lon="8.668238371610642">
        <ele>528.86000000000001</ele>
        <time>2014-06-08T14:12:49Z</time>
      </trkpt>
      <trkpt lat="46.023319317027926" lon="8.668270893394947">
        <ele>528.38</ele>
        <time>2014-06-08T14:13:09Z</time>
      </trkpt>
      <trkpt lat="46.023309677839279" lon="8.668257147073746">
        <ele>528.86000000000001</ele>
        <time>2014-06-08T14:13:34Z</time>
      </trkpt>
      <trkpt lat="46.023298446089029" lon="8.668309701606631">
        <ele>528.38</ele>
        <time>2014-06-08T14:13:52Z</time>
      </trkpt>
      <trkpt lat="46.023289225995541" lon="8.668325962498784">
        <ele>528.38</ele>
        <time>2014-06-08T14:14:12Z</time>
      </trkpt>
      <trkpt lat="46.023287465795875" lon="8.66835605353117">
        <ele>528.38</ele>
        <time>2014-06-08T14:14:28Z</time>
      </trkpt>
      <trkpt lat="46.023291070014238" lon="8.668390670791268">
        <ele>527.89999999999998</ele>
        <time>2014-06-08T14:14:32Z</time>
      </trkpt>
      <trkpt lat="46.023290483281016" lon="8.668479602783918">
        <ele>527.41999999999996</ele>
        <time>2014-06-08T14:14:45Z</time>
      </trkpt>
      <trkpt lat="46.023264499381185" lon="8.668468035757542">
        <ele>527.89999999999998</ele>
        <time>2014-06-08T14:15:01Z</time>
      </trkpt>
      <trkpt lat="46.023321663960814" lon="8.668414894491434">
        <ele>527.41999999999996</ele>
        <time>2014-06-08T14:15:15Z</time>
      </trkpt>
      <trkpt lat="46.023338930681348" lon="8.668406847864389">
        <ele>527.41999999999996</ele>
        <time>2014-06-08T14:15:33Z</time>
      </trkpt>
      <trkpt lat="46.02334002032876" lon="8.66843031719327">
        <ele>527.41999999999996</ele>
        <time>2014-06-08T14:15:48Z</time>
      </trkpt>
      <trkpt lat="46.023310348391533" lon="8.668556213378906">
        <ele>526.94000000000005</ele>
        <time>2014-06-08T14:15:59Z</time>
      </trkpt>
      <trkpt lat="46.023263996466994" lon="8.668743968009949">
        <ele>525.5</ele>
        <time>2014-06-08T14:16:13Z</time>
      </trkpt>
      <trkpt lat="46.023218985646963" lon="8.668990563601255">
        <ele>524.53999999999996</ele>
        <time>2014-06-08T14:16:29Z</time>
      </trkpt>
      <trkpt lat="46.023177076131105" lon="8.669244283810258">
        <ele>524.05999999999995</ele>
        <time>2014-06-08T14:16:44Z</time>
      </trkpt>
      <trkpt lat="46.023141704499722" lon="8.669454837217927">
        <ele>524.05999999999995</ele>
        <time>2014-06-08T14:16:58Z</time>
      </trkpt>
      <trkpt lat="46.022985298186541" lon="8.669670084491372">
        <ele>523.58000000000004</ele>
        <time>2014-06-08T14:17:15Z</time>
      </trkpt>
      <trkpt lat="46.022897455841303" lon="8.66975306533277">
        <ele>523.09000000000003</ele>
        <time>2014-06-08T14:17:24Z</time>
      </trkpt>
      <trkpt lat="46.022953279316425" lon="8.669894468039274">
        <ele>520.69000000000005</ele>
        <time>2014-06-08T14:17:39Z</time>
      </trkpt>
      <trkpt lat="46.022955123335123" lon="8.670071745291352">
        <ele>520.21000000000004</ele>
        <time>2014-06-08T14:17:49Z</time>
      </trkpt>
      <trkpt lat="46.022958057001233" lon="8.670107452198863">
        <ele>520.21000000000004</ele>
        <time>2014-06-08T14:17:51Z</time>
      </trkpt>
      <trkpt lat="46.022959901019931" lon="8.670212477445602">
        <ele>520.21000000000004</ele>
        <time>2014-06-08T14:18:00Z</time>
      </trkpt>
      <trkpt lat="46.022973479703069" lon="8.670236533507705">
        <ele>519.73000000000002</ele>
        <time>2014-06-08T14:18:03Z</time>
      </trkpt>
      <trkpt lat="46.022954871878028" lon="8.670341474935412">
        <ele>517.80999999999995</ele>
        <time>2014-06-08T14:18:09Z</time>
      </trkpt>
      <trkpt lat="46.022879937663674" lon="8.6705113761127">
        <ele>514.91999999999996</ele>
        <time>2014-06-08T14:18:20Z</time>
      </trkpt>
      <trkpt lat="46.022841716185212" lon="8.670699298381805">
        <ele>512.03999999999996</ele>
        <time>2014-06-08T14:18:32Z</time>
      </trkpt>
      <trkpt lat="46.022812044247985" lon="8.670800719410181">
        <ele>510.60000000000002</ele>
        <time>2014-06-08T14:18:38Z</time>
      </trkpt>
      <trkpt lat="46.022848589345813" lon="8.67099953815341">
        <ele>507.23000000000002</ele>
        <time>2014-06-08T14:18:51Z</time>
      </trkpt>
      <trkpt lat="46.022921092808247" lon="8.671190980821848">
        <ele>504.35000000000002</ele>
        <time>2014-06-08T14:19:03Z</time>
      </trkpt>
      <trkpt lat="46.022986136376858" lon="8.671315452083945">
        <ele>502.43000000000001</ele>
        <time>2014-06-08T14:19:11Z</time>
      </trkpt>
      <trkpt lat="46.023031817749143" lon="8.67146180011332">
        <ele>501.94999999999999</ele>
        <time>2014-06-08T14:19:20Z</time>
      </trkpt>
      <trkpt lat="46.023052772507071" lon="8.671520557254553">
        <ele>499.54000000000002</ele>
        <time>2014-06-08T14:19:24Z</time>
      </trkpt>
      <trkpt lat="46.02310549467802" lon="8.671654248610139">
        <ele>496.66000000000003</ele>
        <time>2014-06-08T14:19:35Z</time>
      </trkpt>
      <trkpt lat="46.023162407800555" lon="8.671801686286926">
        <ele>493.76999999999998</ele>
        <time>2014-06-08T14:19:50Z</time>
      </trkpt>
      <trkpt lat="46.023200126364827" lon="8.67199094966054">
        <ele>491.85000000000002</ele>
        <time>2014-06-08T14:20:04Z</time>
      </trkpt>
      <trkpt lat="46.02320565842092" lon="8.672006707638502">
        <ele>491.85000000000002</ele>
        <time>2014-06-08T14:20:05Z</time>
      </trkpt>
      <trkpt lat="46.023215297609568" lon="8.672086335718632">
        <ele>489.44999999999999</ele>
        <time>2014-06-08T14:20:10Z</time>
      </trkpt>
      <trkpt lat="46.023259805515409" lon="8.672289261594415">
        <ele>486.56</ele>
        <time>2014-06-08T14:20:23Z</time>
      </trkpt>
      <trkpt lat="46.023270031437278" lon="8.672344498336315">
        <ele>485.60000000000002</ele>
        <time>2014-06-08T14:20:27Z</time>
      </trkpt>
      <trkpt lat="46.023294758051634" lon="8.672424210235477">
        <ele>484.63999999999999</ele>
        <time>2014-06-08T14:20:32Z</time>
      </trkpt>
      <trkpt lat="46.023277826607227" lon="8.672448433935642">
        <ele>484.16000000000003</ele>
        <time>2014-06-08T14:20:34Z</time>
      </trkpt>
      <trkpt lat="46.023330548778176" lon="8.672521021217108">
        <ele>483.19999999999999</ele>
        <time>2014-06-08T14:20:38Z</time>
      </trkpt>
      <trkpt lat="46.023470526561141" lon="8.672749763354659">
        <ele>480.31999999999999</ele>
        <time>2014-06-08T14:20:53Z</time>
      </trkpt>
      <trkpt lat="46.023559207096696" lon="8.672952186316252">
        <ele>478.38999999999999</ele>
        <time>2014-06-08T14:21:07Z</time>
      </trkpt>
      <trkpt lat="46.023538671433926" lon="8.672968782484531">
        <ele>477.91000000000003</ele>
        <time>2014-06-08T14:21:19Z</time>
      </trkpt>
      <trkpt lat="46.023588124662638" lon="8.673036424443126">
        <ele>477.43000000000001</ele>
        <time>2014-06-08T14:21:37Z</time>
      </trkpt>
      <trkpt lat="46.023638499900699" lon="8.673184448853135">
        <ele>476.47000000000003</ele>
        <time>2014-06-08T14:21:47Z</time>
      </trkpt>
      <trkpt lat="46.023709159344435" lon="8.673350159078836">
        <ele>474.06999999999999</ele>
        <time>2014-06-08T14:21:55Z</time>
      </trkpt>
      <trkpt lat="46.023795995861292" lon="8.67355895228684">
        <ele>470.69999999999999</ele>
        <time>2014-06-08T14:22:06Z</time>
      </trkpt>
      <trkpt lat="46.023851484060287" lon="8.673758776858449">
        <ele>467.33999999999997</ele>
        <time>2014-06-08T14:22:17Z</time>
      </trkpt>
      <trkpt lat="46.023860285058618" lon="8.673778055235744">
        <ele>467.33999999999997</ele>
        <time>2014-06-08T14:22:18Z</time>
      </trkpt>
      <trkpt lat="46.0239302739501" lon="8.673990117385984">
        <ele>463.97000000000003</ele>
        <time>2014-06-08T14:22:30Z</time>
      </trkpt>
      <trkpt lat="46.023988109081984" lon="8.674177955836058">
        <ele>460.61000000000001</ele>
        <time>2014-06-08T14:22:42Z</time>
      </trkpt>
      <trkpt lat="46.024010321125388" lon="8.674206119030714">
        <ele>459.64999999999998</ele>
        <time>2014-06-08T14:22:45Z</time>
      </trkpt>
      <trkpt lat="46.024088524281979" lon="8.67429044097662">
        <ele>457.24000000000001</ele>
        <time>2014-06-08T14:22:53Z</time>
      </trkpt>
      <trkpt lat="46.024135462939739" lon="8.674346264451742">
        <ele>456.27999999999997</ele>
        <time>2014-06-08T14:22:58Z</time>
      </trkpt>
      <trkpt lat="46.024157758802176" lon="8.674374846741557">
        <ele>455.31999999999999</ele>
        <time>2014-06-08T14:23:01Z</time>
      </trkpt>
      <trkpt lat="46.024293377995491" lon="8.674364034086466">
        <ele>452.92000000000002</ele>
        <time>2014-06-08T14:23:12Z</time>
      </trkpt>
      <trkpt lat="46.024293545633554" lon="8.674446176737547">
        <ele>451.48000000000002</ele>
        <time>2014-06-08T14:23:18Z</time>
      </trkpt>
      <trkpt lat="46.024277536198497" lon="8.674605097621679">
        <ele>449.55000000000001</ele>
        <time>2014-06-08T14:23:28Z</time>
      </trkpt>
      <trkpt lat="46.024285079911351" lon="8.674657484516501">
        <ele>447.63</ele>
        <time>2014-06-08T14:23:32Z</time>
      </trkpt>
      <trkpt lat="46.024304525926709" lon="8.674761168658733">
        <ele>444.26999999999998</ele>
        <time>2014-06-08T14:23:43Z</time>
      </trkpt>
      <trkpt lat="46.024313075467944" lon="8.67480743676424">
        <ele>442.81999999999999</ele>
        <time>2014-06-08T14:23:48Z</time>
      </trkpt>
      <trkpt lat="46.024321205914021" lon="8.67484113201499">
        <ele>441.86000000000001</ele>
        <time>2014-06-08T14:23:50Z</time>
      </trkpt>
      <trkpt lat="46.024292288348079" lon="8.675055792555213">
        <ele>438.98000000000002</ele>
        <time>2014-06-08T14:24:04Z</time>
      </trkpt>
      <trkpt lat="46.024277871474624" lon="8.675120836123824">
        <ele>437.54000000000002</ele>
        <time>2014-06-08T14:24:08Z</time>
      </trkpt>
      <trkpt lat="46.024196147918701" lon="8.675287552177906">
        <ele>434.64999999999998</ele>
        <time>2014-06-08T14:24:21Z</time>
      </trkpt>
      <trkpt lat="46.024191956967115" lon="8.67535125464201">
        <ele>433.69</ele>
        <time>2014-06-08T14:24:26Z</time>
      </trkpt>
      <trkpt lat="46.024351883679628" lon="8.675215383991599">
        <ele>430.81</ele>
        <time>2014-06-08T14:24:43Z</time>
      </trkpt>
      <trkpt lat="46.024421537294984" lon="8.675141707062721">
        <ele>427.44</ele>
        <time>2014-06-08T14:24:52Z</time>
      </trkpt>
      <trkpt lat="46.024466212838888" lon="8.675228040665388">
        <ele>425.04000000000002</ele>
        <time>2014-06-08T14:25:02Z</time>
      </trkpt>
      <trkpt lat="46.024474427103996" lon="8.675336921587586">
        <ele>422.16000000000003</ele>
        <time>2014-06-08T14:25:12Z</time>
      </trkpt>
      <trkpt lat="46.02447166107595" lon="8.675346896052361">
        <ele>422.16000000000003</ele>
        <time>2014-06-08T14:25:13Z</time>
      </trkpt>
      <trkpt lat="46.024440648034215" lon="8.675482431426644">
        <ele>419.26999999999998</ele>
        <time>2014-06-08T14:25:25Z</time>
      </trkpt>
      <trkpt lat="46.024438720196486" lon="8.675689548254013">
        <ele>415.91000000000003</ele>
        <time>2014-06-08T14:25:39Z</time>
      </trkpt>
      <trkpt lat="46.024542571976781" lon="8.675828101113439">
        <ele>413.98000000000002</ele>
        <time>2014-06-08T14:25:48Z</time>
      </trkpt>
      <trkpt lat="46.024554641917348" lon="8.675855007022619">
        <ele>413.5</ele>
        <time>2014-06-08T14:25:50Z</time>
      </trkpt>
      <trkpt lat="46.024505356326699" lon="8.676008228212595">
        <ele>410.62</ele>
        <time>2014-06-08T14:26:02Z</time>
      </trkpt>
      <trkpt lat="46.024504769593477" lon="8.676256332546473">
        <ele>407.74000000000001</ele>
        <time>2014-06-08T14:26:17Z</time>
      </trkpt>
      <trkpt lat="46.024501416832209" lon="8.676271755248308">
        <ele>407.25999999999999</ele>
        <time>2014-06-08T14:26:18Z</time>
      </trkpt>
      <trkpt lat="46.024511139839888" lon="8.676414247602224">
        <ele>404.85000000000002</ele>
        <time>2014-06-08T14:26:30Z</time>
      </trkpt>
      <trkpt lat="46.024525137618184" lon="8.67652933113277">
        <ele>402.93000000000001</ele>
        <time>2014-06-08T14:26:38Z</time>
      </trkpt>
      <trkpt lat="46.024601412937045" lon="8.67674239911139">
        <ele>400.05000000000001</ele>
        <time>2014-06-08T14:26:53Z</time>
      </trkpt>
      <trkpt lat="46.024646842852235" lon="8.676956808194518">
        <ele>397.16000000000003</ele>
        <time>2014-06-08T14:27:07Z</time>
      </trkpt>
      <trkpt lat="46.024638377130032" lon="8.677132744342089">
        <ele>395.24000000000001</ele>
        <time>2014-06-08T14:27:19Z</time>
      </trkpt>
      <trkpt lat="46.024575429037213" lon="8.677270542830229">
        <ele>392.83999999999997</ele>
        <time>2014-06-08T14:27:30Z</time>
      </trkpt>
      <trkpt lat="46.024447437375784" lon="8.677238188683987">
        <ele>389.94999999999999</ele>
        <time>2014-06-08T14:27:44Z</time>
      </trkpt>
      <trkpt lat="46.024329755455256" lon="8.677250929176807">
        <ele>387.55000000000001</ele>
        <time>2014-06-08T14:27:56Z</time>
      </trkpt>
      <trkpt lat="46.024298490956426" lon="8.677251851186156">
        <ele>386.58999999999997</ele>
        <time>2014-06-08T14:27:59Z</time>
      </trkpt>
      <trkpt lat="46.024248115718365" lon="8.677239529788494">
        <ele>385.14999999999998</ele>
        <time>2014-06-08T14:28:04Z</time>
      </trkpt>
      <trkpt lat="46.024158010259271" lon="8.677216982468963">
        <ele>383.22000000000003</ele>
        <time>2014-06-08T14:28:12Z</time>
      </trkpt>
      <trkpt lat="46.024128338322043" lon="8.67721002548933">
        <ele>382.74000000000001</ele>
        <time>2014-06-08T14:28:15Z</time>
      </trkpt>
      <trkpt lat="46.024093385785818" lon="8.677209354937077">
        <ele>381.77999999999997</ele>
        <time>2014-06-08T14:28:18Z</time>
      </trkpt>
      <trkpt lat="46.023978469893336" lon="8.677186304703355">
        <ele>378.42000000000002</ele>
        <time>2014-06-08T14:28:31Z</time>
      </trkpt>
      <trkpt lat="46.023864978924394" lon="8.67710692808032">
        <ele>376.00999999999999</ele>
        <time>2014-06-08T14:28:44Z</time>
      </trkpt>
      <trkpt lat="46.023774119094014" lon="8.676940044388175">
        <ele>373.13</ele>
        <time>2014-06-08T14:28:57Z</time>
      </trkpt>
      <trkpt lat="46.023644870147109" lon="8.676799396052957">
        <ele>370.24000000000001</ele>
        <time>2014-06-08T14:29:13Z</time>
      </trkpt>
      <trkpt lat="46.02363858371973" lon="8.676786990836263">
        <ele>368.80000000000001</ele>
        <time>2014-06-08T14:29:14Z</time>
      </trkpt>
      <trkpt lat="46.023576725274324" lon="8.676664531230927">
        <ele>366.39999999999998</ele>
        <time>2014-06-08T14:29:24Z</time>
      </trkpt>
      <trkpt lat="46.023501874879003" lon="8.676536791026592">
        <ele>363.51999999999998</ele>
        <time>2014-06-08T14:29:37Z</time>
      </trkpt>
      <trkpt lat="46.023432388901711" lon="8.676415253430605">
        <ele>361.58999999999997</ele>
        <time>2014-06-08T14:29:49Z</time>
      </trkpt>
      <trkpt lat="46.023355359211564" lon="8.676265385001898">
        <ele>358.70999999999998</ele>
        <time>2014-06-08T14:30:02Z</time>
      </trkpt>
      <trkpt lat="46.023282436653972" lon="8.67612523958087">
        <ele>356.31</ele>
        <time>2014-06-08T14:30:13Z</time>
      </trkpt>
      <trkpt lat="46.023220075294375" lon="8.676073187962174">
        <ele>354.86000000000001</ele>
        <time>2014-06-08T14:30:20Z</time>
      </trkpt>
      <trkpt lat="46.0231220908463" lon="8.675932120531797">
        <ele>351.98000000000002</ele>
        <time>2014-06-08T14:30:34Z</time>
      </trkpt>
      <trkpt lat="46.023025531321764" lon="8.675793567672372">
        <ele>348.62</ele>
        <time>2014-06-08T14:30:48Z</time>
      </trkpt>
      <trkpt lat="46.022941963747144" lon="8.675612518563867">
        <ele>345.73000000000002</ele>
        <time>2014-06-08T14:31:02Z</time>
      </trkpt>
      <trkpt lat="46.022844314575195" lon="8.675468852743506">
        <ele>342.85000000000002</ele>
        <time>2014-06-08T14:31:15Z</time>
      </trkpt>
      <trkpt lat="46.022762171924114" lon="8.675360307097435">
        <ele>340.44</ele>
        <time>2014-06-08T14:31:27Z</time>
      </trkpt>
      <trkpt lat="46.022656308487058" lon="8.675301298499107">
        <ele>337.56</ele>
        <time>2014-06-08T14:31:43Z</time>
      </trkpt>
      <trkpt lat="46.022642478346825" lon="8.675476647913456">
        <ele>335.16000000000003</ele>
        <time>2014-06-08T14:32:00Z</time>
      </trkpt>
      <trkpt lat="46.022640382871032" lon="8.675529537722468">
        <ele>334.68000000000001</ele>
        <time>2014-06-08T14:32:04Z</time>
      </trkpt>
      <trkpt lat="46.022631246596575" lon="8.675691643729806">
        <ele>333.23000000000002</ele>
        <time>2014-06-08T14:32:18Z</time>
      </trkpt>
      <trkpt lat="46.022628396749496" lon="8.67579834535718">
        <ele>329.87</ele>
        <time>2014-06-08T14:32:25Z</time>
      </trkpt>
      <trkpt lat="46.022603586316109" lon="8.675992805510759">
        <ele>326.99000000000001</ele>
        <time>2014-06-08T14:32:37Z</time>
      </trkpt>
      <trkpt lat="46.022552959620953" lon="8.676155330613256">
        <ele>323.62</ele>
        <time>2014-06-08T14:32:49Z</time>
      </trkpt>
      <trkpt lat="46.022488754242659" lon="8.676331602036953">
        <ele>321.22000000000003</ele>
        <time>2014-06-08T14:33:02Z</time>
      </trkpt>
      <trkpt lat="46.022468050941825" lon="8.676485326141119">
        <ele>318.32999999999998</ele>
        <time>2014-06-08T14:33:14Z</time>
      </trkpt>
      <trkpt lat="46.022496297955513" lon="8.676683641970158">
        <ele>315.93000000000001</ele>
        <time>2014-06-08T14:33:27Z</time>
      </trkpt>
      <trkpt lat="46.022401582449675" lon="8.676801156252623">
        <ele>313.05000000000001</ele>
        <time>2014-06-08T14:33:43Z</time>
      </trkpt>
      <trkpt lat="46.022401498630643" lon="8.676813645288348">
        <ele>313.05000000000001</ele>
        <time>2014-06-08T14:33:44Z</time>
      </trkpt>
      <trkpt lat="46.022374676540494" lon="8.677015397697687">
        <ele>309.19999999999999</ele>
        <time>2014-06-08T14:33:58Z</time>
      </trkpt>
      <trkpt lat="46.022393284365535" lon="8.677064683288336">
        <ele>309.68000000000001</ele>
        <time>2014-06-08T14:34:19Z</time>
      </trkpt>
      <trkpt lat="46.022407533600926" lon="8.677088068798184">
        <ele>307.75999999999999</ele>
        <time>2014-06-08T14:34:22Z</time>
      </trkpt>
      <trkpt lat="46.022410383448005" lon="8.677098965272307">
        <ele>307.75999999999999</ele>
        <time>2014-06-08T14:34:23Z</time>
      </trkpt>
      <trkpt lat="46.022447012364864" lon="8.677264591678977">
        <ele>303.91000000000003</ele>
        <time>2014-06-08T14:34:38Z</time>
      </trkpt>
      <trkpt lat="46.0224917717278" lon="8.677408089861274">
        <ele>301.02999999999997</ele>
        <time>2014-06-08T14:34:51Z</time>
      </trkpt>
      <trkpt lat="46.022537536919117" lon="8.677536752074957">
        <ele>298.14999999999998</ele>
        <time>2014-06-08T14:35:04Z</time>
      </trkpt>
      <trkpt lat="46.02256067097187" lon="8.677587546408176">
        <ele>297.18000000000001</ele>
        <time>2014-06-08T14:35:09Z</time>
      </trkpt>
      <trkpt lat="46.0225850623101" lon="8.677631132304668">
        <ele>296.22000000000003</ele>
        <time>2014-06-08T14:35:13Z</time>
      </trkpt>
      <trkpt lat="46.022702408954501" lon="8.677780330181122">
        <ele>292.86000000000001</ele>
        <time>2014-06-08T14:35:27Z</time>
      </trkpt>
      <trkpt lat="46.022715484723449" lon="8.67780371569097">
        <ele>292.86000000000001</ele>
        <time>2014-06-08T14:35:29Z</time>
      </trkpt>
      <trkpt lat="46.022771308198571" lon="8.67796883918345">
        <ele>290.45999999999998</ele>
        <time>2014-06-08T14:35:41Z</time>
      </trkpt>
      <trkpt lat="46.022805757820606" lon="8.678195234388113">
        <ele>287.08999999999997</ele>
        <time>2014-06-08T14:35:56Z</time>
      </trkpt>
      <trkpt lat="46.022720681503415" lon="8.67833630181849">
        <ele>284.20999999999998</ele>
        <time>2014-06-08T14:36:08Z</time>
      </trkpt>
      <trkpt lat="46.022695787250996" lon="8.678518105298281">
        <ele>281.31999999999999</ele>
        <time>2014-06-08T14:36:22Z</time>
      </trkpt>
      <trkpt lat="46.022692769765854" lon="8.678580969572067">
        <ele>279.88</ele>
        <time>2014-06-08T14:36:26Z</time>
      </trkpt>
      <trkpt lat="46.022677179425955" lon="8.678749529644847">
        <ele>277</ele>
        <time>2014-06-08T14:36:40Z</time>
      </trkpt>
      <trkpt lat="46.022653291001916" lon="8.678934182971716">
        <ele>274.11000000000001</ele>
        <time>2014-06-08T14:36:53Z</time>
      </trkpt>
      <trkpt lat="46.022686399519444" lon="8.679132163524628">
        <ele>271.23000000000002</ele>
        <time>2014-06-08T14:37:08Z</time>
      </trkpt>
      <trkpt lat="46.022675922140479" lon="8.679330227896571">
        <ele>267.86000000000001</ele>
        <time>2014-06-08T14:37:21Z</time>
      </trkpt>
      <trkpt lat="46.022615656256676" lon="8.679386219009757">
        <ele>265.94</ele>
        <time>2014-06-08T14:37:29Z</time>
      </trkpt>
      <trkpt lat="46.022548768669367" lon="8.679243810474873">
        <ele>262.57999999999998</ele>
        <time>2014-06-08T14:37:44Z</time>
      </trkpt>
      <trkpt lat="46.022495962679386" lon="8.679130990058184">
        <ele>260.17000000000002</ele>
        <time>2014-06-08T14:37:59Z</time>
      </trkpt>
      <trkpt lat="46.022479953244328" lon="8.679166026413441">
        <ele>259.69</ele>
        <time>2014-06-08T14:38:02Z</time>
      </trkpt>
      <trkpt lat="46.022474840283394" lon="8.6792251188308">
        <ele>259.69</ele>
        <time>2014-06-08T14:38:06Z</time>
      </trkpt>
      <trkpt lat="46.022573076188564" lon="8.679464841261506">
        <ele>259.69</ele>
        <time>2014-06-08T14:38:23Z</time>
      </trkpt>
      <trkpt lat="46.022594785317779" lon="8.679628036916256">
        <ele>260.17000000000002</ele>
        <time>2014-06-08T14:38:33Z</time>
      </trkpt>
      <trkpt lat="46.02260216139257" lon="8.679694589227438">
        <ele>260.17000000000002</ele>
        <time>2014-06-08T14:38:37Z</time>
      </trkpt>
      <trkpt lat="46.022629486396909" lon="8.679808834567666">
        <ele>260.17000000000002</ele>
        <time>2014-06-08T14:38:44Z</time>
      </trkpt>
      <trkpt lat="46.022676676511765" lon="8.680106978863478">
        <ele>259.69</ele>
        <time>2014-06-08T14:39:02Z</time>
      </trkpt>
      <trkpt lat="46.022739205509424" lon="8.680421970784664">
        <ele>259.69</ele>
        <time>2014-06-08T14:39:22Z</time>
      </trkpt>
      <trkpt lat="46.022801734507084" lon="8.680720366537571">
        <ele>259.20999999999998</ele>
        <time>2014-06-08T14:39:40Z</time>
      </trkpt>
      <trkpt lat="46.022827047854662" lon="8.680797144770622">
        <ele>259.69</ele>
        <time>2014-06-08T14:39:45Z</time>
      </trkpt>
      <trkpt lat="46.022816235199571" lon="8.680916083976626">
        <ele>259.20999999999998</ele>
        <time>2014-06-08T14:39:53Z</time>
      </trkpt>
      <trkpt lat="46.022819420322776" lon="8.680973332375288">
        <ele>259.20999999999998</ele>
        <time>2014-06-08T14:39:57Z</time>
      </trkpt>
      <trkpt lat="46.022831993177533" lon="8.681071316823363">
        <ele>259.20999999999998</ele>
        <time>2014-06-08T14:40:03Z</time>
      </trkpt>
      <trkpt lat="46.02288706228137" lon="8.68135211057961">
        <ele>258.25</ele>
        <time>2014-06-08T14:40:20Z</time>
      </trkpt>
      <trkpt lat="46.022981610149145" lon="8.681600298732519">
        <ele>258.25</ele>
        <time>2014-06-08T14:40:37Z</time>
      </trkpt>
      <trkpt lat="46.022986806929111" lon="8.681644974276424">
        <ele>258.25</ele>
        <time>2014-06-08T14:40:48Z</time>
      </trkpt>
      <trkpt lat="46.022929642349482" lon="8.68162527680397">
        <ele>256.81</ele>
        <time>2014-06-08T14:40:54Z</time>
      </trkpt>
      <trkpt lat="46.022836770862341" lon="8.681750921532512">
        <ele>254.88999999999999</ele>
        <time>2014-06-08T14:41:05Z</time>
      </trkpt>
      <trkpt lat="46.022717077285051" lon="8.681944711133838">
        <ele>254.88999999999999</ele>
        <time>2014-06-08T14:41:22Z</time>
      </trkpt>
      <trkpt lat="46.022713556885719" lon="8.681957786902785">
        <ele>254.88999999999999</ele>
        <time>2014-06-08T14:41:23Z</time>
      </trkpt>
      <trkpt lat="46.022669300436974" lon="8.682104889303446">
        <ele>250.56</ele>
        <time>2014-06-08T14:41:32Z</time>
      </trkpt>
      <trkpt lat="46.022663684561849" lon="8.682117126882076">
        <ele>250.08000000000001</ele>
        <time>2014-06-08T14:41:33Z</time>
      </trkpt>
      <trkpt lat="46.022515408694744" lon="8.682285016402602">
        <ele>249.12</ele>
        <time>2014-06-08T14:41:49Z</time>
      </trkpt>
      <trkpt lat="46.022421028465033" lon="8.682348802685738">
        <ele>247.19999999999999</ele>
        <time>2014-06-08T14:41:58Z</time>
      </trkpt>
      <trkpt lat="46.022350285202265" lon="8.682454917579889">
        <ele>245.75</ele>
        <time>2014-06-08T14:42:11Z</time>
      </trkpt>
      <trkpt lat="46.022448353469372" lon="8.682693718001247">
        <ele>244.31</ele>
        <time>2014-06-08T14:42:28Z</time>
      </trkpt>
      <trkpt lat="46.022480539977551" lon="8.682961687445641">
        <ele>242.87</ele>
        <time>2014-06-08T14:42:43Z</time>
      </trkpt>
      <trkpt lat="46.022445587441325" lon="8.683216162025929">
        <ele>241.43000000000001</ele>
        <time>2014-06-08T14:42:58Z</time>
      </trkpt>
      <trkpt lat="46.022411808371544" lon="8.683388158679009">
        <ele>240.47</ele>
        <time>2014-06-08T14:43:08Z</time>
      </trkpt>
      <trkpt lat="46.02240233682096" lon="8.683437779545784">
        <ele>239.99000000000001</ele>
        <time>2014-06-08T14:43:12Z</time>
      </trkpt>
      <trkpt lat="46.022388003766537" lon="8.683500643819571">
        <ele>239.50999999999999</ele>
        <time>2014-06-08T14:43:16Z</time>
      </trkpt>
      <trkpt lat="46.022314829751849" lon="8.68378110229969">
        <ele>238.06</ele>
        <time>2014-06-08T14:43:32Z</time>
      </trkpt>
      <trkpt lat="46.022250792011619" lon="8.684097602963448">
        <ele>236.62</ele>
        <time>2014-06-08T14:43:50Z</time>
      </trkpt>
      <trkpt lat="46.022229250520468" lon="8.684308156371117">
        <ele>235.18000000000001</ele>
        <time>2014-06-08T14:44:04Z</time>
      </trkpt>
      <trkpt lat="46.022238722071052" lon="8.68447495624423">
        <ele>234.22</ele>
        <time>2014-06-08T14:44:17Z</time>
      </trkpt>
      <trkpt lat="46.022238219156861" lon="8.684447631239891">
        <ele>234.22</ele>
        <time>2014-06-08T14:44:39Z</time>
      </trkpt>
      <trkpt lat="46.02227677591145" lon="8.684536144137383">
        <ele>233.25999999999999</ele>
        <time>2014-06-08T14:44:53Z</time>
      </trkpt>
      <trkpt lat="46.022226400673389" lon="8.684730771929026">
        <ele>231.81</ele>
        <time>2014-06-08T14:45:08Z</time>
      </trkpt>
      <trkpt lat="46.022193627431989" lon="8.684867061674595">
        <ele>230.37</ele>
        <time>2014-06-08T14:45:18Z</time>
      </trkpt>
      <trkpt lat="46.022120704874396" lon="8.685067892074585">
        <ele>227.97</ele>
        <time>2014-06-08T14:45:32Z</time>
      </trkpt>
      <trkpt lat="46.022027833387256" lon="8.685370981693268">
        <ele>224.61000000000001</ele>
        <time>2014-06-08T14:45:48Z</time>
      </trkpt>
      <trkpt lat="46.021969830617309" lon="8.685580948367715">
        <ele>221.72</ele>
        <time>2014-06-08T14:46:04Z</time>
      </trkpt>
      <trkpt lat="46.021961448714137" lon="8.685743641108275">
        <ele>220.75999999999999</ele>
        <time>2014-06-08T14:46:17Z</time>
      </trkpt>
      <trkpt lat="46.022034203633666" lon="8.685747664421797">
        <ele>219.31999999999999</ele>
        <time>2014-06-08T14:46:28Z</time>
      </trkpt>
      <trkpt lat="46.021987684071064" lon="8.685794435441494">
        <ele>218.84</ele>
        <time>2014-06-08T14:46:53Z</time>
      </trkpt>
      <trkpt lat="46.022015176713467" lon="8.685803823173046">
        <ele>218.84</ele>
        <time>2014-06-08T14:47:19Z</time>
      </trkpt>
      <trkpt lat="46.021960526704788" lon="8.685750849545002">
        <ele>218.84</ele>
        <time>2014-06-08T14:47:44Z</time>
      </trkpt>
      <trkpt lat="46.021927837282419" lon="8.68575369939208">
        <ele>218.84</ele>
        <time>2014-06-08T14:48:21Z</time>
      </trkpt>
      <trkpt lat="46.021960023790598" lon="8.685733918100596">
        <ele>218.84</ele>
        <time>2014-06-08T14:49:01Z</time>
      </trkpt>
      <trkpt lat="46.02198994718492" lon="8.685762332752347">
        <ele>220.28</ele>
        <time>2014-06-08T14:49:23Z</time>
      </trkpt>
    </trkseg>
  </trk>

</gpx>